Darstellungsparameter: Aktuell verwendete Einstellungen:
Skalierung der Graphiken ... ?
xyx+y,   Skalierungsfaktor:      Skalierung: Modus: x, Faktor: 1
Darstellungszeitraum ... ?
Vom - - bis: - -   Zeitraum: 24.12.2019 - 21.01.2020
Min/Max/Avg-Anzeige ... ?
Zeige MMA aktuell
Zeige MMA Monat
Zeige MMA alles
Zeige --A aktuell
Zeige --A Monat
Zeige --A alles
Keine MMA-Anzeige
MMA:
Average (ber die Originaldaten)
MMA-Basis: 24.12.2019 - 21.01.2020
Quicknavigation für Darstellung... ?
Tage:      1T, 2T, 3T, 5T -1T -2T -3T -5T +1T +2T +3T +5T
Wochen: 1W, 2W, 3W -1W -2W -3W +1W +2W +3W
Monate: 1M, 3M, 6M -1M -3M -6M +1M +3M +6M
Jahre:    1J, 3J, 5J, 10J -1J -3J -5J -10J +1J +3J +5J +10J
Nutze für die Darstellung ... ?
Originaldaten oder Mittelwerte auf ...
Stundenbasis Tagesbasis Wochenbasis
Monatsbasis Jahresbasis      Datenbasis: Original-Daten
Darstellen als:
Statistik (Auto) Statistik J:M      Darstellung:
Zur Graphik,    zurück zur Übersicht aller Sensoren.
 
Tabellarische Datenbersicht: ?
 
Sensor: Nr:Datum:Temp:Feuchte:
Aussen-T/F 1 24-12-2019 00:02:17 5.6 C 35 %
2 24-12-2019 00:12:17 5.8 C 32 %
3 24-12-2019 00:22:17 5.7 C 32 %
4 24-12-2019 00:32:18 6 C 32 %
5 24-12-2019 00:42:18 6.1 C 31 %
6 24-12-2019 00:52:17 6.3 C 31 %
7 24-12-2019 01:02:17 5.6 C 32 %
8 24-12-2019 01:12:17 5.9 C 32 %
9 24-12-2019 01:22:17 6.1 C 30 %
10 24-12-2019 01:32:17 6.3 C 30 %
11 24-12-2019 01:42:17 5.9 C 31 %
12 24-12-2019 01:52:17 5.7 C 33 %
13 24-12-2019 02:02:17 5.7 C 35 %
14 24-12-2019 02:12:17 5.8 C 35 %
15 24-12-2019 02:22:17 5.6 C 35 %
16 24-12-2019 02:32:18 5.5 C 36 %
17 24-12-2019 02:42:18 5.5 C 36 %
18 24-12-2019 02:52:17 6.6 C 30 %
19 24-12-2019 03:02:18 6.7 C 29 %
20 24-12-2019 03:12:18 6.3 C 30 %
21 24-12-2019 03:22:17 5.7 C 31 %
22 24-12-2019 03:32:17 5.5 C 31 %
23 24-12-2019 03:42:17 5.7 C 31 %
24 24-12-2019 03:52:17 5 C 32 %
25 24-12-2019 04:02:17 5 C 38 %
Sensor: Nr:Datum:Temp:Feuchte:
Aussen-T/F 26 24-12-2019 04:12:17 5.2 C 37 %
27 24-12-2019 04:22:17 5.2 C 36 %
28 24-12-2019 04:32:17 4.8 C 37 %
29 24-12-2019 04:42:17 4.8 C 39 %
30 24-12-2019 04:52:17 5.3 C 38 %
31 24-12-2019 05:02:18 5.4 C 35 %
32 24-12-2019 05:12:18 5.2 C 35 %
33 24-12-2019 05:22:17 4.7 C 37 %
34 24-12-2019 05:32:18 5 C 37 %
35 24-12-2019 05:42:18 4.6 C 36 %
36 24-12-2019 05:52:17 4.9 C 37 %
37 24-12-2019 06:02:18 4.3 C 36 %
38 24-12-2019 06:12:18 4.6 C 39 %
39 24-12-2019 06:22:17 4.6 C 38 %
40 24-12-2019 06:32:17 4.6 C 39 %
41 24-12-2019 06:42:17 4.5 C 38 %
42 24-12-2019 06:52:17 4.5 C 39 %
43 24-12-2019 07:02:17 4.8 C 37 %
44 24-12-2019 07:12:17 5 C 36 %
45 24-12-2019 07:22:17 5.4 C 34 %
46 24-12-2019 07:32:17 5.6 C 33 %
47 24-12-2019 07:42:17 5.6 C 32 %
48 24-12-2019 07:52:17 5.8 C 32 %
49 24-12-2019 08:02:17 5.8 C 31 %
50 24-12-2019 08:12:17 6 C 30 %
Sensor: Nr:Datum:Temp:Feuchte:
Aussen-T/F 51 24-12-2019 08:22:17 6.2 C 29 %
52 24-12-2019 08:32:17 6.2 C 30 %
53 24-12-2019 08:42:17 6.3 C 30 %
54 24-12-2019 08:52:18 6.4 C 30 %
55 24-12-2019 09:02:17 6.5 C 29 %
56 24-12-2019 09:12:17 6.8 C 29 %
57 24-12-2019 09:22:17 6.8 C 28 %
58 24-12-2019 09:32:17 6.8 C 29 %
59 24-12-2019 09:42:17 6.8 C 28 %
60 24-12-2019 09:52:17 6.5 C 30 %
61 24-12-2019 10:02:17 6.4 C 30 %
62 24-12-2019 10:12:17 6.2 C 31 %
63 24-12-2019 10:22:17 6.2 C 33 %
64 24-12-2019 10:32:17 6.3 C 37 %
65 24-12-2019 10:42:17 6.8 C 37 %
66 24-12-2019 10:52:17 6.7 C 33 %
67 24-12-2019 11:02:17 6.8 C 35 %
68 24-12-2019 11:12:17 6.9 C 34 %
69 24-12-2019 11:22:17 7.5 C 32 %
70 24-12-2019 11:32:17 8 C 30 %
71 24-12-2019 11:42:17 8.2 C 29 %
72 24-12-2019 11:52:18 8 C 29 %
73 24-12-2019 12:02:17 7.8 C 30 %
74 24-12-2019 12:12:17 7.6 C 30 %
75 24-12-2019 12:22:17 8 C 28 %
Sensor: Nr:Datum:Temp:Feuchte:
Aussen-T/F 76 24-12-2019 12:32:17 8.2 C 27 %
77 24-12-2019 12:42:17 8.4 C 27 %
78 24-12-2019 12:52:18 8.9 C 27 %
79 24-12-2019 13:02:17 9.2 C 25 %
80 24-12-2019 13:12:17 9.3 C 25 %
81 24-12-2019 13:22:17 9.3 C 25 %
82 24-12-2019 13:32:17 9.2 C 26 %
83 24-12-2019 13:42:17 9.3 C 26 %
84 24-12-2019 13:52:17 9.3 C 26 %
85 24-12-2019 14:02:18 9.4 C 25 %
86 24-12-2019 14:12:18 9.5 C 25 %
87 24-12-2019 14:22:17 9.6 C 25 %
88 24-12-2019 14:32:18 9.7 C 25 %
89 24-12-2019 14:42:18 9.3 C 26 %
90 24-12-2019 14:52:17 9.2 C 27 %
91 24-12-2019 15:02:18 9.1 C 27 %
92 24-12-2019 15:12:18 9.5 C 26 %
93 24-12-2019 15:22:17 9.8 C 25 %
94 24-12-2019 15:32:17 10 C 22 %
95 24-12-2019 15:42:17 10.1 C 20 %
96 24-12-2019 15:52:17 10.5 C 20 %
97 24-12-2019 16:02:17 10.1 C 20 %
98 24-12-2019 16:12:17 10 C 20 %
99 24-12-2019 16:22:17 10.2 C 20 %
100 24-12-2019 16:32:17 9.8 C 20 %
Sensor: Nr:Datum:Temp:Feuchte:
Aussen-T/F 101 24-12-2019 16:42:17 9.7 C 21 %
102 24-12-2019 16:52:17 10.1 C 20 %
103 24-12-2019 17:02:17 9.8 C 20 %
104 24-12-2019 17:12:17 9.4 C 20 %
105 24-12-2019 17:22:18 9.6 C 20 %
106 24-12-2019 17:32:17 8.8 C 20 %
107 24-12-2019 17:42:17 9.1 C 20 %
108 24-12-2019 17:52:17 9.3 C 20 %
109 24-12-2019 18:02:17 9 C 20 %
110 24-12-2019 18:12:17 8.5 C 26 %
111 24-12-2019 18:22:17 8.9 C 25 %
112 24-12-2019 18:32:17 8.2 C 28 %
113 24-12-2019 18:42:17 7.8 C 31 %
114 24-12-2019 18:52:17 7.5 C 35 %
115 24-12-2019 19:02:17 7.6 C 31 %
116 24-12-2019 19:12:17 7.3 C 31 %
117 24-12-2019 19:22:17 6.7 C 35 %
118 24-12-2019 19:32:17 6.5 C 40 %
119 24-12-2019 19:42:17 6.5 C 36 %
120 24-12-2019 19:52:17 6.2 C 36 %
121 24-12-2019 20:02:17 6.7 C 35 %
122 24-12-2019 20:12:17 7.3 C 30 %
123 24-12-2019 20:22:17 7.2 C 32 %
124 24-12-2019 20:32:18 7.1 C 30 %
125 24-12-2019 20:42:18 7.3 C 31 %
Sensor: Nr:Datum:Temp:Feuchte:
Aussen-T/F 126 24-12-2019 20:52:17 7.3 C 30 %
127 24-12-2019 21:02:17 7.1 C 31 %
128 24-12-2019 21:12:17 7.7 C 30 %
129 24-12-2019 21:22:17 7.4 C 30 %
130 24-12-2019 21:32:17 7.6 C 30 %
131 24-12-2019 21:42:17 7.9 C 29 %
132 24-12-2019 21:52:17 8.1 C 28 %
133 24-12-2019 22:02:17 8.6 C 26 %
134 24-12-2019 22:12:17 8.5 C 26 %
135 24-12-2019 22:22:17 8.3 C 26 %
136 24-12-2019 22:32:17 8.4 C 26 %
137 24-12-2019 22:42:17 8.2 C 27 %
138 24-12-2019 22:52:17 8 C 28 %
139 24-12-2019 23:02:17 8.4 C 27 %
140 24-12-2019 23:12:17 8.4 C 27 %
141 24-12-2019 23:22:17 8.4 C 27 %
142 24-12-2019 23:32:17 8.5 C 27 %
143 24-12-2019 23:42:17 8.5 C 27 %
144 24-12-2019 23:52:17 8.4 C 27 %
145 25-12-2019 00:02:17 8.4 C 27 %
146 25-12-2019 00:12:17 8.4 C 27 %
147 25-12-2019 00:22:17 8.4 C 28 %
148 25-12-2019 00:32:17 8.3 C 28 %
149 25-12-2019 00:42:18 8.2 C 29 %
150 25-12-2019 00:52:17 8.2 C 29 %
Sensor: Nr:Datum:Temp:Feuchte:
Aussen-T/F 151 25-12-2019 01:02:17 7.8 C 32 %
152 25-12-2019 01:12:17 7.7 C 33 %
153 25-12-2019 01:22:17 7.5 C 35 %
154 25-12-2019 01:32:18 7.3 C 35 %
155 25-12-2019 01:42:18 7.5 C 35 %
156 25-12-2019 01:52:17 7.6 C 33 %
157 25-12-2019 02:02:17 7.7 C 32 %
158 25-12-2019 02:12:17 8 C 31 %
159 25-12-2019 02:22:17 7.9 C 31 %
160 25-12-2019 02:32:18 7.9 C 31 %
161 25-12-2019 02:42:18 7.9 C 31 %
162 25-12-2019 02:52:17 7.9 C 31 %
163 25-12-2019 03:02:17 7.8 C 31 %
164 25-12-2019 03:12:17 7.9 C 32 %
165 25-12-2019 03:22:17 8.1 C 31 %
166 25-12-2019 03:32:17 8.3 C 30 %
167 25-12-2019 03:42:17 8.2 C 30 %
168 25-12-2019 03:52:18 8.2 C 30 %
169 25-12-2019 04:02:17 7.9 C 34 %
170 25-12-2019 04:12:17 8 C 34 %
171 25-12-2019 04:22:18 7.9 C 35 %
172 25-12-2019 04:32:17 7.9 C 36 %
173 25-12-2019 04:42:17 7.9 C 38 %
174 25-12-2019 04:52:17 7.9 C 36 %
175 25-12-2019 05:02:17 7.9 C 37 %
Sensor: Nr:Datum:Temp:Feuchte:
Aussen-T/F 176 25-12-2019 05:12:17 7.8 C 37 %
177 25-12-2019 05:22:18 7.6 C 38 %
178 25-12-2019 05:32:17 8 C 36 %
179 25-12-2019 05:42:17 7.9 C 35 %
180 25-12-2019 05:52:17 7.5 C 35 %
181 25-12-2019 06:02:18 7.5 C 35 %
182 25-12-2019 06:12:18 7.2 C 36 %
183 25-12-2019 06:22:17 7.2 C 37 %
184 25-12-2019 06:32:18 7.3 C 37 %
185 25-12-2019 06:42:18 7.3 C 36 %
186 25-12-2019 06:52:17 7.1 C 39 %
187 25-12-2019 07:02:18 7.3 C 33 %
188 25-12-2019 07:12:18 7.1 C 32 %
189 25-12-2019 07:22:17 6.9 C 35 %
190 25-12-2019 07:32:18 6.8 C 38 %
191 25-12-2019 07:42:18 6.9 C 38 %
192 25-12-2019 07:52:17 7 C 35 %
193 25-12-2019 08:02:18 6.8 C 32 %
194 25-12-2019 08:12:18 6.4 C 32 %
195 25-12-2019 08:22:17 6.2 C 33 %
196 25-12-2019 08:32:17 6.2 C 32 %
197 25-12-2019 08:42:17 6.5 C 32 %
198 25-12-2019 08:52:17 6.7 C 31 %
199 25-12-2019 09:02:17 6.9 C 30 %
200 25-12-2019 09:12:17 6.9 C 30 %
Sensor: Nr:Datum:Temp:Feuchte:
Aussen-T/F 201 25-12-2019 09:22:18 6.8 C 30 %
202 25-12-2019 09:32:17 7.3 C 28 %
203 25-12-2019 09:42:17 7.3 C 27 %
204 25-12-2019 09:52:17 7.3 C 27 %
205 25-12-2019 10:02:17 7.1 C 29 %
206 25-12-2019 10:12:17 7.3 C 27 %
207 25-12-2019 10:22:18 7.6 C 26 %
208 25-12-2019 10:32:17 7.7 C 26 %
209 25-12-2019 10:42:17 7.8 C 25 %
210 25-12-2019 10:52:17 7.5 C 26 %
211 25-12-2019 11:02:17 7.5 C 26 %
212 25-12-2019 11:12:17 7.5 C 26 %
213 25-12-2019 11:22:17 7.7 C 26 %
214 25-12-2019 11:32:17 7.4 C 26 %
215 25-12-2019 11:42:17 7.4 C 27 %
216 25-12-2019 11:52:18 7.1 C 28 %
217 25-12-2019 12:02:17 7.1 C 29 %
218 25-12-2019 12:12:17 7.6 C 27 %
219 25-12-2019 12:22:17 7.6 C 27 %
220 25-12-2019 12:32:17 7.7 C 27 %
221 25-12-2019 12:42:17 7.8 C 27 %
222 25-12-2019 12:52:18 7.6 C 27 %
223 25-12-2019 13:02:17 7.1 C 29 %
224 25-12-2019 13:12:17 7 C 31 %
225 25-12-2019 13:22:18 6.9 C 31 %
Sensor: Nr:Datum:Temp:Feuchte:
Aussen-T/F 226 25-12-2019 13:32:17 7.1 C 30 %
227 25-12-2019 13:42:17 7 C 30 %
228 25-12-2019 13:52:17 6.9 C 30 %
229 25-12-2019 14:02:17 7.1 C 30 %
230 25-12-2019 14:12:17 7.4 C 29 %
231 25-12-2019 14:22:18 7.6 C 28 %
232 25-12-2019 14:32:17 7.7 C 29 %
233 25-12-2019 14:42:17 7.6 C 29 %
234 25-12-2019 14:52:17 7.1 C 31 %
235 25-12-2019 15:02:17 7.1 C 32 %
236 25-12-2019 15:12:17 7.1 C 30 %
237 25-12-2019 15:22:18 7.1 C 31 %
238 25-12-2019 15:32:17 7.4 C 30 %
239 25-12-2019 15:42:17 7.3 C 31 %
240 25-12-2019 15:52:17 7.2 C 30 %
241 25-12-2019 16:02:17 7.2 C 30 %
242 25-12-2019 16:12:17 6.9 C 31 %
243 25-12-2019 16:22:17 6.8 C 32 %
244 25-12-2019 16:32:17 6.7 C 35 %
245 25-12-2019 16:42:17 6.9 C 32 %
246 25-12-2019 16:52:17 6.9 C 31 %
247 25-12-2019 17:02:17 6.8 C 30 %
248 25-12-2019 17:12:17 6.7 C 30 %
249 25-12-2019 17:22:18 6.6 C 31 %
250 25-12-2019 17:32:17 6.2 C 31 %
Sensor: Nr:Datum:Temp:Feuchte:
Aussen-T/F 251 25-12-2019 17:42:17 5.7 C 35 %
252 25-12-2019 17:52:18 5.9 C 35 %
253 25-12-2019 18:02:17 6 C 33 %
254 25-12-2019 18:12:17 6.1 C 32 %
255 25-12-2019 18:22:17 6.2 C 33 %
256 25-12-2019 18:32:17 6.2 C 33 %
257 25-12-2019 18:42:17 6.2 C 32 %
258 25-12-2019 18:52:17 6.2 C 32 %
259 25-12-2019 19:02:17 6 C 33 %
260 25-12-2019 19:12:17 5.9 C 33 %
261 25-12-2019 19:22:17 6.1 C 32 %
262 25-12-2019 19:32:18 6.1 C 32 %
263 25-12-2019 19:42:18 6 C 33 %
264 25-12-2019 19:52:17 5.9 C 33 %
265 25-12-2019 20:02:17 5.8 C 35 %
266 25-12-2019 20:12:17 5.9 C 35 %
267 25-12-2019 20:22:18 5.9 C 34 %
268 25-12-2019 20:32:17 5.8 C 34 %
269 25-12-2019 20:42:17 5.6 C 37 %
270 25-12-2019 20:52:17 5.5 C 38 %
271 25-12-2019 21:02:18 5.5 C 38 %
272 25-12-2019 21:12:18 5.4 C 40 %
273 25-12-2019 21:22:17 5.3 C 41 %
274 25-12-2019 21:32:17 5.3 C 43 %
275 25-12-2019 21:42:17 5.3 C 42 %
Sensor: Nr:Datum:Temp:Feuchte:
Aussen-T/F 276 25-12-2019 21:52:17 5.2 C 42 %
277 25-12-2019 22:02:18 5.2 C 42 %
278 25-12-2019 22:12:18 5.1 C 43 %
279 25-12-2019 22:22:17 5.2 C 42 %
280 25-12-2019 22:32:18 5.1 C 41 %
281 25-12-2019 22:42:18 5.1 C 42 %
282 25-12-2019 22:52:17 5.2 C 42 %
283 25-12-2019 23:02:18 5.2 C 42 %
284 25-12-2019 23:12:18 5.2 C 42 %
285 25-12-2019 23:22:17 5.2 C 42 %
286 25-12-2019 23:32:17 5.1 C 42 %
287 25-12-2019 23:42:17 4.7 C 42 %
288 25-12-2019 23:52:17 4.5 C 42 %
289 26-12-2019 00:02:17 4.6 C 43 %
290 26-12-2019 00:12:18 4 C 42 %
291 26-12-2019 00:22:17 3.6 C 42 %
292 26-12-2019 00:32:18 3.9 C 44 %
293 26-12-2019 00:42:18 3.9 C 44 %
294 26-12-2019 00:52:17 4.1 C 43 %
295 26-12-2019 01:02:18 4.4 C 43 %
296 26-12-2019 01:12:18 4.3 C 43 %
297 26-12-2019 01:22:17 4.3 C 43 %
298 26-12-2019 01:32:17 4.4 C 43 %
299 26-12-2019 01:42:17 4.4 C 43 %
300 26-12-2019 01:52:17 4.3 C 42 %
Sensor: Nr:Datum:Temp:Feuchte:
Aussen-T/F 301 26-12-2019 02:02:18 4.3 C 42 %
302 26-12-2019 02:12:18 4.4 C 42 %
303 26-12-2019 02:22:17 4.2 C 42 %
304 26-12-2019 02:32:17 4 C 42 %
305 26-12-2019 02:42:17 4 C 42 %
306 26-12-2019 02:52:17 4.2 C 42 %
307 26-12-2019 03:02:18 4.2 C 42 %
308 26-12-2019 03:12:18 4.1 C 42 %
309 26-12-2019 03:22:17 4.1 C 42 %
310 26-12-2019 03:32:17 4.1 C 42 %
311 26-12-2019 03:42:17 4.1 C 42 %
312 26-12-2019 03:52:17 3.9 C 43 %
313 26-12-2019 04:02:17 3.6 C 42 %
314 26-12-2019 04:12:17 3.6 C 42 %
315 26-12-2019 04:22:18 3.4 C 42 %
316 26-12-2019 04:32:17 3 C 42 %
317 26-12-2019 04:42:17 3.1 C 42 %
318 26-12-2019 04:52:17 3.1 C 43 %
319 26-12-2019 05:02:17 3.3 C 43 %
320 26-12-2019 05:12:17 3.5 C 43 %
321 26-12-2019 05:22:17 3.4 C 43 %
322 26-12-2019 05:32:18 3.5 C 43 %
323 26-12-2019 05:42:18 3.4 C 43 %
324 26-12-2019 05:52:17 3.5 C 43 %
325 26-12-2019 06:02:17 3.6 C 43 %
Sensor: Nr:Datum:Temp:Feuchte:
Aussen-T/F 326 26-12-2019 06:12:18 3.6 C 43 %
327 26-12-2019 06:22:17 3.5 C 43 %
328 26-12-2019 06:32:18 3.6 C 43 %
329 26-12-2019 06:42:18 3.5 C 43 %
330 26-12-2019 06:52:17 3.5 C 43 %
331 26-12-2019 07:02:18 3.5 C 43 %
332 26-12-2019 07:12:18 3.5 C 43 %
333 26-12-2019 07:22:17 3.4 C 43 %
334 26-12-2019 07:32:17 3.4 C 43 %
335 26-12-2019 07:42:17 3.4 C 43 %
336 26-12-2019 07:52:17 3.4 C 43 %
337 26-12-2019 08:02:18 3.4 C 43 %
338 26-12-2019 08:12:18 3.4 C 43 %
339 26-12-2019 08:22:17 3.5 C 43 %
340 26-12-2019 08:32:17 3.4 C 43 %
341 26-12-2019 08:42:17 3.4 C 43 %
342 26-12-2019 08:52:17 3.5 C 43 %
343 26-12-2019 09:02:17 3.5 C 43 %
344 26-12-2019 09:12:17 3.5 C 43 %
345 26-12-2019 09:22:17 3.4 C 42 %
346 26-12-2019 09:32:17 3.5 C 43 %
347 26-12-2019 09:42:17 3.6 C 42 %
348 26-12-2019 09:52:18 3.6 C 42 %
349 26-12-2019 10:02:17 3.6 C 42 %
350 26-12-2019 10:12:17 3.6 C 42 %
Sensor: Nr:Datum:Temp:Feuchte:
Aussen-T/F 351 26-12-2019 10:22:18 3.8 C 42 %
352 26-12-2019 10:32:17 4 C 41 %
353 26-12-2019 10:42:17 4.3 C 41 %
354 26-12-2019 10:52:18 4.5 C 41 %
355 26-12-2019 11:02:17 4.7 C 41 %
356 26-12-2019 11:12:17 4.8 C 41 %
357 26-12-2019 11:22:17 5 C 40 %
358 26-12-2019 11:32:17 5.4 C 40 %
359 26-12-2019 11:42:17 5.5 C 39 %
360 26-12-2019 11:52:17 5.6 C 37 %
361 26-12-2019 12:02:17 5.7 C 36 %
362 26-12-2019 12:12:17 5.7 C 36 %
363 26-12-2019 12:22:17 5.7 C 35 %
364 26-12-2019 12:32:18 5.9 C 35 %
365 26-12-2019 12:42:18 6 C 35 %
366 26-12-2019 12:52:17 6 C 36 %
367 26-12-2019 13:02:18 5.9 C 36 %
368 26-12-2019 13:12:18 5.9 C 37 %
369 26-12-2019 13:22:17 5.8 C 36 %
370 26-12-2019 13:32:18 5.8 C 36 %
371 26-12-2019 13:42:18 5.7 C 36 %
372 26-12-2019 13:52:17 5.7 C 36 %
373 26-12-2019 14:02:18 5.7 C 36 %
374 26-12-2019 14:12:18 5.8 C 35 %
375 26-12-2019 14:22:17 6 C 35 %
Sensor: Nr:Datum:Temp:Feuchte:
Aussen-T/F 376 26-12-2019 14:32:17 6 C 35 %
377 26-12-2019 14:42:17 5.7 C 35 %
378 26-12-2019 14:52:17 5.6 C 36 %
379 26-12-2019 15:02:17 5.5 C 36 %
380 26-12-2019 15:12:17 5.4 C 36 %
381 26-12-2019 15:22:17 5.1 C 38 %
382 26-12-2019 15:32:17 5 C 37 %
383 26-12-2019 15:42:17 4.8 C 39 %
384 26-12-2019 15:52:18 4.8 C 39 %
385 26-12-2019 16:02:17 4.7 C 38 %
386 26-12-2019 16:12:17 4.6 C 39 %
387 26-12-2019 16:22:17 4.5 C 40 %
388 26-12-2019 16:32:17 4.4 C 41 %
389 26-12-2019 16:42:18 4.4 C 40 %
390 26-12-2019 16:53:17 4.3 C 41 %
391 26-12-2019 17:02:17 4.4 C 40 %
392 26-12-2019 17:12:17 4.3 C 40 %
393 26-12-2019 17:22:17 4.3 C 40 %
394 26-12-2019 17:32:17 4.4 C 40 %
395 26-12-2019 17:42:17 4.1 C 40 %
396 26-12-2019 17:52:17 4.1 C 40 %
397 26-12-2019 18:02:17 4 C 40 %
398 26-12-2019 18:12:17 4 C 41 %
399 26-12-2019 18:22:17 4.1 C 41 %
400 26-12-2019 18:32:17 4.1 C 41 %
Sensor: Nr:Datum:Temp:Feuchte:
Aussen-T/F 401 26-12-2019 18:42:18 4.1 C 40 %
402 26-12-2019 18:53:17 4.1 C 40 %
403 26-12-2019 19:02:17 4 C 40 %
404 26-12-2019 19:12:17 4 C 41 %
405 26-12-2019 19:23:17 4 C 41 %
406 26-12-2019 19:32:17 3.8 C 41 %
407 26-12-2019 19:42:17 4 C 41 %
408 26-12-2019 19:53:17 3.8 C 41 %
409 26-12-2019 20:02:17 3.8 C 42 %
410 26-12-2019 20:12:17 3.9 C 42 %
411 26-12-2019 20:23:17 4 C 41 %
412 26-12-2019 20:32:17 4.1 C 40 %
413 26-12-2019 20:42:17 4.2 C 39 %
414 26-12-2019 20:53:17 4.1 C 38 %
415 26-12-2019 21:02:17 4.3 C 37 %
416 26-12-2019 21:12:17 4.2 C 38 %
417 26-12-2019 21:23:17 4.1 C 38 %
418 26-12-2019 21:32:18 4.1 C 38 %
419 26-12-2019 21:42:18 4.2 C 37 %
420 26-12-2019 21:52:17 4.3 C 37 %
421 26-12-2019 22:02:18 4.1 C 39 %
422 26-12-2019 22:12:18 4.1 C 41 %
423 26-12-2019 22:22:17 4.1 C 41 %
424 26-12-2019 22:33:17 4.1 C 41 %
425 26-12-2019 22:43:17 4.1 C 42 %
Sensor: Nr:Datum:Temp:Feuchte:
Aussen-T/F 426 26-12-2019 22:52:17 4.1 C 42 %
427 26-12-2019 23:03:17 4.1 C 43 %
428 26-12-2019 23:13:17 4.1 C 43 %
429 26-12-2019 23:23:17 4 C 43 %
430 26-12-2019 23:32:17 4 C 43 %
431 26-12-2019 23:42:17 4 C 42 %
432 26-12-2019 23:53:17 4 C 42 %
433 27-12-2019 00:02:17 4 C 42 %
434 27-12-2019 00:12:17 4 C 42 %
435 27-12-2019 00:23:17 4 C 42 %
436 27-12-2019 00:32:17 4 C 42 %
437 27-12-2019 00:42:18 4.1 C 42 %
438 27-12-2019 00:53:17 4.1 C 42 %
439 27-12-2019 01:03:18 4.1 C 42 %
440 27-12-2019 01:13:18 4.1 C 42 %
441 27-12-2019 01:23:17 4.1 C 42 %
442 27-12-2019 01:33:17 4.1 C 42 %
443 27-12-2019 01:43:17 4.1 C 42 %
444 27-12-2019 01:53:18 4.1 C 42 %
445 27-12-2019 02:03:17 4.1 C 42 %
446 27-12-2019 02:13:17 4.1 C 42 %
447 27-12-2019 02:23:17 4.1 C 42 %
448 27-12-2019 02:33:18 4.1 C 42 %
449 27-12-2019 02:43:19 4.1 C 42 %
450 27-12-2019 02:53:17 4.2 C 42 %
Sensor: Nr:Datum:Temp:Feuchte:
Aussen-T/F 451 27-12-2019 03:03:17 4.3 C 42 %
452 27-12-2019 03:13:17 4.2 C 42 %
453 27-12-2019 03:23:17 4.3 C 42 %
454 27-12-2019 03:33:17 4.3 C 42 %
455 27-12-2019 03:43:18 4.3 C 42 %
456 27-12-2019 03:53:17 4.3 C 42 %
457 27-12-2019 04:03:17 4.3 C 42 %
458 27-12-2019 04:13:17 4.3 C 42 %
459 27-12-2019 04:23:17 4.3 C 42 %
460 27-12-2019 04:33:17 4.3 C 42 %
461 27-12-2019 04:43:17 4.3 C 42 %
462 27-12-2019 04:53:18 4.4 C 42 %
463 27-12-2019 05:03:17 4.4 C 42 %
464 27-12-2019 05:13:17 4.4 C 42 %
465 27-12-2019 05:23:17 4.4 C 42 %
466 27-12-2019 05:33:17 4.3 C 42 %
467 27-12-2019 05:43:17 4.4 C 42 %
468 27-12-2019 05:53:17 4.4 C 42 %
469 27-12-2019 06:03:17 4.4 C 42 %
470 27-12-2019 06:13:17 4.4 C 42 %
471 27-12-2019 06:23:17 4.4 C 42 %
472 27-12-2019 06:33:17 4.4 C 42 %
473 27-12-2019 06:43:17 4.4 C 42 %
474 27-12-2019 06:53:17 4.4 C 42 %
475 27-12-2019 07:03:17 4.5 C 42 %
Sensor: Nr:Datum:Temp:Feuchte:
Aussen-T/F 476 27-12-2019 07:13:17 4.4 C 42 %
477 27-12-2019 07:23:18 4.4 C 42 %
478 27-12-2019 07:33:17 4.4 C 42 %
479 27-12-2019 07:43:17 4.4 C 42 %
480 27-12-2019 07:53:17 4.3 C 42 %
481 27-12-2019 08:03:17 4.3 C 42 %
482 27-12-2019 08:13:17 4.3 C 42 %
483 27-12-2019 08:23:17 4.3 C 42 %
484 27-12-2019 08:33:17 4.3 C 42 %
485 27-12-2019 08:43:17 4.3 C 42 %
486 27-12-2019 08:53:18 4.3 C 42 %
487 27-12-2019 09:03:17 4.4 C 42 %
488 27-12-2019 09:13:17 4.4 C 42 %
489 27-12-2019 09:23:17 4.3 C 42 %
490 27-12-2019 09:33:17 4.5 C 42 %
491 27-12-2019 09:43:17 4.6 C 42 %
492 27-12-2019 09:53:17 4.8 C 41 %
493 27-12-2019 10:03:17 4.9 C 41 %
494 27-12-2019 10:13:17 4.8 C 40 %
495 27-12-2019 10:23:17 4.8 C 40 %
496 27-12-2019 10:33:18 4.9 C 40 %
497 27-12-2019 10:43:18 4.9 C 40 %
498 27-12-2019 10:53:17 5 C 38 %
499 27-12-2019 11:03:18 5 C 38 %
500 27-12-2019 11:13:18 5.1 C 37 %
Sensor: Nr:Datum:Temp:Feuchte:
Aussen-T/F 501 27-12-2019 11:23:17 5.1 C 37 %
502 27-12-2019 11:33:17 5.2 C 36 %
503 27-12-2019 11:43:17 5.7 C 33 %
504 27-12-2019 11:53:17 6 C 31 %
505 27-12-2019 12:03:17 6.1 C 31 %
506 27-12-2019 12:13:17 5.9 C 31 %
507 27-12-2019 12:23:17 5.9 C 31 %
508 27-12-2019 12:33:17 6 C 31 %
509 27-12-2019 12:43:17 6 C 31 %
510 27-12-2019 12:53:17 5.9 C 31 %
511 27-12-2019 13:03:17 5.7 C 31 %
512 27-12-2019 13:13:17 5.7 C 31 %
513 27-12-2019 13:23:17 5.6 C 31 %
514 27-12-2019 13:33:17 5.7 C 31 %
515 27-12-2019 13:43:17 5.7 C 30 %
516 27-12-2019 13:53:17 5.8 C 30 %
517 27-12-2019 14:03:18 5.9 C 30 %
518 27-12-2019 14:13:18 6.1 C 29 %
519 27-12-2019 14:23:18 5.9 C 29 %
520 27-12-2019 14:33:17 6 C 30 %
521 27-12-2019 14:43:17 5.9 C 28 %
522 27-12-2019 14:53:18 5.8 C 26 %
523 27-12-2019 15:03:17 5.7 C 27 %
524 27-12-2019 15:13:17 5.7 C 28 %
525 27-12-2019 15:23:18 5.6 C 29 %
Sensor: Nr:Datum:Temp:Feuchte:
Aussen-T/F 526 27-12-2019 15:33:17 5.6 C 29 %
527 27-12-2019 15:43:17 5.4 C 30 %
528 27-12-2019 15:53:17 5.3 C 31 %
529 27-12-2019 16:03:17 5.1 C 33 %
530 27-12-2019 16:13:17 4.9 C 33 %
531 27-12-2019 16:23:17 4.9 C 33 %
532 27-12-2019 16:33:17 4.8 C 34 %
533 27-12-2019 16:43:17 4.7 C 33 %
534 27-12-2019 16:53:17 4.6 C 34 %
535 27-12-2019 17:03:17 4.5 C 34 %
536 27-12-2019 17:13:17 4.5 C 35 %
537 27-12-2019 17:23:17 4.5 C 33 %
538 27-12-2019 17:33:18 4.5 C 34 %
539 27-12-2019 17:43:18 4.5 C 34 %
540 27-12-2019 17:53:17 4.4 C 34 %
541 27-12-2019 18:03:18 4.4 C 33 %
542 27-12-2019 18:13:18 4.4 C 33 %
543 27-12-2019 18:23:17 4.4 C 32 %
544 27-12-2019 18:33:18 4.4 C 34 %
545 27-12-2019 18:43:18 4.3 C 34 %
546 27-12-2019 18:53:17 4.2 C 33 %
547 27-12-2019 19:03:17 4.2 C 33 %
548 27-12-2019 19:13:17 4.2 C 33 %
549 27-12-2019 19:23:17 4.3 C 32 %
550 27-12-2019 19:33:17 4.2 C 33 %
Sensor: Nr:Datum:Temp:Feuchte:
Aussen-T/F 551 27-12-2019 19:43:17 4.1 C 34 %
552 27-12-2019 19:53:18 3.9 C 35 %
553 27-12-2019 20:03:17 3.8 C 34 %
554 27-12-2019 20:13:17 4 C 32 %
555 27-12-2019 20:23:17 4 C 32 %
556 27-12-2019 20:33:18 4 C 32 %
557 27-12-2019 20:43:18 4 C 31 %
558 27-12-2019 20:53:17 4.1 C 31 %
559 27-12-2019 21:03:18 4.1 C 31 %
560 27-12-2019 21:13:18 4 C 31 %
561 27-12-2019 21:23:17 4 C 31 %
562 27-12-2019 21:33:18 3.9 C 33 %
563 27-12-2019 21:43:18 3.9 C 32 %
564 27-12-2019 21:53:17 3.7 C 32 %
565 27-12-2019 22:03:17 3.6 C 32 %
566 27-12-2019 22:13:17 3.3 C 32 %
567 27-12-2019 22:23:17 3.2 C 32 %
568 27-12-2019 22:33:17 2.7 C 33 %
569 27-12-2019 22:43:17 2.2 C 34 %
570 27-12-2019 22:53:17 2 C 35 %
571 27-12-2019 23:03:18 1.7 C 38 %
572 27-12-2019 23:13:18 1.3 C 39 %
573 27-12-2019 23:23:17 1.2 C 41 %
574 27-12-2019 23:33:17 0.9 C 42 %
575 27-12-2019 23:43:17 0.8 C 41 %
Sensor: Nr:Datum:Temp:Feuchte:
Aussen-T/F 576 27-12-2019 23:53:17 0.7 C 41 %
577 28-12-2019 00:03:17 0.5 C 40 %
578 28-12-2019 00:13:17 0.4 C 41 %
579 28-12-2019 00:23:18 0.4 C 41 %
580 28-12-2019 00:33:17 0.3 C 41 %
581 28-12-2019 00:43:17 0.3 C 41 %
582 28-12-2019 00:53:17 0.2 C 40 %
583 28-12-2019 01:03:17 0.1 C 40 %
584 28-12-2019 01:13:17 -0.2 C 43 %
585 28-12-2019 01:23:17 -0.5 C 43 %
586 28-12-2019 01:33:17 -0.3 C 44 %
587 28-12-2019 01:43:17 -0.7 C 42 %
588 28-12-2019 01:53:17 -1.1 C 43 %
589 28-12-2019 02:03:17 -1.3 C 45 %
590 28-12-2019 02:13:17 -1.5 C 44 %
591 28-12-2019 02:23:17 -1.7 C 44 %
592 28-12-2019 02:33:18 -1.5 C 45 %
593 28-12-2019 02:43:18 -1.5 C 45 %
594 28-12-2019 02:53:17 -1.6 C 45 %
595 28-12-2019 03:03:17 -1.9 C 45 %
596 28-12-2019 03:13:18 -1.7 C 45 %
597 28-12-2019 03:23:17 -2.1 C 45 %
598 28-12-2019 03:33:17 -2.1 C 45 %
599 28-12-2019 03:43:17 -2.1 C 45 %
600 28-12-2019 03:53:18 -2.4 C 45 %
Sensor: Nr:Datum:Temp:Feuchte:
Aussen-T/F 601 28-12-2019 04:03:17 -2.4 C 45 %
602 28-12-2019 04:13:17 -2.4 C 45 %
603 28-12-2019 04:23:17 -2.3 C 45 %
604 28-12-2019 04:33:17 -2.4 C 45 %
605 28-12-2019 04:43:18 -2.3 C 45 %
606 28-12-2019 04:53:17 -2.4 C 45 %
607 28-12-2019 05:03:18 -2.6 C 44 %
608 28-12-2019 05:13:18 -2.7 C 44 %
609 28-12-2019 05:23:17 -2.5 C 45 %
610 28-12-2019 05:33:18 -2.5 C 45 %
611 28-12-2019 05:43:18 -2.1 C 45 %
612 28-12-2019 05:53:17 -2.3 C 45 %
613 28-12-2019 06:03:17 -1.8 C 45 %
614 28-12-2019 06:13:18 -2.1 C 44 %
615 28-12-2019 06:23:17 -2.2 C 43 %
616 28-12-2019 06:33:17 -2 C 44 %
617 28-12-2019 06:43:18 -1.9 C 44 %
618 28-12-2019 06:53:17 -2.1 C 43 %
619 28-12-2019 07:03:18 -2 C 43 %
620 28-12-2019 07:13:18 -2.3 C 43 %
621 28-12-2019 07:23:17 -2.8 C 42 %
622 28-12-2019 07:33:17 -2.3 C 43 %
623 28-12-2019 07:43:17 -2.4 C 43 %
624 28-12-2019 07:53:17 -2.2 C 44 %
625 28-12-2019 08:03:17 -2.6 C 43 %
Sensor: Nr:Datum:Temp:Feuchte:
Aussen-T/F 626 28-12-2019 08:13:17 -3 C 42 %
627 28-12-2019 08:23:18 -3.1 C 42 %
628 28-12-2019 08:33:17 -3.2 C 42 %
629 28-12-2019 08:43:17 -3.2 C 42 %
630 28-12-2019 08:53:17 -2.9 C 43 %
631 28-12-2019 09:03:18 -2.9 C 43 %
632 28-12-2019 09:13:18 -2.8 C 43 %
633 28-12-2019 09:23:17 -2.7 C 43 %
634 28-12-2019 09:33:17 -2.5 C 43 %
635 28-12-2019 09:43:17 -1.9 C 45 %
636 28-12-2019 09:53:17 -1.7 C 45 %
637 28-12-2019 10:03:17 -1.6 C 45 %
638 28-12-2019 10:13:17 -1.4 C 45 %
639 28-12-2019 10:23:17 -1.5 C 45 %
640 28-12-2019 10:33:18 -1.3 C 45 %
641 28-12-2019 10:43:18 -1.3 C 45 %
642 28-12-2019 10:53:17 -1.1 C 45 %
643 28-12-2019 11:03:18 -1 C 44 %
644 28-12-2019 11:13:18 -0.9 C 44 %
645 28-12-2019 11:23:17 -0.6 C 44 %
646 28-12-2019 11:33:17 -0.5 C 43 %
647 28-12-2019 11:43:18 -0.3 C 42 %
648 28-12-2019 11:53:17 -0.2 C 42 %
649 28-12-2019 12:03:17 -0.2 C 41 %
650 28-12-2019 12:13:17 0 C 41 %
Sensor: Nr:Datum:Temp:Feuchte:
Aussen-T/F 651 28-12-2019 12:23:17 0.2 C 41 %
652 28-12-2019 12:33:17 0.3 C 41 %
653 28-12-2019 12:43:18 0.4 C 40 %
654 28-12-2019 12:53:17 0.5 C 40 %
655 28-12-2019 13:03:18 0.7 C 40 %
656 28-12-2019 13:13:18 0.8 C 40 %
657 28-12-2019 13:23:17 0.8 C 40 %
658 28-12-2019 13:33:17 0.9 C 40 %
659 28-12-2019 13:43:17 0.8 C 40 %
660 28-12-2019 13:53:17 0.6 C 40 %
661 28-12-2019 14:03:17 0.6 C 41 %
662 28-12-2019 14:13:17 0.7 C 41 %
663 28-12-2019 14:23:17 0.8 C 40 %
664 28-12-2019 14:33:17 0.7 C 40 %
665 28-12-2019 14:43:17 0.6 C 40 %
666 28-12-2019 14:53:17 0.5 C 40 %
667 28-12-2019 15:03:17 0.5 C 40 %
668 28-12-2019 15:13:18 0.5 C 40 %
669 28-12-2019 15:23:17 0.2 C 40 %
670 28-12-2019 15:33:17 0.4 C 40 %
671 28-12-2019 15:43:17 0.3 C 39 %
672 28-12-2019 15:53:18 0.4 C 39 %
673 28-12-2019 16:03:17 0.3 C 38 %
674 28-12-2019 16:13:17 0.2 C 38 %
675 28-12-2019 16:23:17 0 C 39 %
Sensor: Nr:Datum:Temp:Feuchte:
Aussen-T/F 676 28-12-2019 16:33:17 0 C 39 %
677 28-12-2019 16:43:17 -0.1 C 38 %
678 28-12-2019 16:53:17 -0.3 C 39 %
679 28-12-2019 17:03:17 -0.4 C 39 %
680 28-12-2019 17:13:17 -0.4 C 40 %
681 28-12-2019 17:23:17 -0.5 C 40 %
682 28-12-2019 17:33:18 -0.6 C 40 %
683 28-12-2019 17:43:18 -0.7 C 41 %
684 28-12-2019 17:53:17 -1.3 C 41 %
685 28-12-2019 18:03:17 -1.2 C 44 %
686 28-12-2019 18:13:17 -1.1 C 43 %
687 28-12-2019 18:23:17 -1.1 C 43 %
688 28-12-2019 18:33:17 -0.9 C 43 %
689 28-12-2019 18:43:17 -1.2 C 43 %
690 28-12-2019 18:53:17 -0.9 C 43 %
691 28-12-2019 19:03:17 -1.2 C 42 %
692 28-12-2019 19:13:18 -1.7 C 42 %
693 28-12-2019 19:23:17 -1.9 C 43 %
694 28-12-2019 19:33:18 -1.9 C 44 %
695 28-12-2019 19:43:18 -1.9 C 44 %
696 28-12-2019 19:53:17 -1.8 C 44 %
697 28-12-2019 20:03:17 -1.9 C 44 %
698 28-12-2019 20:13:17 -1.7 C 45 %
699 28-12-2019 20:23:17 -1.2 C 45 %
700 28-12-2019 20:33:18 -1.2 C 43 %
Sensor: Nr:Datum:Temp:Feuchte:
Aussen-T/F 701 28-12-2019 20:43:18 -1.4 C 43 %
702 28-12-2019 20:53:18 -1.2 C 44 %
703 28-12-2019 21:03:17 -1.6 C 43 %
704 28-12-2019 21:13:17 -1.3 C 44 %
705 28-12-2019 21:23:17 -1.4 C 41 %
706 28-12-2019 21:33:17 -1.8 C 41 %
707 28-12-2019 21:43:18 -1.6 C 43 %
708 28-12-2019 21:53:17 -1.7 C 42 %
709 28-12-2019 22:03:18 -1.7 C 42 %
710 28-12-2019 22:13:18 -2.2 C 41 %
711 28-12-2019 22:23:17 -2.3 C 42 %
712 28-12-2019 22:33:17 -2.3 C 42 %
713 28-12-2019 22:43:17 -2.5 C 42 %
714 28-12-2019 22:53:17 -2.2 C 43 %
715 28-12-2019 23:03:17 -2.5 C 42 %
716 28-12-2019 23:13:17 -2.3 C 43 %
717 28-12-2019 23:23:17 -2.3 C 43 %
718 28-12-2019 23:33:17 -2.7 C 42 %
719 28-12-2019 23:43:17 -2.6 C 43 %
720 28-12-2019 23:53:17 -2.9 C 42 %
721 29-12-2019 00:03:18 -2.6 C 43 %
722 29-12-2019 00:13:18 -2.9 C 43 %
723 29-12-2019 00:23:17 -3.1 C 42 %
724 29-12-2019 00:33:17 -3.2 C 43 %
725 29-12-2019 00:43:17 -3.1 C 43 %
Sensor: Nr:Datum:Temp:Feuchte:
Aussen-T/F 726 29-12-2019 00:53:17 -3.1 C 43 %
727 29-12-2019 01:03:17 -3.3 C 42 %
728 29-12-2019 01:13:17 -3.3 C 43 %
729 29-12-2019 01:23:17 -3.5 C 42 %
730 29-12-2019 01:33:17 -3.7 C 42 %
731 29-12-2019 01:43:17 -3 C 44 %
732 29-12-2019 01:53:17 -3.5 C 42 %
733 29-12-2019 02:03:17 -3.7 C 41 %
734 29-12-2019 02:13:17 -3.8 C 42 %
735 29-12-2019 02:23:17 -3.3 C 43 %
736 29-12-2019 02:33:17 -3.7 C 41 %
737 29-12-2019 02:43:17 -3.7 C 42 %
738 29-12-2019 02:53:18 -3.8 C 41 %
739 29-12-2019 03:03:17 -4 C 41 %
740 29-12-2019 03:13:17 -4 C 42 %
741 29-12-2019 03:23:17 -4 C 41 %
742 29-12-2019 03:33:17 -4.1 C 41 %
743 29-12-2019 03:43:17 -4.1 C 41 %
744 29-12-2019 03:53:18 -4 C 42 %
745 29-12-2019 04:03:17 -4.2 C 41 %
746 29-12-2019 04:13:17 -3.9 C 42 %
747 29-12-2019 04:23:17 -4.1 C 41 %
748 29-12-2019 04:33:17 -4.1 C 41 %
749 29-12-2019 04:43:17 -4.4 C 41 %
750 29-12-2019 04:53:17 -4.2 C 41 %
Sensor: Nr:Datum:Temp:Feuchte:
Aussen-T/F 751 29-12-2019 05:03:17 -4.3 C 41 %
752 29-12-2019 05:13:17 -4.5 C 41 %
753 29-12-2019 05:23:17 -4.5 C 41 %
754 29-12-2019 05:33:18 -4.4 C 41 %
755 29-12-2019 05:43:18 -4.5 C 41 %
756 29-12-2019 05:53:17 -4.7 C 41 %
757 29-12-2019 06:03:17 -4.6 C 41 %
758 29-12-2019 06:13:17 -4.7 C 41 %
759 29-12-2019 06:23:17 -4.8 C 41 %
760 29-12-2019 06:33:17 -4.8 C 41 %
761 29-12-2019 06:43:17 -4.8 C 41 %
762 29-12-2019 06:53:17 -4.8 C 41 %
763 29-12-2019 07:03:17 -4.9 C 41 %
764 29-12-2019 07:13:17 -4.9 C 41 %
765 29-12-2019 07:23:17 -5 C 41 %
766 29-12-2019 07:33:17 -4.5 C 42 %
767 29-12-2019 07:43:17 -4.7 C 41 %
768 29-12-2019 07:53:17 -4.7 C 41 %
769 29-12-2019 08:03:17 -4.4 C 42 %
770 29-12-2019 08:13:17 -4.3 C 42 %
771 29-12-2019 08:23:18 -3.9 C 43 %
772 29-12-2019 08:33:17 -4.1 C 41 %
773 29-12-2019 08:43:17 -4.3 C 41 %
774 29-12-2019 08:53:17 -4.5 C 40 %
775 29-12-2019 09:03:17 -4.1 C 42 %
Sensor: Nr:Datum:Temp:Feuchte:
Aussen-T/F 776 29-12-2019 09:13:17 -3.9 C 42 %
777 29-12-2019 09:23:18 -4 C 41 %
778 29-12-2019 09:33:17 -4.1 C 41 %
779 29-12-2019 09:43:17 -4 C 41 %
780 29-12-2019 09:53:17 -4 C 41 %
781 29-12-2019 10:03:18 -4 C 40 %
782 29-12-2019 10:13:18 -3.9 C 41 %
783 29-12-2019 10:23:17 -3.5 C 42 %
784 29-12-2019 10:33:17 -3.3 C 42 %
785 29-12-2019 10:43:17 -3.1 C 42 %
786 29-12-2019 10:53:17 -2.6 C 43 %
787 29-12-2019 11:03:17 -2.1 C 43 %
788 29-12-2019 11:13:17 -1.8 C 42 %
789 29-12-2019 11:23:17 -1.4 C 43 %
790 29-12-2019 11:33:17 -1.3 C 42 %
791 29-12-2019 11:43:18 -0.8 C 43 %
792 29-12-2019 11:53:17 -0.4 C 42 %
793 29-12-2019 12:03:18 -0.5 C 41 %
794 29-12-2019 12:13:18 -0.3 C 41 %
795 29-12-2019 12:23:17 0.1 C 40 %
796 29-12-2019 12:33:17 0.3 C 40 %
797 29-12-2019 12:43:17 0.5 C 40 %
798 29-12-2019 12:53:17 0.4 C 40 %
799 29-12-2019 13:03:17 0.7 C 38 %
800 29-12-2019 13:13:17 1 C 37 %
Sensor: Nr:Datum:Temp:Feuchte:
Aussen-T/F 801 29-12-2019 13:23:17 1 C 37 %
802 29-12-2019 13:33:18 1.4 C 36 %
803 29-12-2019 13:43:18 1.4 C 38 %
804 29-12-2019 13:53:17 1.5 C 37 %
805 29-12-2019 14:03:17 1.5 C 36 %
806 29-12-2019 14:13:17 1.4 C 37 %
807 29-12-2019 14:23:17 1.7 C 36 %
808 29-12-2019 14:33:18 1.9 C 36 %
809 29-12-2019 14:43:18 2.2 C 34 %
810 29-12-2019 14:53:17 2.1 C 33 %
811 29-12-2019 15:03:17 1.9 C 34 %
812 29-12-2019 15:13:18 2 C 31 %
813 29-12-2019 15:23:17 2 C 27 %
814 29-12-2019 15:33:17 1.9 C 30 %
815 29-12-2019 15:43:17 1.5 C 32 %
816 29-12-2019 15:53:18 1.1 C 32 %
817 29-12-2019 16:03:17 0.5 C 35 %
818 29-12-2019 16:13:17 0.2 C 38 %
819 29-12-2019 16:23:17 0.2 C 39 %
820 29-12-2019 16:33:18 -0.3 C 39 %
821 29-12-2019 16:43:18 -0.1 C 40 %
822 29-12-2019 16:53:17 -0.2 C 40 %
823 29-12-2019 17:03:17 -0.2 C 40 %
824 29-12-2019 17:13:17 -0.3 C 39 %
825 29-12-2019 17:23:17 -0.3 C 37 %
Sensor: Nr:Datum:Temp:Feuchte:
Aussen-T/F 826 29-12-2019 17:33:17 -0.3 C 37 %
827 29-12-2019 17:43:17 -0.1 C 36 %
828 29-12-2019 17:53:17 -0.2 C 38 %
829 29-12-2019 18:03:17 -0.1 C 37 %
830 29-12-2019 18:13:17 0.1 C 37 %
831 29-12-2019 18:23:17 0.2 C 36 %
832 29-12-2019 18:33:17 -0.2 C 38 %
833 29-12-2019 18:43:17 -0.5 C 40 %
834 29-12-2019 18:53:17 -0.8 C 40 %
835 29-12-2019 19:03:17 -0.5 C 41 %
836 29-12-2019 19:13:17 -0.7 C 38 %
837 29-12-2019 19:23:18 -0.6 C 37 %
838 29-12-2019 19:33:18 -0.6 C 35 %
839 29-12-2019 19:43:18 -1 C 35 %
840 29-12-2019 19:53:17 -1.1 C 36 %
841 29-12-2019 20:03:18 -0.9 C 34 %
842 29-12-2019 20:13:18 -1.2 C 36 %
843 29-12-2019 20:23:17 -0.7 C 35 %
844 29-12-2019 20:33:17 -1.3 C 37 %
845 29-12-2019 20:43:17 -0.9 C 39 %
846 29-12-2019 20:53:17 -1.5 C 39 %
847 29-12-2019 21:03:17 -1.2 C 38 %
848 29-12-2019 21:13:17 -1.8 C 37 %
849 29-12-2019 21:23:17 -1.8 C 40 %
850 29-12-2019 21:33:18 -1.8 C 41 %
Sensor: Nr:Datum:Temp:Feuchte:
Aussen-T/F 851 29-12-2019 21:43:18 -2.1 C 42 %
852 29-12-2019 21:53:17 -2.3 C 42 %
853 29-12-2019 22:03:17 -2.2 C 43 %
854 29-12-2019 22:13:17 -2.1 C 43 %
855 29-12-2019 22:23:17 -2.4 C 42 %
856 29-12-2019 22:33:17 -2.7 C 42 %
857 29-12-2019 22:43:18 -2.7 C 43 %
858 29-12-2019 22:53:17 -2.7 C 43 %
859 29-12-2019 23:03:17 -2.8 C 43 %
860 29-12-2019 23:13:17 -2.7 C 44 %
861 29-12-2019 23:23:17 -2.8 C 43 %
862 29-12-2019 23:33:18 -3 C 43 %
863 29-12-2019 23:43:18 -3 C 43 %
864 29-12-2019 23:53:17 -3 C 42 %
865 30-12-2019 00:03:17 -3 C 42 %
866 30-12-2019 00:13:17 -3.1 C 41 %
867 30-12-2019 00:23:17 -3.1 C 41 %
868 30-12-2019 00:33:17 -3 C 42 %
869 30-12-2019 00:43:17 -3.2 C 42 %
870 30-12-2019 00:53:17 -3.2 C 42 %
871 30-12-2019 01:03:17 -3.2 C 42 %
872 30-12-2019 01:13:18 -3.1 C 44 %
873 30-12-2019 01:23:17 -3.1 C 43 %
874 30-12-2019 01:33:18 -3.2 C 42 %
875 30-12-2019 01:43:18 -3.4 C 42 %
Sensor: Nr:Datum:Temp:Feuchte:
Aussen-T/F 876 30-12-2019 01:53:17 -3.5 C 42 %
877 30-12-2019 02:03:17 -3.2 C 43 %
878 30-12-2019 02:13:17 -3.4 C 43 %
879 30-12-2019 02:23:17 -3.4 C 43 %
880 30-12-2019 02:33:18 -3.4 C 43 %
881 30-12-2019 02:43:18 -3.4 C 43 %
882 30-12-2019 02:53:17 -3.4 C 43 %
883 30-12-2019 03:03:17 -3.3 C 43 %
884 30-12-2019 03:13:17 -3.4 C 43 %
885 30-12-2019 03:23:17 -3.1 C 43 %
886 30-12-2019 03:33:18 -3.2 C 43 %
887 30-12-2019 03:43:18 -3.3 C 43 %
888 30-12-2019 03:53:17 -3.5 C 43 %
889 30-12-2019 04:03:17 -3.7 C 42 %
890 30-12-2019 04:13:17 -3.8 C 42 %
891 30-12-2019 04:23:17 -3.8 C 42 %
892 30-12-2019 04:33:17 -3.9 C 42 %
893 30-12-2019 04:43:17 -3.9 C 42 %
894 30-12-2019 04:53:17 -4 C 42 %
895 30-12-2019 05:03:17 -3.9 C 42 %
896 30-12-2019 05:13:17 -3.8 C 42 %
897 30-12-2019 05:23:17 -3.9 C 42 %
898 30-12-2019 05:33:17 -3.7 C 43 %
899 30-12-2019 05:43:17 -3.8 C 43 %
900 30-12-2019 05:53:18 -4 C 42 %
Sensor: Nr:Datum:Temp:Feuchte:
Aussen-T/F 901 30-12-2019 06:03:17 -4 C 42 %
902 30-12-2019 06:13:17 -4 C 42 %
903 30-12-2019 06:23:17 -3.9 C 42 %
904 30-12-2019 06:33:17 -3.7 C 43 %
905 30-12-2019 06:43:17 -3.9 C 42 %
906 30-12-2019 06:53:17 -4 C 42 %
907 30-12-2019 07:03:17 -4 C 42 %
908 30-12-2019 07:13:17 -4.2 C 41 %
909 30-12-2019 07:23:17 -4.4 C 42 %
910 30-12-2019 07:33:18 -4.4 C 41 %
911 30-12-2019 07:43:18 -4.4 C 42 %
912 30-12-2019 07:53:17 -4.2 C 42 %
913 30-12-2019 08:03:17 -4.4 C 41 %
914 30-12-2019 08:13:17 -4.3 C 42 %
915 30-12-2019 08:23:17 -4.4 C 42 %
916 30-12-2019 08:33:17 -4.5 C 41 %
917 30-12-2019 08:43:17 -4 C 43 %
918 30-12-2019 08:53:17 -4.2 C 41 %
919 30-12-2019 09:03:18 -4.1 C 42 %
920 30-12-2019 09:13:18 -3.9 C 42 %
921 30-12-2019 09:23:17 -3.8 C 42 %
922 30-12-2019 09:33:17 -3.6 C 43 %
923 30-12-2019 09:43:17 -3.7 C 42 %
924 30-12-2019 09:53:17 -3.7 C 42 %
925 30-12-2019 10:03:17 -3.5 C 42 %
Sensor: Nr:Datum:Temp:Feuchte:
Aussen-T/F 926 30-12-2019 10:13:17 -3.3 C 43 %
927 30-12-2019 10:23:17 -3.3 C 42 %
928 30-12-2019 10:33:17 -3.3 C 42 %
929 30-12-2019 10:43:17 -3 C 43 %
930 30-12-2019 10:53:17 -2.9 C 42 %
931 30-12-2019 11:03:17 -2.9 C 42 %
932 30-12-2019 11:13:17 -2.8 C 42 %
933 30-12-2019 11:23:17 -2.4 C 43 %
934 30-12-2019 11:33:17 -2.1 C 42 %
935 30-12-2019 11:43:17 -2 C 41 %
936 30-12-2019 11:53:18 -2.1 C 40 %
937 30-12-2019 12:03:17 -1.7 C 41 %
938 30-12-2019 12:13:17 -1.5 C 40 %
939 30-12-2019 12:23:17 -1.6 C 40 %
940 30-12-2019 12:33:17 -1.4 C 41 %
941 30-12-2019 12:43:17 -0.7 C 39 %
942 30-12-2019 12:53:17 -0.8 C 39 %
943 30-12-2019 13:03:17 -0.8 C 38 %
944 30-12-2019 13:13:17 -1 C 40 %
945 30-12-2019 13:23:17 -1 C 41 %
946 30-12-2019 13:33:17 -1 C 42 %
947 30-12-2019 13:43:17 -0.6 C 42 %
948 30-12-2019 13:53:17 -0.2 C 41 %
949 30-12-2019 14:03:17 0.3 C 37 %
950 30-12-2019 14:13:17 0.1 C 35 %
Sensor: Nr:Datum:Temp:Feuchte:
Aussen-T/F 951 30-12-2019 14:23:17 0.6 C 35 %
952 30-12-2019 14:33:17 0.5 C 35 %
953 30-12-2019 14:43:17 1 C 32 %
954 30-12-2019 14:53:17 0.6 C 35 %
955 30-12-2019 15:03:17 0.9 C 36 %
956 30-12-2019 15:13:17 1.1 C 33 %
957 30-12-2019 15:23:17 0.6 C 35 %
958 30-12-2019 15:33:18 0.6 C 36 %
959 30-12-2019 15:43:18 0.7 C 35 %
960 30-12-2019 15:53:17 1.6 C 32 %
961 30-12-2019 16:03:18 1.7 C 32 %
962 30-12-2019 16:13:18 1.9 C 31 %
963 30-12-2019 16:23:18 1.6 C 33 %
964 30-12-2019 16:33:17 1.1 C 35 %
965 30-12-2019 16:43:17 0.8 C 37 %
966 30-12-2019 16:53:17 0.6 C 40 %
967 30-12-2019 17:03:17 0.7 C 40 %
968 30-12-2019 17:13:17 0.7 C 40 %
969 30-12-2019 17:23:18 0.6 C 40 %
970 30-12-2019 17:33:17 0.5 C 40 %
971 30-12-2019 17:43:17 0.5 C 40 %
972 30-12-2019 17:53:17 0.5 C 37 %
973 30-12-2019 18:03:17 0.3 C 36 %
974 30-12-2019 18:13:17 -0.3 C 36 %
975 30-12-2019 18:23:18 -0.7 C 37 %
Sensor: Nr:Datum:Temp:Feuchte:
Aussen-T/F 976 30-12-2019 18:33:18 -0.4 C 36 %
977 30-12-2019 18:43:18 -0.2 C 36 %
978 30-12-2019 18:53:17 -0.6 C 34 %
979 30-12-2019 19:03:17 -1.3 C 36 %
980 30-12-2019 19:13:17 -1 C 36 %
981 30-12-2019 19:23:18 -1.4 C 36 %
982 30-12-2019 19:33:17 -1.4 C 39 %
983 30-12-2019 19:43:17 -0.4 C 33 %
984 30-12-2019 19:53:18 0 C 32 %
985 30-12-2019 20:03:17 -0.3 C 31 %
986 30-12-2019 20:13:17 -1.2 C 32 %
987 30-12-2019 20:23:17 -1.6 C 35 %
988 30-12-2019 20:33:17 -1.6 C 36 %
989 30-12-2019 20:43:17 -1.7 C 36 %
990 30-12-2019 20:53:17 -1.5 C 37 %
991 30-12-2019 21:03:17 -1.9 C 37 %
992 30-12-2019 21:13:17 -0.8 C 35 %
993 30-12-2019 21:23:17 -1.1 C 35 %
994 30-12-2019 21:33:17 -0.9 C 35 %
995 30-12-2019 21:43:17 -0.8 C 36 %
996 30-12-2019 21:53:17 -1.1 C 33 %
997 30-12-2019 22:03:17 -1.5 C 35 %
998 30-12-2019 22:13:17 -1.7 C 35 %
999 30-12-2019 22:23:17 -1.7 C 35 %
1000 30-12-2019 22:33:17 -2.3 C 35 %
Sensor: Nr:Datum:Temp:Feuchte:
Aussen-T/F 1001 30-12-2019 22:43:17 -1.8 C 35 %
1002 30-12-2019 22:53:17 -2 C 36 %
1003 30-12-2019 23:03:17 -2.3 C 36 %
1004 30-12-2019 23:13:17 -1.5 C 36 %
1005 30-12-2019 23:23:17 -0.9 C 32 %
1006 30-12-2019 23:33:17 -0.3 C 31 %
1007 30-12-2019 23:43:17 -0.9 C 31 %
1008 30-12-2019 23:53:17 -1 C 31 %
1009 31-12-2019 00:03:17 -1.2 C 32 %
1010 31-12-2019 00:13:18 -1.4 C 34 %
1011 31-12-2019 00:23:17 -1.6 C 36 %
1012 31-12-2019 00:33:18 -1.2 C 35 %
1013 31-12-2019 00:43:18 -1.5 C 35 %
1014 31-12-2019 00:53:17 -1.5 C 36 %
1015 31-12-2019 01:03:17 -1.5 C 36 %
1016 31-12-2019 01:13:17 -0.8 C 34 %
1017 31-12-2019 01:23:18 -1.3 C 34 %
1018 31-12-2019 01:33:17 -1.6 C 37 %
1019 31-12-2019 01:43:17 -2 C 37 %
1020 31-12-2019 01:53:17 -2.3 C 38 %
1021 31-12-2019 02:03:17 -2.5 C 40 %
1022 31-12-2019 02:13:17 -2.7 C 40 %
1023 31-12-2019 02:23:18 -2.8 C 41 %
1024 31-12-2019 02:33:17 -3 C 41 %
1025 31-12-2019 02:43:17 -2.9 C 43 %
Sensor: Nr:Datum:Temp:Feuchte:
Aussen-T/F 1026 31-12-2019 02:53:17 -2 C 45 %
1027 31-12-2019 03:03:17 -1.7 C 42 %
1028 31-12-2019 03:13:18 -2 C 40 %
1029 31-12-2019 03:23:17 -2.4 C 40 %
1030 31-12-2019 03:33:18 -2.5 C 41 %
1031 31-12-2019 03:43:18 -2.9 C 41 %
1032 31-12-2019 03:53:17 -2.8 C 42 %
1033 31-12-2019 04:03:17 -2.6 C 43 %
1034 31-12-2019 04:13:17 -3.1 C 42 %
1035 31-12-2019 04:23:17 -3.2 C 42 %
1036 31-12-2019 04:33:17 -3.3 C 42 %
1037 31-12-2019 04:43:18 -3.3 C 42 %
1038 31-12-2019 04:53:17 -3.2 C 43 %
1039 31-12-2019 05:03:17 -3.3 C 42 %
1040 31-12-2019 05:13:17 -3.6 C 42 %
1041 31-12-2019 05:23:17 -3.4 C 43 %
1042 31-12-2019 05:33:17 -3.1 C 44 %
1043 31-12-2019 05:43:17 -3 C 44 %
1044 31-12-2019 05:53:17 -2.9 C 44 %
1045 31-12-2019 06:03:17 -3.1 C 43 %
1046 31-12-2019 06:13:17 -3.3 C 43 %
1047 31-12-2019 06:23:17 -3.2 C 43 %
1048 31-12-2019 06:33:17 -3.3 C 43 %
1049 31-12-2019 06:43:17 -3.4 C 43 %
1050 31-12-2019 06:53:18 -3.2 C 44 %
Sensor: Nr:Datum:Temp:Feuchte:
Aussen-T/F 1051 31-12-2019 07:03:17 -3.2 C 44 %
1052 31-12-2019 07:13:17 -3 C 44 %
1053 31-12-2019 07:23:17 -3.1 C 44 %
1054 31-12-2019 07:33:17 -3 C 44 %
1055 31-12-2019 07:43:17 -2.6 C 45 %
1056 31-12-2019 07:53:18 -2.1 C 45 %
1057 31-12-2019 08:03:17 -2 C 45 %
1058 31-12-2019 08:13:17 -2 C 45 %
1059 31-12-2019 08:23:17 -1.3 C 45 %
1060 31-12-2019 08:33:17 -1 C 44 %
1061 31-12-2019 08:43:17 -1 C 43 %
1062 31-12-2019 08:53:17 -1.1 C 42 %
1063 31-12-2019 09:03:17 -1 C 43 %
1064 31-12-2019 09:13:17 -0.9 C 44 %
1065 31-12-2019 09:23:17 -1.1 C 42 %
1066 31-12-2019 09:33:17 -1.1 C 42 %
1067 31-12-2019 09:43:17 -1.1 C 42 %
1068 31-12-2019 09:53:17 -0.9 C 43 %
1069 31-12-2019 10:03:17 -0.6 C 44 %
1070 31-12-2019 10:13:17 -0.2 C 43 %
1071 31-12-2019 10:23:17 0.1 C 41 %
1072 31-12-2019 10:33:17 0.3 C 40 %
1073 31-12-2019 10:43:17 0.3 C 38 %
1074 31-12-2019 10:53:18 0.5 C 40 %
1075 31-12-2019 11:03:17 0.8 C 41 %
Sensor: Nr:Datum:Temp:Feuchte:
Aussen-T/F 1076 31-12-2019 11:13:17 0.7 C 41 %
1077 31-12-2019 11:23:17 1.2 C 40 %
1078 31-12-2019 11:33:17 1.1 C 38 %
1079 31-12-2019 11:43:17 1.5 C 40 %
1080 31-12-2019 11:53:17 1.5 C 40 %
1081 31-12-2019 12:03:18 1.8 C 31 %
1082 31-12-2019 12:13:18 2.4 C 35 %
1083 31-12-2019 12:23:17 2.6 C 33 %
1084 31-12-2019 12:33:18 2.4 C 32 %
1085 31-12-2019 12:43:18 2.8 C 30 %
1086 31-12-2019 12:53:17 2.3 C 29 %
1087 31-12-2019 13:03:18 2.4 C 28 %
1088 31-12-2019 13:13:18 2.4 C 27 %
1089 31-12-2019 13:23:17 2.8 C 27 %
1090 31-12-2019 13:33:17 2.8 C 26 %
1091 31-12-2019 13:43:17 3.3 C 26 %
1092 31-12-2019 13:53:17 2.9 C 26 %
1093 31-12-2019 14:03:18 2.7 C 27 %
1094 31-12-2019 14:13:18 2.9 C 27 %
1095 31-12-2019 14:23:17 3.1 C 26 %
1096 31-12-2019 14:33:17 3.4 C 26 %
1097 31-12-2019 14:43:17 3.2 C 26 %
1098 31-12-2019 14:53:17 3 C 26 %
1099 31-12-2019 15:03:17 2.8 C 27 %
1100 31-12-2019 15:13:17 2.9 C 27 %
Sensor: Nr:Datum:Temp:Feuchte:
Aussen-T/F 1101 31-12-2019 15:23:18 3 C 27 %
1102 31-12-2019 15:33:17 3 C 27 %
1103 31-12-2019 15:43:17 2.9 C 28 %
1104 31-12-2019 15:53:17 2.7 C 29 %
1105 31-12-2019 16:03:17 2.1 C 30 %
1106 31-12-2019 16:13:17 0.9 C 35 %
1107 31-12-2019 16:23:18 0.6 C 38 %
1108 31-12-2019 16:33:17 0.3 C 40 %
1109 31-12-2019 16:43:17 0.2 C 39 %
1110 31-12-2019 16:53:18 0.2 C 40 %
1111 31-12-2019 17:03:17 -0.1 C 41 %
1112 31-12-2019 17:13:17 -0.4 C 41 %
1113 31-12-2019 17:23:17 -0.3 C 40 %
1114 31-12-2019 17:33:17 -0.3 C 41 %
1115 31-12-2019 17:43:17 -0.6 C 43 %
1116 31-12-2019 17:53:18 -0.7 C 43 %
1117 31-12-2019 18:03:17 -1.1 C 43 %
1118 31-12-2019 18:13:17 -1.2 C 45 %
1119 31-12-2019 18:23:17 -0.9 C 45 %
1120 31-12-2019 18:33:17 -0.8 C 45 %
1121 31-12-2019 18:43:17 -0.4 C 46 %
1122 31-12-2019 18:53:18 -0.4 C 46 %
1123 31-12-2019 19:03:17 -0.3 C 45 %
1124 31-12-2019 19:13:17 -0.1 C 46 %
1125 31-12-2019 19:23:18 0 C 45 %
Sensor: Nr:Datum:Temp:Feuchte:
Aussen-T/F 1126 31-12-2019 19:33:17 0.1 C 45 %
1127 31-12-2019 19:43:17 0.2 C 45 %
1128 31-12-2019 19:53:17 0.4 C 45 %
1129 31-12-2019 20:03:18 0.5 C 45 %
1130 31-12-2019 20:13:18 0.5 C 45 %
1131 31-12-2019 20:23:17 0.4 C 45 %
1132 31-12-2019 20:33:17 0.4 C 45 %
1133 31-12-2019 20:43:17 0.3 C 43 %
1134 31-12-2019 20:53:17 0.2 C 43 %
1135 31-12-2019 21:03:17 0.2 C 43 %
1136 31-12-2019 21:13:17 0.4 C 44 %
1137 31-12-2019 21:23:18 0.4 C 44 %
1138 31-12-2019 21:33:17 0.5 C 44 %
1139 31-12-2019 21:43:17 0.6 C 43 %
1140 31-12-2019 21:53:17 0.5 C 43 %
1141 31-12-2019 22:03:17 0.6 C 42 %
1142 31-12-2019 22:13:17 0.5 C 42 %
1143 31-12-2019 22:23:18 0.2 C 41 %
1144 31-12-2019 22:33:17 0 C 41 %
1145 31-12-2019 22:43:17 -0.2 C 42 %
1146 31-12-2019 22:53:17 -0.4 C 43 %
1147 31-12-2019 23:03:17 -0.3 C 44 %
1148 31-12-2019 23:13:17 -0.1 C 45 %
1149 31-12-2019 23:23:18 0 C 45 %
1150 31-12-2019 23:33:17 0 C 45 %
Sensor: Nr:Datum:Temp:Feuchte:
Aussen-T/F 1151 31-12-2019 23:43:17 0.4 C 45 %
1152 31-12-2019 23:53:18 0.3 C 45 %
1153 01-01-2020 00:03:17 0.4 C 45 %
1154 01-01-2020 00:13:17 0.4 C 45 %
1155 01-01-2020 00:23:17 0.3 C 45 %
1156 01-01-2020 00:33:17 -0.9 C 41 %
1157 01-01-2020 00:43:17 -0.3 C 45 %
1158 01-01-2020 00:53:18 -0.5 C 44 %
1159 01-01-2020 01:03:17 -0.5 C 44 %
1160 01-01-2020 01:13:17 -0.6 C 44 %
1161 01-01-2020 01:23:17 -0.6 C 45 %
1162 01-01-2020 01:33:17 -0.7 C 45 %
1163 01-01-2020 01:43:17 -1.1 C 44 %
1164 01-01-2020 01:53:18 -0.9 C 45 %
1165 01-01-2020 02:03:17 -0.9 C 45 %
1166 01-01-2020 02:13:17 -0.5 C 46 %
1167 01-01-2020 02:23:17 -0.2 C 45 %
1168 01-01-2020 02:33:18 -0.1 C 45 %
1169 01-01-2020 02:43:18 0 C 45 %
1170 01-01-2020 02:53:17 0.1 C 45 %
1171 01-01-2020 03:03:17 0.1 C 45 %
1172 01-01-2020 03:13:18 0.1 C 45 %
1173 01-01-2020 03:23:17 0.2 C 45 %
1174 01-01-2020 03:33:18 0.1 C 45 %
1175 01-01-2020 03:43:18 0.1 C 45 %
Sensor: Nr:Datum:Temp:Feuchte:
Aussen-T/F 1176 01-01-2020 03:53:17 0.1 C 45 %
1177 01-01-2020 04:03:18 0.2 C 45 %
1178 01-01-2020 04:13:18 0.2 C 45 %
1179 01-01-2020 04:23:17 0.3 C 45 %
1180 01-01-2020 04:33:18 0.3 C 45 %
1181 01-01-2020 04:43:18 0.3 C 44 %
1182 01-01-2020 04:53:17 0.3 C 44 %
1183 01-01-2020 05:03:18 0.4 C 44 %
1184 01-01-2020 05:13:18 0.5 C 44 %
1185 01-01-2020 05:23:17 0.4 C 44 %
1186 01-01-2020 05:33:18 0.4 C 44 %
1187 01-01-2020 05:43:18 0.4 C 44 %
1188 01-01-2020 05:53:17 0.4 C 43 %
1189 01-01-2020 06:03:17 0.4 C 43 %
1190 01-01-2020 06:13:17 0.5 C 43 %
1191 01-01-2020 06:23:17 0.4 C 42 %
1192 01-01-2020 06:33:17 0.6 C 42 %
1193 01-01-2020 06:43:17 0.6 C 42 %
1194 01-01-2020 06:53:17 0.6 C 42 %
1195 01-01-2020 07:03:18 0.6 C 41 %
1196 01-01-2020 07:13:18 0.6 C 41 %
1197 01-01-2020 07:23:17 0.6 C 41 %
1198 01-01-2020 07:33:17 0.6 C 41 %
1199 01-01-2020 07:43:17 0.6 C 41 %
1200 01-01-2020 07:53:17 0.6 C 41 %
Sensor: Nr:Datum:Temp:Feuchte:
Aussen-T/F 1201 01-01-2020 08:03:17 0.6 C 41 %
1202 01-01-2020 08:13:17 0.6 C 41 %
1203 01-01-2020 08:23:18 0.7 C 40 %
1204 01-01-2020 08:33:17 0.7 C 40 %
1205 01-01-2020 08:43:17 0.7 C 40 %
1206 01-01-2020 08:53:17 0.8 C 40 %
1207 01-01-2020 09:03:17 0.8 C 40 %
1208 01-01-2020 09:13:17 1.1 C 38 %
1209 01-01-2020 09:23:17 1.3 C 38 %
1210 01-01-2020 09:33:17 1.4 C 37 %
1211 01-01-2020 09:43:17 1.5 C 37 %
1212 01-01-2020 09:53:17 1.7 C 36 %
1213 01-01-2020 10:03:18 1.9 C 36 %
1214 01-01-2020 10:13:18 2 C 34 %
1215 01-01-2020 10:23:17 2.1 C 33 %
1216 01-01-2020 10:33:17 2.2 C 32 %
1217 01-01-2020 10:43:17 2.3 C 32 %
1218 01-01-2020 10:53:17 2.4 C 32 %
1219 01-01-2020 11:03:17 2.4 C 31 %
1220 01-01-2020 11:13:17 2.7 C 31 %
1221 01-01-2020 11:23:18 2.7 C 30 %
1222 01-01-2020 11:33:17 2.7 C 30 %
1223 01-01-2020 11:43:17 2.8 C 30 %
1224 01-01-2020 11:53:18 2.9 C 30 %
1225 01-01-2020 12:03:17 3.2 C 28 %
Sensor: Nr:Datum:Temp:Feuchte:
Aussen-T/F 1226 01-01-2020 12:13:17 3 C 29 %
1227 01-01-2020 12:23:18 2.7 C 30 %
1228 01-01-2020 12:33:17 2.7 C 30 %
1229 01-01-2020 12:43:17 2.5 C 30 %
1230 01-01-2020 12:53:18 2.1 C 32 %
1231 01-01-2020 13:03:17 1.6 C 36 %
1232 01-01-2020 13:13:17 1.6 C 37 %
1233 01-01-2020 13:23:18 1.4 C 37 %
1234 01-01-2020 13:33:17 1.5 C 38 %
1235 01-01-2020 13:43:17 1.5 C 38 %
1236 01-01-2020 13:53:17 1.6 C 39 %
1237 01-01-2020 14:03:17 1.6 C 39 %
1238 01-01-2020 14:13:17 1.6 C 39 %
1239 01-01-2020 14:23:17 1.6 C 40 %
1240 01-01-2020 14:33:17 1.4 C 40 %
1241 01-01-2020 14:43:17 1.3 C 41 %
1242 01-01-2020 14:53:17 1.2 C 41 %
1243 01-01-2020 15:03:17 1.3 C 41 %
1244 01-01-2020 15:13:17 1.2 C 41 %
1245 01-01-2020 15:23:17 1.6 C 41 %
1246 01-01-2020 15:33:17 1.7 C 38 %
1247 01-01-2020 15:43:17 1.1 C 38 %
1248 01-01-2020 15:53:17 0.7 C 40 %
1249 01-01-2020 16:03:17 0.5 C 43 %
1250 01-01-2020 16:13:17 -0.1 C 43 %
Sensor: Nr:Datum:Temp:Feuchte:
Aussen-T/F 1251 01-01-2020 16:23:17 -0.3 C 44 %
1252 01-01-2020 16:33:18 -0.7 C 44 %
1253 01-01-2020 16:43:18 -0.7 C 45 %
1254 01-01-2020 16:53:17 -0.8 C 45 %
1255 01-01-2020 17:03:17 -1 C 45 %
1256 01-01-2020 17:13:17 -1.3 C 45 %
1257 01-01-2020 17:23:18 -1.5 C 45 %
1258 01-01-2020 17:33:17 -1.8 C 45 %
1259 01-01-2020 17:43:17 -1.9 C 45 %
1260 01-01-2020 17:53:18 -1.8 C 45 %
1261 01-01-2020 18:03:17 -1.9 C 45 %
1262 01-01-2020 18:13:17 -1.9 C 45 %
1263 01-01-2020 18:23:17 -2.1 C 45 %
1264 01-01-2020 18:33:17 -2.1 C 45 %
1265 01-01-2020 18:43:18 -2.1 C 45 %
1266 01-01-2020 18:53:17 -2.2 C 45 %
1267 01-01-2020 19:03:17 -2.4 C 45 %
1268 01-01-2020 19:13:18 -2.5 C 45 %
1269 01-01-2020 19:23:17 -2.4 C 45 %
1270 01-01-2020 19:33:17 -2.3 C 45 %
1271 01-01-2020 19:43:17 -2.2 C 45 %
1272 01-01-2020 19:53:17 -2.4 C 45 %
1273 01-01-2020 20:03:17 -2.2 C 45 %
1274 01-01-2020 20:13:17 -2.1 C 45 %
1275 01-01-2020 20:23:18 -2.3 C 45 %
Sensor: Nr:Datum:Temp:Feuchte:
Aussen-T/F 1276 01-01-2020 20:33:17 -2.1 C 45 %
1277 01-01-2020 20:43:17 -2.6 C 43 %
1278 01-01-2020 20:53:17 -2.8 C 43 %
1279 01-01-2020 21:03:17 -2.8 C 43 %
1280 01-01-2020 21:13:17 -3 C 43 %
1281 01-01-2020 21:23:18 -3.1 C 43 %
1282 01-01-2020 21:33:17 -3.1 C 43 %
1283 01-01-2020 21:43:17 -3.2 C 42 %
1284 01-01-2020 21:53:17 -2.8 C 43 %
1285 01-01-2020 22:03:17 -3.1 C 42 %
1286 01-01-2020 22:13:17 -3.2 C 42 %
1287 01-01-2020 22:23:17 -3 C 43 %
1288 01-01-2020 22:33:17 -2.8 C 43 %
1289 01-01-2020 22:43:17 -2.8 C 43 %
1290 01-01-2020 22:53:17 -3.2 C 42 %
1291 01-01-2020 23:03:17 -3.2 C 42 %
1292 01-01-2020 23:13:17 -2.7 C 44 %
1293 01-01-2020 23:23:17 -2.3 C 45 %
1294 01-01-2020 23:33:17 -2.4 C 44 %
1295 01-01-2020 23:43:17 -2.2 C 45 %
1296 01-01-2020 23:53:17 -2.2 C 45 %
1297 02-01-2020 00:03:17 -2.3 C 44 %
1298 02-01-2020 00:13:17 -2.4 C 44 %
1299 02-01-2020 00:23:17 -2.6 C 43 %
1300 02-01-2020 00:33:17 -2.4 C 43 %
Sensor: Nr:Datum:Temp:Feuchte:
Aussen-T/F 1301 02-01-2020 00:43:17 -2.4 C 44 %
1302 02-01-2020 00:53:17 -2.6 C 43 %
1303 02-01-2020 01:03:17 -2.3 C 44 %
1304 02-01-2020 01:13:17 -2.1 C 45 %
1305 02-01-2020 01:23:17 -1.9 C 45 %
1306 02-01-2020 01:33:17 -1.9 C 45 %
1307 02-01-2020 01:43:17 -1.8 C 45 %
1308 02-01-2020 01:53:17 -1.7 C 45 %
1309 02-01-2020 02:03:17 -1.6 C 45 %
1310 02-01-2020 02:13:17 -1.5 C 45 %
1311 02-01-2020 02:23:17 -1.4 C 45 %
1312 02-01-2020 02:33:17 -1.3 C 45 %
1313 02-01-2020 02:43:17 -1.3 C 45 %
1314 02-01-2020 02:53:17 -1.3 C 45 %
1315 02-01-2020 03:03:17 -1.2 C 45 %
1316 02-01-2020 03:13:18 -1.1 C 45 %
1317 02-01-2020 03:23:17 -1.1 C 45 %
1318 02-01-2020 03:33:18 -1 C 45 %
1319 02-01-2020 03:43:18 -0.9 C 45 %
1320 02-01-2020 03:53:17 -0.9 C 45 %
1321 02-01-2020 04:03:18 -0.8 C 45 %
1322 02-01-2020 04:13:18 -0.7 C 45 %
1323 02-01-2020 04:23:17 -0.7 C 45 %
1324 02-01-2020 04:33:17 -0.7 C 45 %
1325 02-01-2020 04:43:17 -0.7 C 45 %
Sensor: Nr:Datum:Temp:Feuchte:
Aussen-T/F 1326 02-01-2020 04:53:17 -0.8 C 45 %
1327 02-01-2020 05:03:17 -0.9 C 45 %
1328 02-01-2020 05:13:17 -0.9 C 45 %
1329 02-01-2020 05:23:18 -0.9 C 45 %
1330 02-01-2020 05:33:17 -0.9 C 45 %
1331 02-01-2020 05:43:17 -0.8 C 44 %
1332 02-01-2020 05:53:18 -0.8 C 44 %
1333 02-01-2020 06:03:17 -0.9 C 44 %
1334 02-01-2020 06:13:17 -0.9 C 43 %
1335 02-01-2020 06:23:17 -0.9 C 43 %
1336 02-01-2020 06:33:18 -0.7 C 42 %
1337 02-01-2020 06:43:18 -0.7 C 41 %
1338 02-01-2020 06:53:17 -0.7 C 40 %
1339 02-01-2020 07:03:18 -0.7 C 40 %
1340 02-01-2020 07:13:18 -0.7 C 40 %
1341 02-01-2020 07:23:17 -0.7 C 39 %
1342 02-01-2020 07:33:17 -0.7 C 39 %
1343 02-01-2020 07:43:17 -0.7 C 40 %
1344 02-01-2020 07:53:17 -0.6 C 41 %
1345 02-01-2020 08:03:18 -0.6 C 41 %
1346 02-01-2020 08:13:18 -0.5 C 41 %
1347 02-01-2020 08:23:17 -0.4 C 41 %
1348 02-01-2020 08:33:17 -0.3 C 40 %
1349 02-01-2020 08:43:17 -0.3 C 41 %
1350 02-01-2020 08:53:17 -0.2 C 42 %
Sensor: Nr:Datum:Temp:Feuchte:
Aussen-T/F 1351 02-01-2020 09:03:17 -0.1 C 42 %
1352 02-01-2020 09:13:17 0.1 C 42 %
1353 02-01-2020 09:23:17 0.1 C 40 %
1354 02-01-2020 09:33:18 0.4 C 38 %
1355 02-01-2020 09:43:18 0.5 C 37 %
1356 02-01-2020 09:53:17 0.4 C 39 %
1357 02-01-2020 10:03:17 0.4 C 40 %
1358 02-01-2020 10:13:18 0.7 C 41 %
1359 02-01-2020 10:23:17 1.1 C 42 %
1360 02-01-2020 10:33:18 1.1 C 39 %
1361 02-01-2020 10:43:18 1.3 C 39 %
1362 02-01-2020 10:53:17 1.5 C 38 %
1363 02-01-2020 11:03:18 1.7 C 38 %
1364 02-01-2020 11:13:18 1.6 C 35 %
1365 02-01-2020 11:23:17 1.9 C 37 %
1366 02-01-2020 11:33:17 2.1 C 36 %
1367 02-01-2020 11:43:17 2.1 C 35 %
1368 02-01-2020 11:53:17 2.1 C 34 %
1369 02-01-2020 12:03:17 2.2 C 34 %
1370 02-01-2020 12:13:17 2.3 C 35 %
1371 02-01-2020 12:23:17 2.3 C 35 %
1372 02-01-2020 12:33:17 2.6 C 34 %
1373 02-01-2020 12:43:17 3 C 35 %
1374 02-01-2020 12:53:17 2.8 C 32 %
1375 02-01-2020 13:03:17 2.9 C 31 %
Sensor: Nr:Datum:Temp:Feuchte:
Aussen-T/F 1376 02-01-2020 13:13:17 3.1 C 30 %
1377 02-01-2020 13:23:17 3.3 C 29 %
1378 02-01-2020 13:33:17 3.6 C 29 %
1379 02-01-2020 13:43:17 3.3 C 29 %
1380 02-01-2020 13:53:18 3.1 C 30 %
1381 02-01-2020 14:03:17 3.4 C 30 %
1382 02-01-2020 14:13:17 3.4 C 30 %
1383 02-01-2020 14:23:18 3.5 C 30 %
1384 02-01-2020 14:33:17 3.4 C 30 %
1385 02-01-2020 14:43:17 3.7 C 30 %
1386 02-01-2020 14:53:17 3.4 C 30 %
1387 02-01-2020 15:03:17 3.1 C 31 %
1388 02-01-2020 15:13:17 3 C 31 %
1389 02-01-2020 15:23:18 2.7 C 32 %
1390 02-01-2020 15:33:17 2.5 C 33 %
1391 02-01-2020 15:43:17 2.5 C 34 %
1392 02-01-2020 15:53:17 2.4 C 35 %
1393 02-01-2020 16:03:17 2.4 C 35 %
1394 02-01-2020 16:13:17 2.3 C 35 %
1395 02-01-2020 16:23:18 2.2 C 36 %
1396 02-01-2020 16:33:17 2.2 C 37 %
1397 02-01-2020 16:43:17 2.3 C 37 %
1398 02-01-2020 16:53:17 2.2 C 37 %
1399 02-01-2020 17:03:17 2.1 C 38 %
1400 02-01-2020 17:13:17 2 C 38 %
Sensor: Nr:Datum:Temp:Feuchte:
Aussen-T/F 1401 02-01-2020 17:23:18 2.1 C 40 %
1402 02-01-2020 17:33:17 2.1 C 40 %
1403 02-01-2020 17:43:17 2.1 C 40 %
1404 02-01-2020 17:53:17 2.1 C 40 %
1405 02-01-2020 18:03:17 2.1 C 40 %
1406 02-01-2020 18:13:17 2.1 C 40 %
1407 02-01-2020 18:23:17 2.1 C 40 %
1408 02-01-2020 18:33:17 2.1 C 40 %
1409 02-01-2020 18:43:18 2.2 C 39 %
1410 02-01-2020 18:53:17 2.3 C 40 %
1411 02-01-2020 19:03:17 2.2 C 40 %
1412 02-01-2020 19:13:18 2.2 C 40 %
1413 02-01-2020 19:23:17 2.3 C 40 %
1414 02-01-2020 19:33:17 2.3 C 40 %
1415 02-01-2020 19:43:18 2.3 C 40 %
1416 02-01-2020 19:53:17 2.3 C 40 %
1417 02-01-2020 20:03:18 2.3 C 40 %
1418 02-01-2020 20:13:18 2.4 C 40 %
1419 02-01-2020 20:23:17 2.5 C 40 %
1420 02-01-2020 20:33:17 2.6 C 40 %
1421 02-01-2020 20:43:17 2.6 C 40 %
1422 02-01-2020 20:53:17 2.5 C 39 %
1423 02-01-2020 21:03:18 2.5 C 40 %
1424 02-01-2020 21:13:18 2.5 C 40 %
1425 02-01-2020 21:23:17 2.5 C 40 %
Sensor: Nr:Datum:Temp:Feuchte:
Aussen-T/F 1426 02-01-2020 21:33:18 2.5 C 40 %
1427 02-01-2020 21:43:18 2.3 C 40 %
1428 02-01-2020 21:53:17 1.9 C 42 %
1429 02-01-2020 22:03:17 2.3 C 43 %
1430 02-01-2020 22:13:17 2.4 C 43 %
1431 02-01-2020 22:23:17 2.5 C 43 %
1432 02-01-2020 22:33:17 2.6 C 43 %
1433 02-01-2020 22:43:18 2.7 C 43 %
1434 02-01-2020 22:53:17 2.7 C 42 %
1435 02-01-2020 23:03:17 2.8 C 42 %
1436 02-01-2020 23:13:17 2.8 C 42 %
1437 02-01-2020 23:23:17 2.8 C 41 %
1438 02-01-2020 23:33:18 2.8 C 42 %
1439 02-01-2020 23:43:18 2.9 C 42 %
1440 02-01-2020 23:53:17 2.8 C 41 %
1441 03-01-2020 00:03:18 2.9 C 42 %
1442 03-01-2020 00:13:18 3 C 41 %
1443 03-01-2020 00:23:17 3.1 C 41 %
1444 03-01-2020 00:33:17 3.2 C 41 %
1445 03-01-2020 00:43:17 3.2 C 41 %
1446 03-01-2020 00:53:17 3.4 C 42 %
1447 03-01-2020 01:03:17 3.4 C 42 %
1448 03-01-2020 01:13:17 3.5 C 42 %
1449 03-01-2020 01:23:18 3.5 C 42 %
1450 03-01-2020 01:33:17 3.5 C 42 %
Sensor: Nr:Datum:Temp:Feuchte:
Aussen-T/F 1451 03-01-2020 01:43:17 3.6 C 42 %
1452 03-01-2020 01:53:18 3.6 C 42 %
1453 03-01-2020 02:03:17 3.7 C 42 %
1454 03-01-2020 02:13:17 3.7 C 42 %
1455 03-01-2020 02:23:17 3.9 C 42 %
1456 03-01-2020 02:33:17 3.7 C 42 %
1457 03-01-2020 02:43:18 3.7 C 43 %
1458 03-01-2020 02:53:17 3.9 C 44 %
1459 03-01-2020 03:03:17 3.8 C 44 %
1460 03-01-2020 03:13:17 3.8 C 44 %
1461 03-01-2020 03:23:17 3.8 C 44 %
1462 03-01-2020 03:33:17 3.9 C 44 %
1463 03-01-2020 03:43:17 3.9 C 44 %
1464 03-01-2020 03:53:18 3.9 C 44 %
1465 03-01-2020 04:03:17 4 C 43 %
1466 03-01-2020 04:13:17 4 C 43 %
1467 03-01-2020 04:23:18 4 C 42 %
1468 03-01-2020 04:33:17 4.1 C 42 %
1469 03-01-2020 04:43:17 4.1 C 42 %
1470 03-01-2020 04:53:17 4.2 C 42 %
1471 03-01-2020 05:03:17 4.2 C 41 %
1472 03-01-2020 05:13:17 4.3 C 40 %
1473 03-01-2020 05:23:17 4.3 C 40 %
1474 03-01-2020 05:33:17 4.4 C 40 %
1475 03-01-2020 05:43:17 4.4 C 40 %
Sensor: Nr:Datum:Temp:Feuchte:
Aussen-T/F 1476 03-01-2020 05:53:17 4.4 C 40 %
1477 03-01-2020 06:03:17 4.4 C 40 %
1478 03-01-2020 06:13:17 4.4 C 40 %
1479 03-01-2020 06:23:18 4.4 C 40 %
1480 03-01-2020 06:33:17 4.7 C 40 %
1481 03-01-2020 06:43:17 5.3 C 40 %
1482 03-01-2020 06:53:18 6.7 C 34 %
1483 03-01-2020 07:03:18 7.1 C 31 %
1484 03-01-2020 07:13:18 7.7 C 30 %
1485 03-01-2020 07:23:17 8 C 29 %
1486 03-01-2020 07:33:17 7.9 C 30 %
1487 03-01-2020 07:43:17 7.8 C 30 %
1488 03-01-2020 07:53:17 7.9 C 29 %
1489 03-01-2020 08:03:18 7.9 C 30 %
1490 03-01-2020 08:13:18 8 C 29 %
1491 03-01-2020 08:23:17 7.9 C 29 %
1492 03-01-2020 08:33:18 7.8 C 29 %
1493 03-01-2020 08:43:18 7.9 C 29 %
1494 03-01-2020 08:53:17 8 C 29 %
1495 03-01-2020 09:03:17 8.2 C 28 %
1496 03-01-2020 09:13:17 8.2 C 28 %
1497 03-01-2020 09:23:17 8.2 C 28 %
1498 03-01-2020 09:33:17 8.4 C 28 %
1499 03-01-2020 09:43:17 8.4 C 27 %
1500 03-01-2020 09:53:17 8.4 C 27 %
Sensor: Nr:Datum:Temp:Feuchte:
Aussen-T/F 1501 03-01-2020 10:03:17 8.6 C 27 %
1502 03-01-2020 10:13:17 8.6 C 27 %
1503 03-01-2020 10:23:17 8.6 C 27 %
1504 03-01-2020 10:33:17 8.6 C 27 %
1505 03-01-2020 10:43:18 8.6 C 27 %
1506 03-01-2020 10:53:17 8.6 C 27 %
1507 03-01-2020 11:03:18 8.3 C 27 %
1508 03-01-2020 11:13:18 8.5 C 27 %
1509 03-01-2020 11:23:18 8.6 C 27 %
1510 03-01-2020 11:33:17 8.9 C 27 %
1511 03-01-2020 11:43:17 8.9 C 27 %
1512 03-01-2020 11:53:17 8.7 C 27 %
1513 03-01-2020 12:03:17 8.6 C 27 %
1514 03-01-2020 12:13:17 8.4 C 27 %
1515 03-01-2020 12:23:17 8.6 C 27 %
1516 03-01-2020 12:33:17 8.7 C 27 %
1517 03-01-2020 12:43:17 8.5 C 27 %
1518 03-01-2020 12:53:17 8.6 C 27 %
1519 03-01-2020 13:03:17 8.5 C 27 %
1520 03-01-2020 13:13:18 8.5 C 28 %
1521 03-01-2020 13:23:17 8.6 C 28 %
1522 03-01-2020 13:33:17 8.8 C 27 %
1523 03-01-2020 13:43:18 8.8 C 28 %
1524 03-01-2020 13:53:17 8.7 C 28 %
1525 03-01-2020 14:03:17 8.7 C 28 %
Sensor: Nr:Datum:Temp:Feuchte:
Aussen-T/F 1526 03-01-2020 14:13:17 8.5 C 28 %
1527 03-01-2020 14:23:18 8.5 C 29 %
1528 03-01-2020 14:33:17 8.5 C 29 %
1529 03-01-2020 14:43:17 8.5 C 29 %
1530 03-01-2020 14:53:17 8.5 C 30 %
1531 03-01-2020 15:03:17 9 C 28 %
1532 03-01-2020 15:13:17 9 C 28 %
1533 03-01-2020 15:23:17 9 C 28 %
1534 03-01-2020 15:33:17 9.1 C 28 %
1535 03-01-2020 15:43:18 9.2 C 28 %
1536 03-01-2020 15:53:17 9 C 28 %
1537 03-01-2020 16:03:17 9 C 28 %
1538 03-01-2020 16:13:17 9 C 29 %
1539 03-01-2020 16:23:17 8.9 C 30 %
1540 03-01-2020 16:33:17 9 C 29 %
1541 03-01-2020 16:43:17 9 C 29 %
1542 03-01-2020 16:53:17 9 C 29 %
1543 03-01-2020 17:03:17 8.6 C 31 %
1544 03-01-2020 17:13:17 8.6 C 31 %
1545 03-01-2020 17:23:17 8.9 C 31 %
1546 03-01-2020 17:33:17 8.8 C 30 %
1547 03-01-2020 17:43:17 8.9 C 30 %
1548 03-01-2020 17:53:17 9 C 30 %
1549 03-01-2020 18:03:17 9 C 30 %
1550 03-01-2020 18:13:18 9.1 C 30 %
Sensor: Nr:Datum:Temp:Feuchte:
Aussen-T/F 1551 03-01-2020 18:23:18 9.3 C 30 %
1552 03-01-2020 18:33:18 9.3 C 30 %
1553 03-01-2020 18:43:18 9.2 C 30 %
1554 03-01-2020 18:53:17 9.3 C 30 %
1555 03-01-2020 19:03:18 9.2 C 30 %
1556 03-01-2020 19:13:18 8.9 C 32 %
1557 03-01-2020 19:23:17 8.9 C 32 %
1558 03-01-2020 19:33:17 9.2 C 31 %
1559 03-01-2020 19:43:17 9.3 C 31 %
1560 03-01-2020 19:53:17 9.2 C 31 %
1561 03-01-2020 20:03:18 9 C 31 %
1562 03-01-2020 20:13:18 8.9 C 35 %
1563 03-01-2020 20:23:17 8.9 C 35 %
1564 03-01-2020 20:33:17 8.8 C 35 %
1565 03-01-2020 20:43:17 8.7 C 36 %
1566 03-01-2020 20:53:18 8.6 C 39 %
1567 03-01-2020 21:03:17 8.2 C 37 %
1568 03-01-2020 21:13:17 7.8 C 35 %
1569 03-01-2020 21:23:17 7.5 C 35 %
1570 03-01-2020 21:33:18 7.4 C 36 %
1571 03-01-2020 21:43:18 7.2 C 35 %
1572 03-01-2020 21:53:17 6.8 C 35 %
1573 03-01-2020 22:03:18 6.8 C 34 %
1574 03-01-2020 22:13:18 6.7 C 35 %
1575 03-01-2020 22:23:17 6.5 C 33 %
Sensor: Nr:Datum:Temp:Feuchte:
Aussen-T/F 1576 03-01-2020 22:33:17 6.4 C 34 %
1577 03-01-2020 22:43:17 6 C 33 %
1578 03-01-2020 22:53:17 6 C 34 %
1579 03-01-2020 23:03:17 5.7 C 35 %
1580 03-01-2020 23:13:17 5.9 C 34 %
1581 03-01-2020 23:23:17 5.8 C 35 %
1582 03-01-2020 23:33:17 5.8 C 33 %
1583 03-01-2020 23:43:17 5.7 C 35 %
1584 03-01-2020 23:53:17 5.8 C 35 %
1585 04-01-2020 00:03:18 5.7 C 35 %
1586 04-01-2020 00:13:18 5.6 C 35 %
1587 04-01-2020 00:23:17 5.4 C 35 %
1588 04-01-2020 00:33:17 5.6 C 33 %
1589 04-01-2020 00:43:17 5.6 C 33 %
1590 04-01-2020 00:53:17 5.4 C 34 %
1591 04-01-2020 01:03:17 5.3 C 34 %
1592 04-01-2020 01:13:17 4.6 C 36 %
1593 04-01-2020 01:23:17 4.6 C 36 %
1594 04-01-2020 01:33:17 4.6 C 36 %
1595 04-01-2020 01:43:17 3.6 C 37 %
1596 04-01-2020 01:53:18 3.6 C 41 %
1597 04-01-2020 02:03:17 3.5 C 41 %
1598 04-01-2020 02:13:17 3.9 C 37 %
1599 04-01-2020 02:23:17 3.8 C 35 %
1600 04-01-2020 02:33:17 3.5 C 37 %
Sensor: Nr:Datum:Temp:Feuchte:
Aussen-T/F 1601 04-01-2020 02:43:17 3.4 C 40 %
1602 04-01-2020 02:53:17 3.8 C 39 %
1603 04-01-2020 03:03:18 3.7 C 39 %
1604 04-01-2020 03:13:18 3.9 C 40 %
1605 04-01-2020 03:23:17 3.3 C 39 %
1606 04-01-2020 03:33:17 3 C 41 %
1607 04-01-2020 03:43:17 3.4 C 42 %
1608 04-01-2020 03:53:17 3.7 C 36 %
1609 04-01-2020 04:03:17 3.7 C 35 %
1610 04-01-2020 04:13:17 3.4 C 35 %
1611 04-01-2020 04:23:17 3.3 C 36 %
1612 04-01-2020 04:33:17 3.1 C 37 %
1613 04-01-2020 04:43:17 2.8 C 38 %
1614 04-01-2020 04:53:17 2.6 C 39 %
1615 04-01-2020 05:03:17 2.9 C 40 %
1616 04-01-2020 05:13:17 2.4 C 38 %
1617 04-01-2020 05:23:17 2.5 C 40 %
1618 04-01-2020 05:33:17 1.8 C 40 %
1619 04-01-2020 05:43:18 2 C 41 %
1620 04-01-2020 05:53:17 2.3 C 40 %
1621 04-01-2020 06:03:17 2.2 C 39 %
1622 04-01-2020 06:13:17 2.8 C 36 %
1623 04-01-2020 06:23:17 2.6 C 35 %
1624 04-01-2020 06:33:17 2.4 C 37 %
1625 04-01-2020 06:43:17 2.7 C 37 %
Sensor: Nr:Datum:Temp:Feuchte:
Aussen-T/F 1626 04-01-2020 06:53:17 2.7 C 34 %
1627 04-01-2020 07:03:17 2.7 C 34 %
1628 04-01-2020 07:13:17 2.5 C 34 %
1629 04-01-2020 07:23:17 2.5 C 34 %
1630 04-01-2020 07:33:17 2 C 36 %
1631 04-01-2020 07:43:17 2 C 36 %
1632 04-01-2020 07:53:17 2.1 C 37 %
1633 04-01-2020 08:03:17 1.7 C 39 %
1634 04-01-2020 08:13:17 1.6 C 41 %
1635 04-01-2020 08:23:17 1.3 C 41 %
1636 04-01-2020 08:33:17 1.2 C 43 %
1637 04-01-2020 08:43:17 1.3 C 42 %
1638 04-01-2020 08:53:17 1.2 C 41 %
1639 04-01-2020 09:03:17 1 C 41 %
1640 04-01-2020 09:13:17 0.8 C 44 %
1641 04-01-2020 09:23:17 1 C 44 %
1642 04-01-2020 09:33:18 1.4 C 45 %
1643 04-01-2020 09:43:18 1.7 C 44 %
1644 04-01-2020 09:53:17 1.9 C 41 %
1645 04-01-2020 10:03:18 2.1 C 39 %
1646 04-01-2020 10:13:18 2.3 C 38 %
1647 04-01-2020 10:23:17 3.1 C 35 %
1648 04-01-2020 10:33:17 3.6 C 33 %
1649 04-01-2020 10:43:17 5.1 C 27 %
1650 04-01-2020 10:53:17 5.1 C 27 %
Sensor: Nr:Datum:Temp:Feuchte:
Aussen-T/F 1651 04-01-2020 11:03:17 5.4 C 27 %
1652 04-01-2020 11:13:17 5.4 C 27 %
1653 04-01-2020 11:23:17 5.6 C 27 %
1654 04-01-2020 11:33:17 5.6 C 27 %
1655 04-01-2020 11:43:17 5.6 C 26 %
1656 04-01-2020 11:53:17 5.8 C 26 %
1657 04-01-2020 12:03:17 5.9 C 26 %
1658 04-01-2020 12:13:18 6 C 26 %
1659 04-01-2020 12:23:17 6.2 C 26 %
1660 04-01-2020 12:33:17 6.2 C 26 %
1661 04-01-2020 12:43:17 6.3 C 26 %
1662 04-01-2020 12:53:17 6.5 C 26 %
1663 04-01-2020 13:03:17 6.7 C 26 %
1664 04-01-2020 13:13:17 6.7 C 26 %
1665 04-01-2020 13:23:17 6.7 C 26 %
1666 04-01-2020 13:33:17 6.8 C 25 %
1667 04-01-2020 13:43:17 7 C 25 %
1668 04-01-2020 13:53:18 7 C 25 %
1669 04-01-2020 14:03:18 7 C 25 %
1670 04-01-2020 14:13:18 7 C 25 %
1671 04-01-2020 14:23:18 7.1 C 25 %
1672 04-01-2020 14:33:17 7.1 C 25 %
1673 04-01-2020 14:43:18 7 C 25 %
1674 04-01-2020 14:53:17 7 C 25 %
1675 04-01-2020 15:03:17 7.1 C 25 %
Sensor: Nr:Datum:Temp:Feuchte:
Aussen-T/F 1676 04-01-2020 15:13:17 7 C 25 %
1677 04-01-2020 15:23:17 7 C 25 %
1678 04-01-2020 15:33:18 7 C 25 %
1679 04-01-2020 15:43:18 7 C 25 %
1680 04-01-2020 15:53:18 6.9 C 25 %
1681 04-01-2020 16:03:17 6.9 C 25 %
1682 04-01-2020 16:13:18 6.9 C 25 %
1683 04-01-2020 16:23:17 6.9 C 25 %
1684 04-01-2020 16:33:17 6.8 C 25 %
1685 04-01-2020 16:43:17 6.8 C 25 %
1686 04-01-2020 16:53:17 6.8 C 25 %
1687 04-01-2020 17:03:17 6.8 C 25 %
1688 04-01-2020 17:13:17 6.8 C 25 %
1689 04-01-2020 17:23:17 6.7 C 25 %
1690 04-01-2020 17:33:18 6.7 C 25 %
1691 04-01-2020 17:43:18 6.6 C 25 %
1692 04-01-2020 17:53:17 6.6 C 25 %
1693 04-01-2020 18:03:17 6.7 C 25 %
1694 04-01-2020 18:13:17 6.6 C 25 %
1695 04-01-2020 18:23:17 6.8 C 25 %
1696 04-01-2020 18:33:17 6.7 C 25 %
1697 04-01-2020 18:43:17 6.6 C 25 %
1698 04-01-2020 18:53:17 6.5 C 25 %
1699 04-01-2020 19:03:17 6.6 C 25 %
1700 04-01-2020 19:13:17 6.7 C 25 %
Sensor: Nr:Datum:Temp:Feuchte:
Aussen-T/F 1701 04-01-2020 19:23:17 6.5 C 26 %
1702 04-01-2020 19:33:17 6 C 27 %
1703 04-01-2020 19:43:17 5.8 C 30 %
1704 04-01-2020 19:53:17 5.6 C 30 %
1705 04-01-2020 20:03:17 5.5 C 31 %
1706 04-01-2020 20:13:17 5.6 C 31 %
1707 04-01-2020 20:23:18 5.7 C 30 %
1708 04-01-2020 20:33:18 5.8 C 30 %
1709 04-01-2020 20:43:18 6 C 29 %
1710 04-01-2020 20:53:17 6.1 C 29 %
1711 04-01-2020 21:03:17 5.8 C 30 %
1712 04-01-2020 21:13:17 5.5 C 33 %
1713 04-01-2020 21:23:17 5.3 C 35 %
1714 04-01-2020 21:33:17 5.3 C 38 %
1715 04-01-2020 21:43:17 5.2 C 37 %
1716 04-01-2020 21:53:18 5.3 C 40 %
1717 04-01-2020 22:03:17 5.3 C 40 %
1718 04-01-2020 22:13:17 5.3 C 39 %
1719 04-01-2020 22:23:17 5.3 C 37 %
1720 04-01-2020 22:33:17 5.4 C 37 %
1721 04-01-2020 22:43:17 5.4 C 37 %
1722 04-01-2020 22:53:17 5.4 C 36 %
1723 04-01-2020 23:03:17 5.5 C 35 %
1724 04-01-2020 23:13:17 5.6 C 35 %
1725 04-01-2020 23:23:17 5.6 C 34 %
Sensor: Nr:Datum:Temp:Feuchte:
Aussen-T/F 1726 04-01-2020 23:33:18 5.6 C 35 %
1727 04-01-2020 23:43:18 5.7 C 34 %
1728 04-01-2020 23:53:17 5.6 C 35 %
1729 05-01-2020 00:03:17 5.6 C 33 %
1730 05-01-2020 00:13:17 5.5 C 35 %
1731 05-01-2020 00:23:17 5.4 C 35 %
1732 05-01-2020 00:33:18 5.4 C 35 %
1733 05-01-2020 00:43:18 5.3 C 36 %
1734 05-01-2020 00:53:17 5.3 C 36 %
1735 05-01-2020 01:03:17 5.1 C 37 %
1736 05-01-2020 01:13:17 5 C 40 %
1737 05-01-2020 01:23:17 4.9 C 42 %
1738 05-01-2020 01:33:17 4.8 C 41 %
1739 05-01-2020 01:43:18 4.8 C 42 %
1740 05-01-2020 01:53:17 4.7 C 42 %
1741 05-01-2020 02:03:18 4.8 C 41 %
1742 05-01-2020 02:13:18 4.7 C 41 %
1743 05-01-2020 02:23:17 4.6 C 43 %
1744 05-01-2020 02:33:17 4.5 C 44 %
1745 05-01-2020 02:43:17 4.6 C 44 %
1746 05-01-2020 02:53:17 4.6 C 42 %
1747 05-01-2020 03:03:17 4.6 C 42 %
1748 05-01-2020 03:13:17 4.6 C 41 %
1749 05-01-2020 03:23:17 4.3 C 42 %
1750 05-01-2020 03:33:17 4.3 C 43 %
Sensor: Nr:Datum:Temp:Feuchte:
Aussen-T/F 1751 05-01-2020 03:43:17 4.4 C 44 %
1752 05-01-2020 03:53:17 4.5 C 44 %
1753 05-01-2020 04:03:17 4.4 C 43 %
1754 05-01-2020 04:13:17 4.4 C 43 %
1755 05-01-2020 04:23:17 4.3 C 42 %
1756 05-01-2020 04:33:17 4.3 C 43 %
1757 05-01-2020 04:43:17 4.4 C 43 %
1758 05-01-2020 04:53:17 4.4 C 42 %
1759 05-01-2020 05:03:17 4.4 C 42 %
1760 05-01-2020 05:13:17 4.4 C 42 %
1761 05-01-2020 05:23:17 4.4 C 42 %
1762 05-01-2020 05:33:18 4.5 C 43 %
1763 05-01-2020 05:43:18 4.6 C 43 %
1764 05-01-2020 05:53:17 4.5 C 43 %
1765 05-01-2020 06:03:17 4.6 C 43 %
1766 05-01-2020 06:13:17 4.6 C 43 %
1767 05-01-2020 06:23:17 4.6 C 42 %
1768 05-01-2020 06:33:17 4.7 C 41 %
1769 05-01-2020 06:43:17 4.7 C 40 %
1770 05-01-2020 06:53:17 4.6 C 41 %
1771 05-01-2020 07:03:17 4.6 C 41 %
1772 05-01-2020 07:13:17 4.6 C 42 %
1773 05-01-2020 07:23:17 4.5 C 42 %
1774 05-01-2020 07:33:17 4.5 C 41 %
1775 05-01-2020 07:43:17 4.4 C 41 %
Sensor: Nr:Datum:Temp:Feuchte:
Aussen-T/F 1776 05-01-2020 07:53:17 4.4 C 41 %
1777 05-01-2020 08:03:18 4.3 C 42 %
1778 05-01-2020 08:13:18 4.3 C 42 %
1779 05-01-2020 08:23:17 4.3 C 41 %
1780 05-01-2020 08:33:17 4.4 C 42 %
1781 05-01-2020 08:43:17 4.4 C 41 %
1782 05-01-2020 08:53:17 4.6 C 40 %
1783 05-01-2020 09:03:18 4.6 C 39 %
1784 05-01-2020 09:13:18 4.6 C 40 %
1785 05-01-2020 09:23:17 4.7 C 38 %
1786 05-01-2020 09:33:18 4.8 C 38 %
1787 05-01-2020 09:43:18 5 C 36 %
1788 05-01-2020 09:53:17 5.1 C 35 %
1789 05-01-2020 10:03:17 5.3 C 35 %
1790 05-01-2020 10:13:18 5.4 C 34 %
1791 05-01-2020 10:23:18 5.4 C 34 %
1792 05-01-2020 10:33:18 5.5 C 33 %
1793 05-01-2020 10:43:18 5.5 C 33 %
1794 05-01-2020 10:53:17 5.5 C 34 %
1795 05-01-2020 11:03:17 5.7 C 34 %
1796 05-01-2020 11:13:17 5.7 C 33 %
1797 05-01-2020 11:23:17 5.7 C 33 %
1798 05-01-2020 11:33:17 5.9 C 32 %
1799 05-01-2020 11:43:17 5.9 C 32 %
1800 05-01-2020 11:53:17 6 C 32 %
Sensor: Nr:Datum:Temp:Feuchte:
Aussen-T/F 1801 05-01-2020 12:03:17 6 C 31 %
1802 05-01-2020 12:13:17 6 C 31 %
1803 05-01-2020 12:23:17 6.1 C 31 %
1804 05-01-2020 12:33:17 6.2 C 31 %
1805 05-01-2020 12:43:17 6.2 C 31 %
1806 05-01-2020 12:53:17 6.2 C 31 %
1807 05-01-2020 13:03:17 6.3 C 31 %
1808 05-01-2020 13:13:17 6.5 C 30 %
1809 05-01-2020 13:23:17 6.5 C 30 %
1810 05-01-2020 13:33:18 6.5 C 30 %
1811 05-01-2020 13:43:18 6.6 C 30 %
1812 05-01-2020 13:53:18 6.6 C 30 %
1813 05-01-2020 14:03:18 6.7 C 30 %
1814 05-01-2020 14:13:18 6.6 C 30 %
1815 05-01-2020 14:23:18 6.7 C 30 %
1816 05-01-2020 14:33:18 6.7 C 30 %
1817 05-01-2020 14:43:18 6.7 C 30 %
1818 05-01-2020 14:53:17 6.7 C 30 %
1819 05-01-2020 15:03:18 6.6 C 30 %
1820 05-01-2020 15:13:18 6.6 C 30 %
1821 05-01-2020 15:23:18 6.5 C 31 %
1822 05-01-2020 15:33:18 6.3 C 33 %
1823 05-01-2020 15:43:18 6.1 C 34 %
1824 05-01-2020 15:53:18 6 C 35 %
1825 05-01-2020 16:03:18 6 C 35 %
Sensor: Nr:Datum:Temp:Feuchte:
Aussen-T/F 1826 05-01-2020 16:13:18 5.9 C 36 %
1827 05-01-2020 16:23:17 5.8 C 36 %
1828 05-01-2020 16:33:17 5.7 C 36 %
1829 05-01-2020 16:43:17 5.7 C 35 %
1830 05-01-2020 16:53:18 5.6 C 36 %
1831 05-01-2020 17:03:18 5.6 C 35 %
1832 05-01-2020 17:13:18 5.6 C 34 %
1833 05-01-2020 17:23:18 5.7 C 31 %
1834 05-01-2020 17:33:18 5.6 C 31 %
1835 05-01-2020 17:43:18 5.6 C 31 %
1836 05-01-2020 17:53:17 5.7 C 31 %
1837 05-01-2020 18:03:17 5.6 C 31 %
1838 05-01-2020 18:13:17 5.5 C 31 %
1839 05-01-2020 18:23:17 5.6 C 30 %
1840 05-01-2020 18:33:17 5.7 C 29 %
1841 05-01-2020 18:43:17 5.5 C 30 %
1842 05-01-2020 18:53:17 5.6 C 30 %
1843 05-01-2020 19:03:17 5.5 C 30 %
1844 05-01-2020 19:13:17 5.6 C 30 %
1845 05-01-2020 19:23:17 5.4 C 31 %
1846 05-01-2020 19:33:17 5.3 C 31 %
1847 05-01-2020 19:43:17 5.4 C 31 %
1848 05-01-2020 19:53:18 5.3 C 31 %
1849 05-01-2020 20:03:18 5.2 C 32 %
1850 05-01-2020 20:13:18 5.5 C 29 %
Sensor: Nr:Datum:Temp:Feuchte:
Aussen-T/F 1851 05-01-2020 20:23:18 5.3 C 30 %
1852 05-01-2020 20:33:18 5.3 C 30 %
1853 05-01-2020 20:43:18 5.2 C 31 %
1854 05-01-2020 20:53:18 5.2 C 31 %
1855 05-01-2020 21:03:18 5 C 32 %
1856 05-01-2020 21:13:18 5.1 C 32 %
1857 05-01-2020 21:23:18 5 C 32 %
1858 05-01-2020 21:33:17 4.9 C 34 %
1859 05-01-2020 21:43:17 4.8 C 35 %
1860 05-01-2020 21:53:17 4.8 C 35 %
1861 05-01-2020 22:03:17 4.8 C 35 %
1862 05-01-2020 22:13:17 4.8 C 35 %
1863 05-01-2020 22:23:17 4.7 C 35 %
1864 05-01-2020 22:33:17 4.7 C 35 %
1865 05-01-2020 22:43:17 4.7 C 35 %
1866 05-01-2020 22:53:17 4.6 C 36 %
1867 05-01-2020 23:03:17 4.5 C 36 %
1868 05-01-2020 23:13:17 4.4 C 37 %
1869 05-01-2020 23:23:17 4.4 C 36 %
1870 05-01-2020 23:33:17 4.5 C 36 %
1871 05-01-2020 23:43:17 4.4 C 35 %
1872 05-01-2020 23:53:17 4.5 C 33 %
1873 06-01-2020 00:03:18 4.4 C 33 %
1874 06-01-2020 00:13:18 4.5 C 33 %
1875 06-01-2020 00:23:18 4.4 C 32 %
Sensor: Nr:Datum:Temp:Feuchte:
Aussen-T/F 1876 06-01-2020 00:33:18 4.4 C 34 %
1877 06-01-2020 00:43:18 4.4 C 32 %
1878 06-01-2020 00:53:18 4.3 C 33 %
1879 06-01-2020 01:03:18 4.3 C 32 %
1880 06-01-2020 01:13:18 4.3 C 32 %
1881 06-01-2020 01:23:17 4.4 C 31 %
1882 06-01-2020 01:33:18 4.2 C 32 %
1883 06-01-2020 01:43:18 4.2 C 32 %
1884 06-01-2020 01:53:17 4.1 C 33 %
1885 06-01-2020 02:03:18 4.2 C 31 %
1886 06-01-2020 02:13:18 4.2 C 32 %
1887 06-01-2020 02:23:18 4.3 C 32 %
1888 06-01-2020 02:33:18 4.1 C 32 %
1889 06-01-2020 02:43:18 4.2 C 31 %
1890 06-01-2020 02:53:18 4.1 C 30 %
1891 06-01-2020 03:03:18 4.2 C 30 %
1892 06-01-2020 03:13:18 4.2 C 31 %
1893 06-01-2020 03:23:17 4.1 C 31 %
1894 06-01-2020 03:33:18 4.1 C 32 %
1895 06-01-2020 03:43:18 3.9 C 32 %
1896 06-01-2020 03:53:18 4.1 C 31 %
1897 06-01-2020 04:03:18 4.1 C 31 %
1898 06-01-2020 04:13:18 4.1 C 29 %
1899 06-01-2020 04:23:18 4.1 C 30 %
1900 06-01-2020 04:33:18 3.8 C 32 %
Sensor: Nr:Datum:Temp:Feuchte:
Aussen-T/F 1901 06-01-2020 04:43:18 3.8 C 34 %
1902 06-01-2020 04:53:17 3.7 C 33 %
1903 06-01-2020 05:03:18 3.8 C 33 %
1904 06-01-2020 05:13:18 3.8 C 33 %
1905 06-01-2020 05:23:18 3.5 C 35 %
1906 06-01-2020 05:33:18 3.6 C 35 %
1907 06-01-2020 05:43:18 3.6 C 35 %
1908 06-01-2020 05:53:18 3.5 C 35 %
1909 06-01-2020 06:03:18 3.5 C 33 %
1910 06-01-2020 06:13:18 3.5 C 33 %
1911 06-01-2020 06:23:18 3.3 C 35 %
1912 06-01-2020 06:33:18 3.3 C 35 %
1913 06-01-2020 06:43:18 3.2 C 36 %
1914 06-01-2020 06:53:18 3 C 36 %
1915 06-01-2020 07:03:18 3 C 35 %
1916 06-01-2020 07:13:18 2.8 C 36 %
1917 06-01-2020 07:23:18 2.9 C 37 %
1918 06-01-2020 07:33:17 2.7 C 38 %
1919 06-01-2020 07:43:17 2.6 C 38 %
1920 06-01-2020 07:53:18 2.6 C 38 %
1921 06-01-2020 08:03:17 2.7 C 35 %
1922 06-01-2020 08:13:17 2.6 C 35 %
1923 06-01-2020 08:23:17 2.4 C 35 %
1924 06-01-2020 08:33:17 2.2 C 36 %
1925 06-01-2020 08:43:17 2.3 C 38 %
Sensor: Nr:Datum:Temp:Feuchte:
Aussen-T/F 1926 06-01-2020 08:53:17 2.4 C 38 %
1927 06-01-2020 09:03:17 2.6 C 38 %
1928 06-01-2020 09:13:17 2.8 C 36 %
1929 06-01-2020 09:23:18 3 C 35 %
1930 06-01-2020 09:33:18 3.2 C 32 %
1931 06-01-2020 09:43:18 2.7 C 33 %
1932 06-01-2020 09:53:17 2.7 C 34 %
1933 06-01-2020 10:03:18 3.4 C 35 %
1934 06-01-2020 10:13:18 3.3 C 31 %
1935 06-01-2020 10:23:17 3 C 31 %
1936 06-01-2020 10:33:18 2.7 C 32 %
1937 06-01-2020 10:43:18 2.4 C 34 %
1938 06-01-2020 10:53:17 1.9 C 37 %
1939 06-01-2020 11:03:17 1.6 C 40 %
1940 06-01-2020 11:13:17 1.6 C 41 %
1941 06-01-2020 11:23:17 1.7 C 42 %
1942 06-01-2020 11:33:17 2.2 C 40 %
1943 06-01-2020 11:43:17 2 C 37 %
1944 06-01-2020 11:53:17 1.9 C 40 %
1945 06-01-2020 12:03:17 2 C 38 %
1946 06-01-2020 12:13:17 2 C 38 %
1947 06-01-2020 12:23:18 2.1 C 39 %
1948 06-01-2020 12:33:18 2.1 C 38 %
1949 06-01-2020 12:43:18 2.3 C 38 %
1950 06-01-2020 12:53:17 2.3 C 38 %
Sensor: Nr:Datum:Temp:Feuchte:
Aussen-T/F 1951 06-01-2020 13:03:18 2.5 C 38 %
1952 06-01-2020 13:13:18 2.4 C 38 %
1953 06-01-2020 13:23:17 2.1 C 39 %
1954 06-01-2020 13:33:17 2.4 C 40 %
1955 06-01-2020 13:43:17 2.7 C 39 %
1956 06-01-2020 13:53:17 2.6 C 37 %
1957 06-01-2020 14:03:17 2.5 C 38 %
1958 06-01-2020 14:13:17 2.6 C 39 %
1959 06-01-2020 14:23:17 2.5 C 39 %
1960 06-01-2020 14:33:18 2.4 C 39 %
1961 06-01-2020 14:43:18 2.8 C 40 %
1962 06-01-2020 14:53:17 2.7 C 40 %
1963 06-01-2020 15:03:18 2.6 C 39 %
1964 06-01-2020 15:13:18 2.8 C 38 %
1965 06-01-2020 15:23:18 2.8 C 39 %
1966 06-01-2020 15:33:18 2.7 C 39 %
1967 06-01-2020 15:43:18 2.6 C 40 %
1968 06-01-2020 15:53:18 2.4 C 39 %
1969 06-01-2020 16:03:18 2 C 40 %
1970 06-01-2020 16:13:18 1.7 C 42 %
1971 06-01-2020 16:23:17 1.8 C 43 %
1972 06-01-2020 16:33:17 1.8 C 42 %
1973 06-01-2020 16:43:17 1.2 C 41 %
1974 06-01-2020 16:53:18 1.2 C 44 %
1975 06-01-2020 17:03:18 1.3 C 43 %
Sensor: Nr:Datum:Temp:Feuchte:
Aussen-T/F 1976 06-01-2020 17:13:18 0.5 C 43 %
1977 06-01-2020 17:23:18 0.8 C 45 %
1978 06-01-2020 17:33:18 0.8 C 45 %
1979 06-01-2020 17:43:18 0.5 C 43 %
1980 06-01-2020 17:53:17 0.1 C 44 %
1981 06-01-2020 18:03:18 0 C 45 %
1982 06-01-2020 18:13:18 -0.1 C 45 %
1983 06-01-2020 18:23:18 0 C 45 %
1984 06-01-2020 18:33:17 -0.4 C 45 %
1985 06-01-2020 18:43:17 -0.1 C 45 %
1986 06-01-2020 18:53:17 -0.2 C 45 %
1987 06-01-2020 19:03:18 -0.2 C 45 %
1988 06-01-2020 19:13:18 -0.5 C 44 %
1989 06-01-2020 19:23:17 -0.6 C 44 %
1990 06-01-2020 19:33:17 -1.3 C 43 %
1991 06-01-2020 19:43:17 -1 C 45 %
1992 06-01-2020 19:53:18 -1.1 C 45 %
1993 06-01-2020 20:03:18 -1.5 C 44 %
1994 06-01-2020 20:13:18 -1 C 45 %
1995 06-01-2020 20:23:18 -0.8 C 45 %
1996 06-01-2020 20:33:18 -0.7 C 45 %
1997 06-01-2020 20:43:18 -0.8 C 45 %
1998 06-01-2020 20:53:18 -0.9 C 44 %
1999 06-01-2020 21:03:18 -1.1 C 44 %
2000 06-01-2020 21:13:18 -1.1 C 44 %
Sensor: Nr:Datum:Temp:Feuchte:
Aussen-T/F 2001 06-01-2020 21:23:18 -1.3 C 44 %
2002 06-01-2020 21:33:18 -1.2 C 45 %
2003 06-01-2020 21:43:18 -0.8 C 45 %
2004 06-01-2020 21:53:18 -0.5 C 46 %
2005 06-01-2020 22:03:18 -0.3 C 46 %
2006 06-01-2020 22:13:18 0.2 C 46 %
2007 06-01-2020 22:23:17 0.5 C 45 %
2008 06-01-2020 22:33:17 0.6 C 42 %
2009 06-01-2020 22:43:17 0.5 C 42 %
2010 06-01-2020 22:53:18 0.6 C 42 %
2011 06-01-2020 23:03:18 0.7 C 44 %
2012 06-01-2020 23:13:18 0.8 C 44 %
2013 06-01-2020 23:23:18 0.7 C 43 %
2014 06-01-2020 23:33:18 0.6 C 44 %
2015 06-01-2020 23:43:18 0.8 C 45 %
2016 06-01-2020 23:53:18 1 C 43 %
2017 07-01-2020 00:03:18 1.2 C 43 %
2018 07-01-2020 00:13:18 1.8 C 39 %
2019 07-01-2020 00:23:17 2 C 37 %
2020 07-01-2020 00:33:17 1.8 C 39 %
2021 07-01-2020 00:43:17 2.3 C 36 %
2022 07-01-2020 00:53:17 2.5 C 35 %
2023 07-01-2020 01:03:17 2.5 C 36 %
2024 07-01-2020 01:13:17 2.6 C 35 %
2025 07-01-2020 01:23:17 2.8 C 35 %
Sensor: Nr:Datum:Temp:Feuchte:
Aussen-T/F 2026 07-01-2020 01:33:17 3 C 34 %
2027 07-01-2020 01:43:17 3 C 34 %
2028 07-01-2020 01:53:18 3 C 35 %
2029 07-01-2020 02:03:18 3.3 C 33 %
2030 07-01-2020 02:13:18 3.1 C 33 %
2031 07-01-2020 02:23:17 2.8 C 37 %
2032 07-01-2020 02:33:17 2.8 C 38 %
2033 07-01-2020 02:43:17 2.8 C 38 %
2034 07-01-2020 02:53:18 2.8 C 38 %
2035 07-01-2020 03:03:18 2.8 C 38 %
2036 07-01-2020 03:13:18 2.7 C 39 %
2037 07-01-2020 03:23:18 2.7 C 40 %
2038 07-01-2020 03:33:18 2.7 C 40 %
2039 07-01-2020 03:43:18 2.7 C 39 %
2040 07-01-2020 03:53:18 2.9 C 39 %
2041 07-01-2020 04:03:18 2.9 C 40 %
2042 07-01-2020 04:13:18 3 C 37 %
2043 07-01-2020 04:23:18 3 C 37 %
2044 07-01-2020 04:33:18 3.2 C 36 %
2045 07-01-2020 04:43:18 3.2 C 36 %
2046 07-01-2020 04:53:18 3.3 C 38 %
2047 07-01-2020 05:03:18 3.5 C 37 %
2048 07-01-2020 05:13:18 3.3 C 37 %
2049 07-01-2020 05:23:17 3.4 C 37 %
2050 07-01-2020 05:33:17 3.5 C 37 %
Sensor: Nr:Datum:Temp:Feuchte:
Aussen-T/F 2051 07-01-2020 05:43:17 3.5 C 38 %
2052 07-01-2020 05:53:18 3.6 C 37 %
2053 07-01-2020 06:03:18 3.6 C 37 %
2054 07-01-2020 06:13:18 3.7 C 36 %
2055 07-01-2020 06:23:18 3.9 C 36 %
2056 07-01-2020 06:33:18 4 C 35 %
2057 07-01-2020 06:43:18 4.3 C 34 %
2058 07-01-2020 06:53:17 4.3 C 34 %
2059 07-01-2020 07:03:18 4.3 C 34 %
2060 07-01-2020 07:13:18 4.4 C 34 %
2061 07-01-2020 07:23:18 4.4 C 34 %
2062 07-01-2020 07:33:18 4.4 C 34 %
2063 07-01-2020 07:43:18 4.3 C 34 %
2064 07-01-2020 07:53:18 4.3 C 35 %
2065 07-01-2020 08:03:18 4.4 C 35 %
2066 07-01-2020 08:13:18 4.4 C 35 %
2067 07-01-2020 08:23:17 4.3 C 35 %
2068 07-01-2020 08:33:17 3.9 C 37 %
2069 07-01-2020 08:43:17 3.6 C 40 %
2070 07-01-2020 08:53:17 3.8 C 41 %
2071 07-01-2020 09:03:18 4 C 38 %
2072 07-01-2020 09:13:18 3.9 C 40 %
2073 07-01-2020 09:23:17 4 C 37 %
2074 07-01-2020 09:33:17 4.2 C 37 %
2075 07-01-2020 09:43:17 4.5 C 35 %
Sensor: Nr:Datum:Temp:Feuchte:
Aussen-T/F 2076 07-01-2020 09:53:18 4.6 C 35 %
2077 07-01-2020 10:03:17 4.8 C 35 %
2078 07-01-2020 10:13:17 4.9 C 35 %
2079 07-01-2020 10:23:17 5.1 C 33 %
2080 07-01-2020 10:33:17 5.4 C 33 %
2081 07-01-2020 10:43:17 5.5 C 33 %
2082 07-01-2020 10:53:17 5.6 C 33 %
2083 07-01-2020 11:03:17 5.9 C 32 %
2084 07-01-2020 11:13:17 6.1 C 31 %
2085 07-01-2020 11:23:18 6.3 C 31 %
2086 07-01-2020 11:33:18 6.3 C 31 %
2087 07-01-2020 11:43:18 6.4 C 31 %
2088 07-01-2020 11:53:17 6.4 C 30 %
2089 07-01-2020 12:03:18 6.6 C 30 %
2090 07-01-2020 12:13:18 6.8 C 30 %
2091 07-01-2020 12:23:18 6.8 C 29 %
2092 07-01-2020 12:33:17 6.7 C 29 %
2093 07-01-2020 12:43:17 6.5 C 30 %
2094 07-01-2020 12:53:18 6.5 C 30 %
2095 07-01-2020 13:03:17 6.8 C 29 %
2096 07-01-2020 13:13:17 7 C 27 %
2097 07-01-2020 13:23:17 6.9 C 29 %
2098 07-01-2020 13:33:17 6.9 C 28 %
2099 07-01-2020 13:43:17 6.8 C 29 %
2100 07-01-2020 13:53:17 7 C 27 %
Sensor: Nr:Datum:Temp:Feuchte:
Aussen-T/F 2101 07-01-2020 14:03:18 7.1 C 27 %
2102 07-01-2020 14:13:18 7 C 27 %
2103 07-01-2020 14:23:17 7.1 C 27 %
2104 07-01-2020 14:33:17 7.3 C 26 %
2105 07-01-2020 14:43:17 6.8 C 28 %
2106 07-01-2020 14:53:17 7.2 C 26 %
2107 07-01-2020 15:03:17 6.7 C 28 %
2108 07-01-2020 15:13:17 6.4 C 28 %
2109 07-01-2020 15:23:17 6.3 C 28 %
2110 07-01-2020 15:33:17 6 C 29 %
2111 07-01-2020 15:43:17 5.7 C 30 %
2112 07-01-2020 15:53:17 5.5 C 31 %
2113 07-01-2020 16:03:17 5.3 C 31 %
2114 07-01-2020 16:13:17 5.4 C 31 %
2115 07-01-2020 16:23:17 5.4 C 31 %
2116 07-01-2020 16:33:17 4.5 C 35 %
2117 07-01-2020 16:43:17 4 C 37 %
2118 07-01-2020 16:53:17 4.1 C 37 %
2119 07-01-2020 17:03:18 3.6 C 40 %
2120 07-01-2020 17:13:18 3.5 C 40 %
2121 07-01-2020 17:23:18 3.3 C 41 %
2122 07-01-2020 17:33:18 3.3 C 42 %
2123 07-01-2020 17:43:18 3.1 C 41 %
2124 07-01-2020 17:53:17 2.9 C 43 %
2125 07-01-2020 18:03:18 3.1 C 43 %
Sensor: Nr:Datum:Temp:Feuchte:
Aussen-T/F 2126 07-01-2020 18:13:18 3.2 C 43 %
2127 07-01-2020 18:23:18 2.9 C 43 %
2128 07-01-2020 18:33:18 2.7 C 43 %
2129 07-01-2020 18:43:18 2.9 C 44 %
2130 07-01-2020 18:53:18 2.7 C 43 %
2131 07-01-2020 19:03:17 2.8 C 44 %
2132 07-01-2020 19:13:17 2.5 C 43 %
2133 07-01-2020 19:23:17 2.5 C 43 %
2134 07-01-2020 19:33:18 2.5 C 43 %
2135 07-01-2020 19:43:18 2.5 C 43 %
2136 07-01-2020 19:53:17 3 C 43 %
2137 07-01-2020 20:03:18 3.6 C 42 %
2138 07-01-2020 20:13:18 4.1 C 38 %
2139 07-01-2020 20:23:18 3.6 C 38 %
2140 07-01-2020 20:33:18 3.6 C 39 %
2141 07-01-2020 20:43:18 4 C 37 %
2142 07-01-2020 20:53:17 4.7 C 35 %
2143 07-01-2020 21:03:18 5.1 C 32 %
2144 07-01-2020 21:13:18 5.1 C 32 %
2145 07-01-2020 21:23:18 5.3 C 31 %
2146 07-01-2020 21:33:18 5.7 C 31 %
2147 07-01-2020 21:43:18 5.7 C 30 %
2148 07-01-2020 21:53:17 5.7 C 30 %
2149 07-01-2020 22:03:18 6 C 28 %
2150 07-01-2020 22:13:18 5.8 C 29 %
Sensor: Nr:Datum:Temp:Feuchte:
Aussen-T/F 2151 07-01-2020 22:24:17 5.9 C 29 %
2152 07-01-2020 22:33:17 5.7 C 29 %
2153 07-01-2020 22:43:17 5.7 C 30 %
2154 07-01-2020 22:53:17 5.9 C 29 %
2155 07-01-2020 23:03:18 6 C 28 %
2156 07-01-2020 23:13:18 6 C 28 %
2157 07-01-2020 23:23:18 6.1 C 28 %
2158 07-01-2020 23:33:18 5.9 C 28 %
2159 07-01-2020 23:43:18 5.6 C 30 %
2160 07-01-2020 23:53:18 5.7 C 29 %
2161 08-01-2020 00:04:17 5.7 C 29 %
2162 08-01-2020 00:14:17 5.4 C 30 %
2163 08-01-2020 00:24:17 5.6 C 29 %
2164 08-01-2020 00:34:17 5.6 C 28 %
2165 08-01-2020 00:44:17 5.5 C 29 %
2166 08-01-2020 00:53:18 5.7 C 28 %
2167 08-01-2020 01:03:18 5.4 C 28 %
2168 08-01-2020 01:13:18 5.6 C 28 %
2169 08-01-2020 01:24:17 5.4 C 28 %
2170 08-01-2020 01:33:18 5.4 C 28 %
2171 08-01-2020 01:43:18 5.3 C 28 %
2172 08-01-2020 01:53:17 4.7 C 30 %
2173 08-01-2020 02:03:18 4.7 C 30 %
2174 08-01-2020 02:13:18 5 C 30 %
2175 08-01-2020 02:23:18 5 C 30 %
Sensor: Nr:Datum:Temp:Feuchte:
Aussen-T/F 2176 08-01-2020 02:33:18 5.3 C 30 %
2177 08-01-2020 02:43:18 5.4 C 30 %
2178 08-01-2020 02:53:18 5.5 C 30 %
2179 08-01-2020 03:03:18 5.9 C 30 %
2180 08-01-2020 03:13:18 5.8 C 30 %
2181 08-01-2020 03:23:18 5.9 C 30 %
2182 08-01-2020 03:33:18 5.8 C 30 %
2183 08-01-2020 03:43:18 6 C 30 %
2184 08-01-2020 03:53:17 5.9 C 30 %
2185 08-01-2020 04:03:18 5.9 C 30 %
2186 08-01-2020 04:13:18 5.8 C 31 %
2187 08-01-2020 04:23:18 5.8 C 31 %
2188 08-01-2020 04:33:18 5.7 C 32 %
2189 08-01-2020 04:43:18 5.7 C 32 %
2190 08-01-2020 04:54:17 5.6 C 33 %
2191 08-01-2020 05:04:17 5.6 C 33 %
2192 08-01-2020 05:14:17 5.7 C 33 %
2193 08-01-2020 05:24:17 5.8 C 34 %
2194 08-01-2020 05:34:17 5.7 C 34 %
2195 08-01-2020 05:44:17 5.8 C 35 %
2196 08-01-2020 05:54:17 5.8 C 35 %
2197 08-01-2020 06:04:17 6 C 35 %
2198 08-01-2020 06:14:17 5.9 C 35 %
2199 08-01-2020 06:24:17 6 C 35 %
2200 08-01-2020 06:34:17 6.2 C 35 %
Sensor: Nr:Datum:Temp:Feuchte:
Aussen-T/F 2201 08-01-2020 06:44:17 6.1 C 36 %
2202 08-01-2020 06:54:17 6 C 39 %
2203 08-01-2020 07:04:17 5.8 C 41 %
2204 08-01-2020 07:14:17 5.9 C 42 %
2205 08-01-2020 07:24:18 6 C 42 %
2206 08-01-2020 07:34:18 6.1 C 42 %
2207 08-01-2020 07:44:18 6.2 C 42 %
2208 08-01-2020 07:54:17 6.2 C 42 %
2209 08-01-2020 08:04:17 6.3 C 42 %
2210 08-01-2020 08:14:17 6.2 C 42 %
2211 08-01-2020 08:24:17 6.2 C 42 %
2212 08-01-2020 08:34:18 6.1 C 42 %
2213 08-01-2020 08:44:18 6.6 C 41 %
2214 08-01-2020 08:54:17 6.7 C 39 %
2215 08-01-2020 09:04:17 6.8 C 39 %
2216 08-01-2020 09:14:17 6.8 C 39 %
2217 08-01-2020 09:24:17 6.7 C 39 %
2218 08-01-2020 09:34:17 6.7 C 40 %
2219 08-01-2020 09:44:17 6.9 C 39 %
2220 08-01-2020 09:54:17 7.1 C 38 %
2221 08-01-2020 10:04:17 7.1 C 38 %
2222 08-01-2020 10:14:17 7.2 C 37 %
2223 08-01-2020 10:24:17 7.4 C 36 %
2224 08-01-2020 10:34:17 7.3 C 36 %
2225 08-01-2020 10:44:17 7.4 C 36 %
Sensor: Nr:Datum:Temp:Feuchte:
Aussen-T/F 2226 08-01-2020 10:54:17 7.5 C 35 %
2227 08-01-2020 11:04:17 7.7 C 35 %
2228 08-01-2020 11:14:17 7.8 C 35 %
2229 08-01-2020 11:24:17 7.9 C 34 %
2230 08-01-2020 11:34:17 7.8 C 35 %
2231 08-01-2020 11:44:17 7.9 C 34 %
2232 08-01-2020 11:54:17 7.7 C 35 %
2233 08-01-2020 12:04:17 7.6 C 36 %
2234 08-01-2020 12:14:17 7.7 C 36 %
2235 08-01-2020 12:24:16 7.9 C 35 %
2236 08-01-2020 12:34:17 8 C 34 %
2237 08-01-2020 12:44:17 8.1 C 34 %
2238 08-01-2020 12:54:17 8.8 C 33 %
2239 08-01-2020 13:04:17 9 C 31 %
2240 08-01-2020 13:14:17 8.8 C 32 %
2241 08-01-2020 13:24:17 8.7 C 32 %
2242 08-01-2020 13:34:17 8.8 C 32 %
2243 08-01-2020 13:44:17 8.8 C 32 %
2244 08-01-2020 13:54:17 8.7 C 32 %
2245 08-01-2020 14:04:16 8.9 C 32 %
2246 08-01-2020 14:14:16 9 C 32 %
2247 08-01-2020 14:24:16 9 C 32 %
2248 08-01-2020 14:34:16 9 C 32 %
2249 08-01-2020 14:44:16 9.1 C 32 %
2250 08-01-2020 14:54:16 9.3 C 31 %
Sensor: Nr:Datum:Temp:Feuchte:
Aussen-T/F 2251 08-01-2020 15:04:16 9.4 C 31 %
2252 08-01-2020 15:14:16 9.4 C 31 %
2253 08-01-2020 15:24:16 9.4 C 31 %
2254 08-01-2020 15:34:16 9.3 C 32 %
2255 08-01-2020 15:44:16 9.3 C 32 %
2256 08-01-2020 15:54:16 9.4 C 32 %
2257 08-01-2020 16:04:17 9.3 C 32 %
2258 08-01-2020 16:14:17 9.3 C 32 %
2259 08-01-2020 16:24:17 9.2 C 33 %
2260 08-01-2020 16:34:17 9.2 C 33 %
2261 08-01-2020 16:44:17 9.3 C 33 %
2262 08-01-2020 16:54:17 9.3 C 34 %
2263 08-01-2020 17:04:17 9.3 C 34 %
2264 08-01-2020 17:14:17 9.3 C 34 %
2265 08-01-2020 17:24:17 9.3 C 34 %
2266 08-01-2020 17:34:17 9.2 C 35 %
2267 08-01-2020 17:44:17 9.2 C 35 %
2268 08-01-2020 17:54:17 9.1 C 35 %
2269 08-01-2020 18:04:17 9.2 C 35 %
2270 08-01-2020 18:14:17 9.1 C 36 %
2271 08-01-2020 18:24:17 9.1 C 36 %
2272 08-01-2020 18:34:17 9.2 C 35 %
2273 08-01-2020 18:44:17 9.4 C 35 %
2274 08-01-2020 18:54:17 9.4 C 35 %
2275 08-01-2020 19:04:17 9.5 C 36 %
Sensor: Nr:Datum:Temp:Feuchte:
Aussen-T/F 2276 08-01-2020 19:14:17 9.6 C 35 %
2277 08-01-2020 19:24:17 9.7 C 35 %
2278 08-01-2020 19:34:17 9.6 C 35 %
2279 08-01-2020 19:44:17 9.5 C 35 %
2280 08-01-2020 19:54:17 9.3 C 36 %
2281 08-01-2020 20:04:17 9.7 C 36 %
2282 08-01-2020 20:14:17 9.7 C 35 %
2283 08-01-2020 20:24:17 9.9 C 35 %
2284 08-01-2020 20:34:17 9.8 C 35 %
2285 08-01-2020 20:44:17 9.9 C 35 %
2286 08-01-2020 20:54:16 9.9 C 35 %
2287 08-01-2020 21:04:17 10 C 35 %
2288 08-01-2020 21:14:17 9.8 C 35 %
2289 08-01-2020 21:24:17 9.8 C 35 %
2290 08-01-2020 21:34:17 9.9 C 36 %
2291 08-01-2020 21:44:17 10 C 35 %
2292 08-01-2020 21:54:16 9.6 C 37 %
2293 08-01-2020 22:04:16 9.5 C 37 %
2294 08-01-2020 22:14:16 9.6 C 38 %
2295 08-01-2020 22:24:16 9.9 C 36 %
2296 08-01-2020 22:34:16 9.8 C 36 %
2297 08-01-2020 22:44:16 9.6 C 37 %
2298 08-01-2020 22:54:16 9.6 C 38 %
2299 08-01-2020 23:04:16 9.7 C 38 %
2300 08-01-2020 23:14:16 9.5 C 38 %
Sensor: Nr:Datum:Temp:Feuchte:
Aussen-T/F 2301 08-01-2020 23:24:16 9.5 C 39 %
2302 08-01-2020 23:34:16 9.5 C 39 %
2303 08-01-2020 23:44:16 9.5 C 39 %
2304 08-01-2020 23:54:16 9.5 C 40 %
2305 09-01-2020 00:04:16 9.1 C 40 %
2306 09-01-2020 00:14:16 9.2 C 40 %
2307 09-01-2020 00:24:16 9.2 C 40 %
2308 09-01-2020 00:34:16 9.1 C 41 %
2309 09-01-2020 00:44:16 9 C 41 %
2310 09-01-2020 00:54:16 9 C 41 %
2311 09-01-2020 01:04:16 9.1 C 42 %
2312 09-01-2020 01:14:16 9 C 41 %
2313 09-01-2020 01:24:16 9 C 42 %
2314 09-01-2020 01:34:16 8.9 C 42 %
2315 09-01-2020 01:44:16 8.9 C 42 %
2316 09-01-2020 01:54:16 8.9 C 42 %
2317 09-01-2020 02:04:16 8.9 C 42 %
2318 09-01-2020 02:14:16 8.7 C 42 %
2319 09-01-2020 02:24:16 8.8 C 42 %
2320 09-01-2020 02:34:16 8.7 C 42 %
2321 09-01-2020 02:44:16 8.8 C 42 %
2322 09-01-2020 02:54:18 8.8 C 41 %
2323 09-01-2020 03:04:18 8.8 C 40 %
2324 09-01-2020 03:14:18 8.7 C 40 %
2325 09-01-2020 03:24:17 8.7 C 40 %
Sensor: Nr:Datum:Temp:Feuchte:
Aussen-T/F 2326 09-01-2020 03:34:17 8.7 C 40 %
2327 09-01-2020 03:44:17 8.6 C 40 %
2328 09-01-2020 03:54:17 8.5 C 40 %
2329 09-01-2020 04:04:17 8.4 C 41 %
2330 09-01-2020 04:14:17 8.5 C 42 %
2331 09-01-2020 04:24:17 8.5 C 42 %
2332 09-01-2020 04:34:17 8.5 C 42 %
2333 09-01-2020 04:44:17 8.6 C 42 %
2334 09-01-2020 04:54:17 8.5 C 42 %
2335 09-01-2020 05:04:17 8.5 C 42 %
2336 09-01-2020 05:14:17 8.5 C 42 %
2337 09-01-2020 05:24:17 8.5 C 42 %
2338 09-01-2020 05:34:17 8.5 C 41 %
2339 09-01-2020 05:44:17 8.5 C 42 %
2340 09-01-2020 05:54:18 8.5 C 42 %
2341 09-01-2020 06:04:18 8.5 C 41 %
2342 09-01-2020 06:14:18 8.5 C 41 %
2343 09-01-2020 06:24:18 8.6 C 41 %
2344 09-01-2020 06:34:18 8.6 C 41 %
2345 09-01-2020 06:44:18 8.6 C 41 %
2346 09-01-2020 06:54:18 8.7 C 41 %
2347 09-01-2020 07:04:18 8.7 C 41 %
2348 09-01-2020 07:14:18 8.8 C 41 %
2349 09-01-2020 07:24:18 8.8 C 41 %
2350 09-01-2020 07:34:18 9 C 41 %
Sensor: Nr:Datum:Temp:Feuchte:
Aussen-T/F 2351 09-01-2020 07:44:18 9 C 41 %
2352 09-01-2020 07:54:18 9 C 41 %
2353 09-01-2020 08:04:18 9 C 41 %
2354 09-01-2020 08:14:18 9 C 41 %
2355 09-01-2020 08:24:18 9.3 C 41 %
2356 09-01-2020 08:34:18 9.2 C 41 %
2357 09-01-2020 08:44:18 9.5 C 41 %
2358 09-01-2020 08:54:18 9.6 C 41 %
2359 09-01-2020 09:04:18 9.8 C 40 %
2360 09-01-2020 09:14:18 10 C 40 %
2361 09-01-2020 09:24:18 9.8 C 40 %
2362 09-01-2020 09:34:17 9.8 C 39 %
2363 09-01-2020 09:44:17 10.1 C 39 %
2364 09-01-2020 09:54:17 10.3 C 37 %
2365 09-01-2020 10:04:17 10.7 C 35 %
2366 09-01-2020 10:14:17 10.8 C 35 %
2367 09-01-2020 10:24:17 11.1 C 33 %
2368 09-01-2020 10:34:18 11.4 C 32 %
2369 09-01-2020 10:44:18 11.5 C 32 %
2370 09-01-2020 10:54:17 11.6 C 32 %
2371 09-01-2020 11:04:18 11.8 C 31 %
2372 09-01-2020 11:14:18 12 C 30 %
2373 09-01-2020 11:24:18 12.2 C 30 %
2374 09-01-2020 11:34:18 12.3 C 30 %
2375 09-01-2020 11:44:18 12.5 C 30 %
Sensor: Nr:Datum:Temp:Feuchte:
Aussen-T/F 2376 09-01-2020 11:54:17 12.7 C 29 %
2377 09-01-2020 12:04:17 12.8 C 29 %
2378 09-01-2020 12:14:17 12.9 C 28 %
2379 09-01-2020 12:24:17 13 C 27 %
2380 09-01-2020 12:34:17 13 C 27 %
2381 09-01-2020 12:44:17 13.1 C 27 %
2382 09-01-2020 12:54:17 13.2 C 27 %
2383 09-01-2020 13:04:17 13.2 C 27 %
2384 09-01-2020 13:14:17 13.2 C 27 %
2385 09-01-2020 13:24:17 13.2 C 26 %
2386 09-01-2020 13:34:18 13.3 C 27 %
2387 09-01-2020 13:44:18 13.3 C 26 %
2388 09-01-2020 13:54:18 13.1 C 26 %
2389 09-01-2020 14:04:18 13 C 26 %
2390 09-01-2020 14:14:18 12.7 C 28 %
2391 09-01-2020 14:24:17 12.3 C 29 %
2392 09-01-2020 14:34:17 12.2 C 29 %
2393 09-01-2020 14:44:17 12.1 C 30 %
2394 09-01-2020 14:54:17 12.2 C 30 %
2395 09-01-2020 15:04:17 12.3 C 30 %
2396 09-01-2020 15:14:18 12.1 C 29 %
2397 09-01-2020 15:24:18 12.4 C 28 %
2398 09-01-2020 15:34:17 12.4 C 29 %
2399 09-01-2020 15:44:17 12.4 C 29 %
2400 09-01-2020 15:54:17 12.4 C 29 %
Sensor: Nr:Datum:Temp:Feuchte:
Aussen-T/F 2401 09-01-2020 16:04:17 12.4 C 29 %
2402 09-01-2020 16:14:17 12.5 C 28 %
2403 09-01-2020 16:24:17 12.1 C 29 %
2404 09-01-2020 16:34:17 12.3 C 28 %
2405 09-01-2020 16:44:17 12.2 C 29 %
2406 09-01-2020 16:54:17 12 C 29 %
2407 09-01-2020 17:04:17 12.2 C 29 %
2408 09-01-2020 17:14:17 12.3 C 28 %
2409 09-01-2020 17:24:18 12.1 C 28 %
2410 09-01-2020 17:34:17 12.1 C 28 %
2411 09-01-2020 17:44:17 12 C 28 %
2412 09-01-2020 17:54:18 11.7 C 30 %
2413 09-01-2020 18:04:18 11.4 C 30 %
2414 09-01-2020 18:14:18 11.3 C 31 %
2415 09-01-2020 18:24:17 10.9 C 32 %
2416 09-01-2020 18:34:17 11.1 C 30 %
2417 09-01-2020 18:44:17 11 C 30 %
2418 09-01-2020 18:54:17 11 C 30 %
2419 09-01-2020 19:04:17 11.4 C 29 %
2420 09-01-2020 19:14:17 11.3 C 29 %
2421 09-01-2020 19:24:17 11 C 30 %
2422 09-01-2020 19:34:18 10.7 C 31 %
2423 09-01-2020 19:44:18 10.8 C 31 %
2424 09-01-2020 19:54:17 10.1 C 35 %
2425 09-01-2020 20:04:18 10 C 37 %
Sensor: Nr:Datum:Temp:Feuchte:
Aussen-T/F 2426 09-01-2020 20:14:18 9.7 C 37 %
2427 09-01-2020 20:24:17 9.7 C 35 %
2428 09-01-2020 20:34:17 9.9 C 37 %
2429 09-01-2020 20:44:17 9.7 C 36 %
2430 09-01-2020 20:54:17 9.6 C 35 %
2431 09-01-2020 21:04:17 9.4 C 37 %
2432 09-01-2020 21:14:18 9.3 C 38 %
2433 09-01-2020 21:24:18 9.2 C 39 %
2434 09-01-2020 21:34:18 9.1 C 40 %
2435 09-01-2020 21:44:18 9.3 C 37 %
2436 09-01-2020 21:54:17 9.2 C 37 %
2437 09-01-2020 22:04:18 9.2 C 38 %
2438 09-01-2020 22:14:18 9.2 C 38 %
2439 09-01-2020 22:24:17 9.2 C 38 %
2440 09-01-2020 22:34:18 9.2 C 38 %
2441 09-01-2020 22:44:18 9.3 C 36 %
2442 09-01-2020 22:54:18 9.4 C 34 %
2443 09-01-2020 23:04:18 9.8 C 32 %
2444 09-01-2020 23:14:18 9.8 C 31 %
2445 09-01-2020 23:24:18 9.7 C 31 %
2446 09-01-2020 23:34:18 9.6 C 32 %
2447 09-01-2020 23:44:18 10 C 30 %
2448 09-01-2020 23:54:17 10.2 C 30 %
2449 10-01-2020 00:04:17 10.1 C 30 %
2450 10-01-2020 00:14:17 10.1 C 30 %
Sensor: Nr:Datum:Temp:Feuchte:
Aussen-T/F 2451 10-01-2020 00:24:17 9.9 C 30 %
2452 10-01-2020 00:34:17 9.8 C 31 %
2453 10-01-2020 00:44:17 9.6 C 32 %
2454 10-01-2020 00:54:17 9.5 C 32 %
2455 10-01-2020 01:04:17 9.9 C 30 %
2456 10-01-2020 01:14:17 9.7 C 31 %
2457 10-01-2020 01:24:17 9.7 C 31 %
2458 10-01-2020 01:34:17 9.6 C 31 %
2459 10-01-2020 01:44:17 9.3 C 31 %
2460 10-01-2020 01:54:17 9.6 C 31 %
2461 10-01-2020 02:04:17 9.5 C 31 %
2462 10-01-2020 02:14:17 9.7 C 31 %
2463 10-01-2020 02:24:18 9.7 C 30 %
2464 10-01-2020 02:34:17 9.8 C 30 %
2465 10-01-2020 02:44:17 9.8 C 30 %
2466 10-01-2020 02:54:18 9.6 C 30 %
2467 10-01-2020 03:04:17 10.1 C 29 %
2468 10-01-2020 03:14:17 9.8 C 30 %
2469 10-01-2020 03:24:17 9.8 C 30 %
2470 10-01-2020 03:34:18 10.1 C 28 %
2471 10-01-2020 03:44:18 10 C 27 %
2472 10-01-2020 03:54:17 10 C 27 %
2473 10-01-2020 04:04:18 10.1 C 26 %
2474 10-01-2020 04:14:18 10.2 C 26 %
2475 10-01-2020 04:24:18 10 C 26 %
Sensor: Nr:Datum:Temp:Feuchte:
Aussen-T/F 2476 10-01-2020 04:34:18 9.9 C 26 %
2477 10-01-2020 04:44:18 9.8 C 26 %
2478 10-01-2020 04:54:17 9.7 C 26 %
2479 10-01-2020 05:04:18 9.5 C 26 %
2480 10-01-2020 05:14:18 9.8 C 26 %
2481 10-01-2020 05:24:18 9.7 C 26 %
2482 10-01-2020 05:34:18 9.1 C 27 %
2483 10-01-2020 05:44:18 9.2 C 27 %
2484 10-01-2020 05:54:18 9.3 C 27 %
2485 10-01-2020 06:04:18 9.2 C 27 %
2486 10-01-2020 06:14:18 8.9 C 28 %
2487 10-01-2020 06:24:18 8.3 C 32 %
2488 10-01-2020 06:34:17 8 C 36 %
2489 10-01-2020 06:44:17 8 C 39 %
2490 10-01-2020 06:54:17 7.8 C 40 %
2491 10-01-2020 07:04:17 7.8 C 40 %
2492 10-01-2020 07:14:17 7.8 C 40 %
2493 10-01-2020 07:24:17 7.8 C 41 %
2494 10-01-2020 07:34:17 7.7 C 41 %
2495 10-01-2020 07:44:17 7.7 C 40 %
2496 10-01-2020 07:54:18 7.7 C 40 %
2497 10-01-2020 08:04:18 7.7 C 40 %
2498 10-01-2020 08:14:18 7.8 C 38 %
2499 10-01-2020 08:24:17 7.6 C 38 %
2500 10-01-2020 08:34:17 7.7 C 39 %
Sensor: Nr:Datum:Temp:Feuchte:
Aussen-T/F 2501 10-01-2020 08:44:17 8 C 35 %
2502 10-01-2020 08:54:17 8 C 35 %
2503 10-01-2020 09:04:17 8.5 C 32 %
2504 10-01-2020 09:14:17 8.4 C 32 %
2505 10-01-2020 09:24:17 8.7 C 31 %
2506 10-01-2020 09:34:17 8.9 C 31 %
2507 10-01-2020 09:44:17 9 C 30 %
2508 10-01-2020 09:54:17 9.1 C 30 %
2509 10-01-2020 10:04:18 9.1 C 30 %
2510 10-01-2020 10:14:18 9.1 C 30 %
2511 10-01-2020 10:24:18 9.2 C 30 %
2512 10-01-2020 10:34:17 9.2 C 30 %
2513 10-01-2020 10:44:17 9.5 C 30 %
2514 10-01-2020 10:54:18 9.5 C 29 %
2515 10-01-2020 11:04:18 10.2 C 26 %
2516 10-01-2020 11:14:18 10.2 C 26 %
2517 10-01-2020 11:24:17 10.2 C 26 %
2518 10-01-2020 11:34:17 10.4 C 26 %
2519 10-01-2020 11:44:17 10.3 C 26 %
2520 10-01-2020 11:54:17 10.7 C 26 %
2521 10-01-2020 12:04:17 10.8 C 26 %
2522 10-01-2020 12:14:17 11 C 26 %
2523 10-01-2020 12:24:17 10.1 C 27 %
2524 10-01-2020 12:34:17 10.4 C 27 %
2525 10-01-2020 12:44:17 10.6 C 26 %
Sensor: Nr:Datum:Temp:Feuchte:
Aussen-T/F 2526 10-01-2020 12:54:17 9.4 C 31 %
2527 10-01-2020 13:04:17 8.7 C 31 %
2528 10-01-2020 13:14:17 8.3 C 34 %
2529 10-01-2020 13:24:17 8.4 C 32 %
2530 10-01-2020 13:34:17 8.7 C 33 %
2531 10-01-2020 13:44:17 8.7 C 33 %
2532 10-01-2020 13:54:17 8.6 C 35 %
2533 10-01-2020 14:04:18 8.4 C 32 %
2534 10-01-2020 14:14:18 8.8 C 30 %
2535 10-01-2020 14:24:29 9 C 29 %
2536 10-01-2020 14:34:17 9 C 28 %
2537 10-01-2020 14:44:17 9 C 27 %
2538 10-01-2020 14:54:17 9 C 26 %
2539 10-01-2020 15:04:20 8.9 C 27 %
2540 10-01-2020 15:14:20 8.8 C 27 %
2541 10-01-2020 15:24:17 8.7 C 27 %
2542 10-01-2020 15:34:18 8.6 C 27 %
2543 10-01-2020 15:44:18 8.6 C 27 %
2544 10-01-2020 15:54:17 8.6 C 27 %
2545 10-01-2020 16:04:17 8.3 C 28 %
2546 10-01-2020 16:14:17 7.6 C 31 %
2547 10-01-2020 16:24:17 7.5 C 34 %
2548 10-01-2020 16:34:18 7.4 C 32 %
2549 10-01-2020 16:44:18 7.2 C 33 %
2550 10-01-2020 16:54:17 7 C 32 %
Sensor: Nr:Datum:Temp:Feuchte:
Aussen-T/F 2551 10-01-2020 17:04:18 6.7 C 34 %
2552 10-01-2020 17:14:18 6.8 C 34 %
2553 10-01-2020 17:24:17 6.9 C 32 %
2554 10-01-2020 17:34:18 6.7 C 32 %
2555 10-01-2020 17:44:18 6.6 C 32 %
2556 10-01-2020 17:54:17 6.9 C 31 %
2557 10-01-2020 18:04:17 7 C 31 %
2558 10-01-2020 18:14:17 7 C 30 %
2559 10-01-2020 18:24:18 6.8 C 31 %
2560 10-01-2020 18:34:17 7 C 30 %
2561 10-01-2020 18:44:17 7.1 C 30 %
2562 10-01-2020 18:54:17 6.6 C 32 %
2563 10-01-2020 19:04:17 6.5 C 33 %
2564 10-01-2020 19:14:18 6.3 C 35 %
2565 10-01-2020 19:24:17 6 C 37 %
2566 10-01-2020 19:34:17 6 C 36 %
2567 10-01-2020 19:44:17 5.9 C 39 %
2568 10-01-2020 19:54:17 5.8 C 36 %
2569 10-01-2020 20:04:17 5.9 C 38 %
2570 10-01-2020 20:14:18 6 C 34 %
2571 10-01-2020 20:24:17 6 C 34 %
2572 10-01-2020 20:34:18 6 C 32 %
2573 10-01-2020 20:44:18 6 C 31 %
2574 10-01-2020 20:54:17 6 C 31 %
2575 10-01-2020 21:04:17 6.1 C 30 %
Sensor: Nr:Datum:Temp:Feuchte:
Aussen-T/F 2576 10-01-2020 21:14:17 5.8 C 31 %
2577 10-01-2020 21:24:17 5.8 C 31 %
2578 10-01-2020 21:34:17 6 C 30 %
2579 10-01-2020 21:44:17 6.2 C 30 %
2580 10-01-2020 21:54:17 6 C 30 %
2581 10-01-2020 22:04:18 6.1 C 30 %
2582 10-01-2020 22:14:18 6.2 C 30 %
2583 10-01-2020 22:24:17 6.2 C 30 %
2584 10-01-2020 22:34:17 6.2 C 30 %
2585 10-01-2020 22:44:17 6.2 C 29 %
2586 10-01-2020 22:54:17 6.1 C 30 %
2587 10-01-2020 23:04:17 6.2 C 30 %
2588 10-01-2020 23:14:17 6.2 C 30 %
2589 10-01-2020 23:24:17 6.1 C 30 %
2590 10-01-2020 23:34:17 5.9 C 30 %
2591 10-01-2020 23:44:17 5.8 C 30 %
2592 10-01-2020 23:54:18 5.8 C 30 %
2593 11-01-2020 00:04:17 5.5 C 30 %
2594 11-01-2020 00:14:17 5.3 C 30 %
2595 11-01-2020 00:24:17 5.4 C 30 %
2596 11-01-2020 00:34:18 5 C 30 %
2597 11-01-2020 00:44:18 4.7 C 32 %
2598 11-01-2020 00:54:17 4.1 C 35 %
2599 11-01-2020 01:04:18 3.5 C 37 %
2600 11-01-2020 01:14:18 3.8 C 39 %
Sensor: Nr:Datum:Temp:Feuchte:
Aussen-T/F 2601 11-01-2020 01:24:17 4.1 C 38 %
2602 11-01-2020 01:34:17 4.3 C 36 %
2603 11-01-2020 01:44:17 4.5 C 36 %
2604 11-01-2020 01:54:17 4.3 C 35 %
2605 11-01-2020 02:04:17 3.7 C 38 %
2606 11-01-2020 02:14:17 3.7 C 39 %
2607 11-01-2020 02:24:17 3.3 C 39 %
2608 11-01-2020 02:34:18 2.7 C 41 %
2609 11-01-2020 02:44:18 2.9 C 42 %
2610 11-01-2020 02:54:17 3.2 C 42 %
2611 11-01-2020 03:04:18 3 C 41 %
2612 11-01-2020 03:14:18 2.6 C 41 %
2613 11-01-2020 03:24:17 2.3 C 44 %
2614 11-01-2020 03:34:17 2.9 C 45 %
2615 11-01-2020 03:44:17 3 C 43 %
2616 11-01-2020 03:54:17 2.9 C 44 %
2617 11-01-2020 04:04:17 2.9 C 44 %
2618 11-01-2020 04:14:17 3 C 43 %
2619 11-01-2020 04:24:17 3.1 C 44 %
2620 11-01-2020 04:34:18 3.4 C 40 %
2621 11-01-2020 04:44:18 3.3 C 40 %
2622 11-01-2020 04:54:17 3.3 C 40 %
2623 11-01-2020 05:04:18 3.1 C 39 %
2624 11-01-2020 05:14:18 2.9 C 40 %
2625 11-01-2020 05:24:17 2.7 C 41 %
Sensor: Nr:Datum:Temp:Feuchte:
Aussen-T/F 2626 11-01-2020 05:34:17 2.7 C 42 %
2627 11-01-2020 05:44:17 3 C 40 %
2628 11-01-2020 05:54:17 3 C 40 %
2629 11-01-2020 06:04:17 2.9 C 40 %
2630 11-01-2020 06:14:17 2.9 C 40 %
2631 11-01-2020 06:24:17 2.9 C 40 %
2632 11-01-2020 06:34:17 2.8 C 40 %
2633 11-01-2020 06:44:18 2.7 C 40 %
2634 11-01-2020 06:54:17 2.7 C 40 %
2635 11-01-2020 07:04:17 2.8 C 40 %
2636 11-01-2020 07:14:17 2.6 C 40 %
2637 11-01-2020 07:24:17 2.4 C 40 %
2638 11-01-2020 07:34:17 2.5 C 41 %
2639 11-01-2020 07:44:18 1.9 C 41 %
2640 11-01-2020 07:54:17 1 C 40 %
2641 11-01-2020 08:04:17 1 C 45 %
2642 11-01-2020 08:14:17 0.6 C 45 %
2643 11-01-2020 08:24:17 0.4 C 45 %
2644 11-01-2020 08:34:17 0.5 C 46 %
2645 11-01-2020 08:44:18 0.9 C 47 %
2646 11-01-2020 08:54:17 0.2 C 45 %
2647 11-01-2020 09:04:17 1 C 46 %
2648 11-01-2020 09:14:17 1 C 45 %
2649 11-01-2020 09:24:17 1.3 C 45 %
2650 11-01-2020 09:34:17 1.8 C 43 %
Sensor: Nr:Datum:Temp:Feuchte:
Aussen-T/F 2651 11-01-2020 09:44:17 1.9 C 40 %
2652 11-01-2020 09:54:18 1.9 C 40 %
2653 11-01-2020 10:04:18 2 C 38 %
2654 11-01-2020 10:14:18 2.2 C 38 %
2655 11-01-2020 10:24:17 2.4 C 38 %
2656 11-01-2020 10:34:17 2.4 C 37 %
2657 11-01-2020 10:44:17 2.5 C 37 %
2658 11-01-2020 10:54:18 2.7 C 38 %
2659 11-01-2020 11:04:17 3.4 C 37 %
2660 11-01-2020 11:14:17 4.1 C 34 %
2661 11-01-2020 11:24:17 4.1 C 32 %
2662 11-01-2020 11:34:18 4.4 C 30 %
2663 11-01-2020 11:44:18 4.9 C 30 %
2664 11-01-2020 11:54:17 5.5 C 29 %
2665 11-01-2020 12:04:17 5.9 C 29 %
2666 11-01-2020 12:14:17 6.2 C 28 %
2667 11-01-2020 12:24:17 6.6 C 23 %
2668 11-01-2020 12:34:18 7 C 20 %
2669 11-01-2020 12:44:18 7 C 20 %
2670 11-01-2020 12:54:17 7.3 C 20 %
2671 11-01-2020 13:04:17 7.2 C 20 %
2672 11-01-2020 13:14:17 7.2 C 20 %
2673 11-01-2020 13:24:18 7 C 20 %
2674 11-01-2020 13:34:17 7 C 20 %
2675 11-01-2020 13:44:17 6.9 C 20 %
Sensor: Nr:Datum:Temp:Feuchte:
Aussen-T/F 2676 11-01-2020 13:54:17 6.8 C 20 %
2677 11-01-2020 14:04:17 6.9 C 20 %
2678 11-01-2020 14:14:18 6.8 C 20 %
2679 11-01-2020 14:24:17 6.8 C 20 %
2680 11-01-2020 14:34:18 6.7 C 20 %
2681 11-01-2020 14:44:18 6.7 C 20 %
2682 11-01-2020 14:54:17 6.6 C 20 %
2683 11-01-2020 15:04:17 6.6 C 20 %
2684 11-01-2020 15:14:17 6.5 C 20 %
2685 11-01-2020 15:24:18 6.6 C 20 %
2686 11-01-2020 15:34:17 6.4 C 20 %
2687 11-01-2020 15:44:17 6.4 C 20 %
2688 11-01-2020 15:54:17 6.6 C 20 %
2689 11-01-2020 16:04:18 6.4 C 20 %
2690 11-01-2020 16:14:18 6.2 C 20 %
2691 11-01-2020 16:24:17 6.2 C 20 %
2692 11-01-2020 16:34:41 6.1 C 20 %
2693 11-01-2020 16:44:41 6.1 C 20 %
2694 11-01-2020 16:54:17 6 C 20 %
2695 11-01-2020 17:04:18 5.9 C 20 %
2696 11-01-2020 17:14:18 5.8 C 20 %
2697 11-01-2020 17:24:17 5.7 C 20 %
2698 11-01-2020 17:34:18 5.2 C 20 %
2699 11-01-2020 17:44:18 5.3 C 20 %
2700 11-01-2020 17:54:17 5 C 23 %
Sensor: Nr:Datum:Temp:Feuchte:
Aussen-T/F 2701 11-01-2020 18:04:17 5.1 C 20 %
2702 11-01-2020 18:14:17 5 C 20 %
2703 11-01-2020 18:24:17 4.5 C 26 %
2704 11-01-2020 18:34:17 4.1 C 27 %
2705 11-01-2020 18:44:17 3.9 C 30 %
2706 11-01-2020 18:54:17 3.8 C 31 %
2707 11-01-2020 19:04:17 3.6 C 31 %
2708 11-01-2020 19:14:17 3 C 33 %
2709 11-01-2020 19:24:17 2.8 C 35 %
2710 11-01-2020 19:34:17 2.7 C 35 %
2711 11-01-2020 19:44:17 2.7 C 34 %
2712 11-01-2020 19:54:17 2.8 C 34 %
2713 11-01-2020 20:04:17 2.5 C 34 %
2714 11-01-2020 20:14:18 2.4 C 35 %
2715 11-01-2020 20:24:17 2.4 C 34 %
2716 11-01-2020 20:34:17 1.9 C 36 %
2717 11-01-2020 20:44:17 2.2 C 36 %
2718 11-01-2020 20:54:17 2.1 C 36 %
2719 11-01-2020 21:04:17 2.1 C 36 %
2720 11-01-2020 21:14:17 1.9 C 37 %
2721 11-01-2020 21:24:17 1.7 C 37 %
2722 11-01-2020 21:34:17 1.5 C 38 %
2723 11-01-2020 21:44:17 1.1 C 40 %
2724 11-01-2020 21:54:17 1.5 C 40 %
2725 11-01-2020 22:04:17 1.3 C 40 %
Sensor: Nr:Datum:Temp:Feuchte:
Aussen-T/F 2726 11-01-2020 22:14:18 1.1 C 40 %
2727 11-01-2020 22:24:17 0.9 C 42 %
2728 11-01-2020 22:34:17 0.8 C 43 %
2729 11-01-2020 22:44:17 1.2 C 41 %
2730 11-01-2020 22:54:17 0.9 C 41 %
2731 11-01-2020 23:04:17 0.9 C 42 %
2732 11-01-2020 23:14:17 1.7 C 39 %
2733 11-01-2020 23:24:17 1.2 C 38 %
2734 11-01-2020 23:34:17 0.8 C 41 %
2735 11-01-2020 23:44:17 0.5 C 42 %
2736 11-01-2020 23:54:17 0.5 C 43 %
2737 12-01-2020 00:04:17 0.7 C 44 %
2738 12-01-2020 00:14:17 1.1 C 42 %
2739 12-01-2020 00:24:17 0.8 C 41 %
2740 12-01-2020 00:34:17 1.3 C 40 %
2741 12-01-2020 00:44:17 0.7 C 41 %
2742 12-01-2020 00:54:17 0.7 C 42 %
2743 12-01-2020 01:04:17 0.7 C 42 %
2744 12-01-2020 01:14:17 0.8 C 43 %
2745 12-01-2020 01:24:17 1.1 C 42 %
2746 12-01-2020 01:34:17 0.8 C 41 %
2747 12-01-2020 01:44:17 1.2 C 40 %
2748 12-01-2020 01:54:17 1.8 C 39 %
2749 12-01-2020 02:04:17 1.7 C 37 %
2750 12-01-2020 02:14:17 1.9 C 36 %
Sensor: Nr:Datum:Temp:Feuchte:
Aussen-T/F 2751 12-01-2020 02:24:17 1.9 C 36 %
2752 12-01-2020 02:34:17 1.8 C 37 %
2753 12-01-2020 02:44:17 1.9 C 35 %
2754 12-01-2020 02:54:17 1.4 C 37 %
2755 12-01-2020 03:04:17 2.2 C 35 %
2756 12-01-2020 03:14:17 1.5 C 37 %
2757 12-01-2020 03:24:17 1.7 C 36 %
2758 12-01-2020 03:34:17 1.4 C 37 %
2759 12-01-2020 03:44:17 1 C 40 %
2760 12-01-2020 03:54:17 1.5 C 41 %
2761 12-01-2020 04:04:17 1.4 C 41 %
2762 12-01-2020 04:14:17 1.5 C 40 %
2763 12-01-2020 04:24:17 1.8 C 41 %
2764 12-01-2020 04:34:17 2.1 C 38 %
2765 12-01-2020 04:44:17 2.3 C 37 %
2766 12-01-2020 04:54:17 2.7 C 35 %
2767 12-01-2020 05:04:17 3 C 33 %
2768 12-01-2020 05:14:18 3.3 C 31 %
2769 12-01-2020 05:24:17 3.2 C 31 %
2770 12-01-2020 05:34:17 3.2 C 31 %
2771 12-01-2020 05:44:17 3.5 C 31 %
2772 12-01-2020 05:54:17 3.6 C 30 %
2773 12-01-2020 06:04:18 3.7 C 30 %
2774 12-01-2020 06:14:18 3.6 C 30 %
2775 12-01-2020 06:24:17 3.6 C 30 %
Sensor: Nr:Datum:Temp:Feuchte:
Aussen-T/F 2776 12-01-2020 06:34:17 3.7 C 30 %
2777 12-01-2020 06:44:17 3.6 C 30 %
2778 12-01-2020 06:54:17 3.7 C 30 %
2779 12-01-2020 07:04:17 3.7 C 30 %
2780 12-01-2020 07:14:17 4.1 C 29 %
2781 12-01-2020 07:24:17 3.7 C 30 %
2782 12-01-2020 07:34:17 3.7 C 30 %
2783 12-01-2020 07:44:17 3.8 C 29 %
2784 12-01-2020 07:54:17 3.8 C 29 %
2785 12-01-2020 08:04:18 3.7 C 29 %
2786 12-01-2020 08:14:18 3.7 C 29 %
2787 12-01-2020 08:24:17 3.7 C 29 %
2788 12-01-2020 08:34:17 4 C 28 %
2789 12-01-2020 08:44:17 4.2 C 27 %
2790 12-01-2020 08:54:17 4.2 C 27 %
2791 12-01-2020 09:04:17 4.2 C 27 %
2792 12-01-2020 09:14:17 4.2 C 27 %
2793 12-01-2020 09:24:17 4.3 C 27 %
2794 12-01-2020 09:34:17 4.5 C 26 %
2795 12-01-2020 09:44:17 4.7 C 26 %
2796 12-01-2020 09:54:17 4.7 C 26 %
2797 12-01-2020 10:04:17 4.8 C 26 %
2798 12-01-2020 10:14:17 4.8 C 26 %
2799 12-01-2020 10:24:17 4.9 C 25 %
2800 12-01-2020 10:34:18 4.9 C 25 %
Sensor: Nr:Datum:Temp:Feuchte:
Aussen-T/F 2801 12-01-2020 10:44:18 4.9 C 25 %
2802 12-01-2020 10:54:17 5 C 25 %
2803 12-01-2020 11:04:17 5.3 C 23 %
2804 12-01-2020 11:14:17 5.3 C 23 %
2805 12-01-2020 11:24:18 5.3 C 23 %
2806 12-01-2020 11:34:17 5.3 C 23 %
2807 12-01-2020 11:44:17 5.3 C 23 %
2808 12-01-2020 11:54:17 5.5 C 23 %
2809 12-01-2020 12:04:18 5.7 C 23 %
2810 12-01-2020 12:14:18 5.8 C 23 %
2811 12-01-2020 12:24:17 6.1 C 21 %
2812 12-01-2020 12:34:17 6.4 C 21 %
2813 12-01-2020 12:44:17 6.1 C 21 %
2814 12-01-2020 12:54:17 6.1 C 21 %
2815 12-01-2020 13:04:18 6.2 C 21 %
2816 12-01-2020 13:14:18 6.3 C 21 %
2817 12-01-2020 13:24:17 6.5 C 21 %
2818 12-01-2020 13:34:17 6.8 C 21 %
2819 12-01-2020 13:44:17 6.7 C 23 %
2820 12-01-2020 13:54:18 6.7 C 23 %
2821 12-01-2020 14:04:17 6.9 C 21 %
2822 12-01-2020 14:14:17 6.8 C 23 %
2823 12-01-2020 14:24:17 6.9 C 23 %
2824 12-01-2020 14:34:18 6.9 C 25 %
2825 12-01-2020 14:44:18 6.8 C 25 %
Sensor: Nr:Datum:Temp:Feuchte:
Aussen-T/F 2826 12-01-2020 14:54:17 6.8 C 25 %
2827 12-01-2020 15:04:17 6.7 C 25 %
2828 12-01-2020 15:14:17 6.8 C 25 %
2829 12-01-2020 15:24:18 6.8 C 25 %
2830 12-01-2020 15:34:17 6.8 C 25 %
2831 12-01-2020 15:44:17 6.7 C 25 %
2832 12-01-2020 15:54:17 6.6 C 25 %
2833 12-01-2020 16:04:18 6.7 C 25 %
2834 12-01-2020 16:14:18 6.5 C 25 %
2835 12-01-2020 16:24:18 6.3 C 26 %
2836 12-01-2020 16:34:17 6.3 C 27 %
2837 12-01-2020 16:44:17 6.1 C 27 %
2838 12-01-2020 16:54:17 6.1 C 27 %
2839 12-01-2020 17:04:18 6.1 C 27 %
2840 12-01-2020 17:14:18 6 C 27 %
2841 12-01-2020 17:24:17 6 C 28 %
2842 12-01-2020 17:34:17 6 C 28 %
2843 12-01-2020 17:44:17 5.9 C 29 %
2844 12-01-2020 17:54:18 5.7 C 30 %
2845 12-01-2020 18:04:18 5.4 C 30 %
2846 12-01-2020 18:14:18 5.5 C 30 %
2847 12-01-2020 18:24:17 5.4 C 30 %
2848 12-01-2020 18:34:17 5.6 C 30 %
2849 12-01-2020 18:44:17 5.6 C 30 %
2850 12-01-2020 18:54:18 5.7 C 30 %
Sensor: Nr:Datum:Temp:Feuchte:
Aussen-T/F 2851 12-01-2020 19:04:17 5 C 31 %
2852 12-01-2020 19:14:17 4.7 C 34 %
2853 12-01-2020 19:24:17 4.9 C 36 %
2854 12-01-2020 19:34:18 5.6 C 33 %
2855 12-01-2020 19:44:18 5.9 C 32 %
2856 12-01-2020 19:54:17 6 C 31 %
2857 12-01-2020 20:04:18 6 C 31 %
2858 12-01-2020 20:14:18 5.9 C 31 %
2859 12-01-2020 20:24:17 5.7 C 32 %
2860 12-01-2020 20:34:17 5.6 C 32 %
2861 12-01-2020 20:44:17 5.8 C 33 %
2862 12-01-2020 20:54:17 6 C 32 %
2863 12-01-2020 21:04:17 6.1 C 32 %
2864 12-01-2020 21:14:17 6.2 C 32 %
2865 12-01-2020 21:24:17 6.2 C 32 %
2866 12-01-2020 21:34:18 6.1 C 32 %
2867 12-01-2020 21:44:18 6.5 C 31 %
2868 12-01-2020 21:54:17 6.5 C 31 %
2869 12-01-2020 22:04:18 6.4 C 31 %
2870 12-01-2020 22:14:18 6.3 C 32 %
2871 12-01-2020 22:24:17 6 C 32 %
2872 12-01-2020 22:34:17 6.3 C 32 %
2873 12-01-2020 22:44:17 6.2 C 33 %
2874 12-01-2020 22:54:17 5.8 C 33 %
2875 12-01-2020 23:04:17 5.6 C 36 %
Sensor: Nr:Datum:Temp:Feuchte:
Aussen-T/F 2876 12-01-2020 23:14:17 5.2 C 35 %
2877 12-01-2020 23:24:17 5 C 39 %
2878 12-01-2020 23:34:18 6 C 35 %
2879 12-01-2020 23:44:18 5.7 C 33 %
2880 12-01-2020 23:54:17 5.9 C 34 %
2881 13-01-2020 00:04:18 6.3 C 32 %
2882 13-01-2020 00:14:18 5.9 C 33 %
2883 13-01-2020 00:24:17 6.4 C 32 %
2884 13-01-2020 00:34:17 6.5 C 32 %
2885 13-01-2020 00:44:17 6.7 C 31 %
2886 13-01-2020 00:54:18 6.4 C 32 %
2887 13-01-2020 01:04:17 6.1 C 36 %
2888 13-01-2020 01:14:17 5.9 C 37 %
2889 13-01-2020 01:24:17 5.7 C 40 %
2890 13-01-2020 01:34:18 5.6 C 41 %
2891 13-01-2020 01:44:18 5.6 C 42 %
2892 13-01-2020 01:54:17 5.7 C 40 %
2893 13-01-2020 02:04:17 5.9 C 39 %
2894 13-01-2020 02:14:17 5.9 C 38 %
2895 13-01-2020 02:24:18 6 C 36 %
2896 13-01-2020 02:34:17 5.7 C 37 %
2897 13-01-2020 02:44:17 5.9 C 37 %
2898 13-01-2020 02:54:17 5.6 C 39 %
2899 13-01-2020 03:04:18 5.6 C 40 %
2900 13-01-2020 03:14:18 5.7 C 39 %
Sensor: Nr:Datum:Temp:Feuchte:
Aussen-T/F 2901 13-01-2020 03:24:17 5.1 C 38 %
2902 13-01-2020 03:34:17 4.7 C 41 %
2903 13-01-2020 03:44:17 4 C 41 %
2904 13-01-2020 03:54:17 4.1 C 42 %
2905 13-01-2020 04:04:17 3.5 C 44 %
2906 13-01-2020 04:14:17 3.5 C 44 %
2907 13-01-2020 04:24:17 4 C 43 %
2908 13-01-2020 04:34:18 4.1 C 43 %
2909 13-01-2020 04:44:18 3.7 C 43 %
2910 13-01-2020 04:54:17 4 C 43 %
2911 13-01-2020 05:04:18 4.3 C 43 %
2912 13-01-2020 05:14:18 4.3 C 42 %
2913 13-01-2020 05:24:18 4.5 C 42 %
2914 13-01-2020 05:34:17 4.6 C 42 %
2915 13-01-2020 05:44:17 4.6 C 42 %
2916 13-01-2020 05:54:17 4.9 C 42 %
2917 13-01-2020 06:04:17 4.9 C 42 %
2918 13-01-2020 06:14:17 4.8 C 40 %
2919 13-01-2020 06:24:17 4.6 C 40 %
2920 13-01-2020 06:34:17 4.2 C 40 %
2921 13-01-2020 06:44:17 4.7 C 41 %
2922 13-01-2020 06:54:17 4.7 C 40 %
2923 13-01-2020 07:04:17 4.4 C 37 %
2924 13-01-2020 07:14:17 4.1 C 38 %
2925 13-01-2020 07:24:18 4.2 C 39 %
Sensor: Nr:Datum:Temp:Feuchte:
Aussen-T/F 2926 13-01-2020 07:34:17 3.9 C 41 %
2927 13-01-2020 07:44:17 3.9 C 42 %
2928 13-01-2020 07:54:17 3.8 C 42 %
2929 13-01-2020 08:04:18 3.9 C 42 %
2930 13-01-2020 08:14:18 4.3 C 40 %
2931 13-01-2020 08:24:17 4.2 C 40 %
2932 13-01-2020 08:34:17 4.7 C 40 %
2933 13-01-2020 08:44:17 4.8 C 38 %
2934 13-01-2020 08:54:17 4.9 C 38 %
2935 13-01-2020 09:04:17 5.2 C 36 %
2936 13-01-2020 09:14:17 5.4 C 35 %
2937 13-01-2020 09:24:17 5.6 C 34 %
2938 13-01-2020 09:34:18 5.7 C 33 %
2939 13-01-2020 09:44:18 5.8 C 33 %
2940 13-01-2020 09:54:18 5.9 C 33 %
2941 13-01-2020 10:04:17 5.9 C 34 %
2942 13-01-2020 10:14:17 6.2 C 32 %
2943 13-01-2020 10:24:17 6.4 C 32 %
2944 13-01-2020 10:34:18 6.7 C 31 %
2945 13-01-2020 10:44:18 6.8 C 31 %
2946 13-01-2020 10:54:17 6.8 C 31 %
2947 13-01-2020 11:04:17 6.9 C 31 %
2948 13-01-2020 11:14:17 7.1 C 30 %
2949 13-01-2020 11:24:17 7.5 C 29 %
2950 13-01-2020 11:34:17 7.8 C 29 %
Sensor: Nr:Datum:Temp:Feuchte:
Aussen-T/F 2951 13-01-2020 11:44:17 7.8 C 29 %
2952 13-01-2020 11:54:17 7.9 C 29 %
2953 13-01-2020 12:04:18 8 C 29 %
2954 13-01-2020 12:14:18 8 C 28 %
2955 13-01-2020 12:24:18 8.1 C 28 %
2956 13-01-2020 12:34:17 8.1 C 28 %
2957 13-01-2020 12:44:18 8.1 C 28 %
2958 13-01-2020 12:54:17 7.8 C 28 %
2959 13-01-2020 13:04:17 7.4 C 30 %
2960 13-01-2020 13:14:17 7.3 C 30 %
2961 13-01-2020 13:24:17 7.3 C 30 %
2962 13-01-2020 13:34:17 7.5 C 30 %
2963 13-01-2020 13:44:17 7.7 C 30 %
2964 13-01-2020 13:54:17 6.9 C 33 %
2965 13-01-2020 14:04:17 6.9 C 36 %
2966 13-01-2020 14:14:17 7 C 36 %
2967 13-01-2020 14:24:17 7.3 C 35 %
2968 13-01-2020 14:34:17 7.3 C 33 %
2969 13-01-2020 14:44:17 7.3 C 31 %
2970 13-01-2020 14:54:17 7 C 30 %
2971 13-01-2020 15:04:18 7.2 C 31 %
2972 13-01-2020 15:14:18 7.5 C 29 %
2973 13-01-2020 15:24:17 7.5 C 28 %
2974 13-01-2020 15:34:17 7.5 C 28 %
2975 13-01-2020 15:44:17 7.4 C 28 %
Sensor: Nr:Datum:Temp:Feuchte:
Aussen-T/F 2976 13-01-2020 15:54:17 7.4 C 27 %
2977 13-01-2020 16:04:17 7.2 C 29 %
2978 13-01-2020 16:14:17 7.1 C 28 %
2979 13-01-2020 16:24:17 7 C 29 %
2980 13-01-2020 16:34:17 6.9 C 30 %
2981 13-01-2020 16:44:17 6.6 C 30 %
2982 13-01-2020 16:54:17 6.7 C 30 %
2983 13-01-2020 17:04:18 6.6 C 31 %
2984 13-01-2020 17:14:18 6.5 C 30 %
2985 13-01-2020 17:24:17 6.2 C 31 %
2986 13-01-2020 17:34:18 5.8 C 32 %
2987 13-01-2020 17:44:18 5.4 C 33 %
2988 13-01-2020 17:54:17 5.3 C 35 %
2989 13-01-2020 18:04:17 5.3 C 36 %
2990 13-01-2020 18:14:17 5.3 C 36 %
2991 13-01-2020 18:24:18 5.6 C 35 %
2992 13-01-2020 18:34:17 5.7 C 34 %
2993 13-01-2020 18:44:17 5.6 C 34 %
2994 13-01-2020 18:54:17 5.3 C 35 %
2995 13-01-2020 19:04:18 5.5 C 35 %
2996 13-01-2020 19:14:18 5.8 C 34 %
2997 13-01-2020 19:24:17 5.9 C 33 %
2998 13-01-2020 19:34:17 6.2 C 31 %
2999 13-01-2020 19:44:17 6.1 C 32 %
3000 13-01-2020 19:54:17 5.6 C 34 %
Sensor: Nr:Datum:Temp:Feuchte:
Aussen-T/F 3001 13-01-2020 20:04:17 5.6 C 35 %
3002 13-01-2020 20:14:17 5.5 C 35 %
3003 13-01-2020 20:24:17 5.5 C 35 %
3004 13-01-2020 20:34:18 5.6 C 35 %
3005 13-01-2020 20:44:18 5.7 C 35 %
3006 13-01-2020 20:54:17 5.7 C 35 %
3007 13-01-2020 21:04:17 5.7 C 35 %
3008 13-01-2020 21:14:17 5.7 C 35 %
3009 13-01-2020 21:24:17 5.4 C 36 %
3010 13-01-2020 21:34:17 5.6 C 37 %
3011 13-01-2020 21:44:17 5.5 C 36 %
3012 13-01-2020 21:54:17 5.4 C 37 %
3013 13-01-2020 22:04:18 5.6 C 37 %
3014 13-01-2020 22:14:18 5.7 C 37 %
3015 13-01-2020 22:24:17 5.9 C 36 %
3016 13-01-2020 22:34:17 6 C 35 %
3017 13-01-2020 22:44:17 6.1 C 34 %
3018 13-01-2020 22:54:18 6.3 C 34 %
3019 13-01-2020 23:04:17 6.2 C 35 %
3020 13-01-2020 23:14:17 6 C 35 %
3021 13-01-2020 23:24:17 6 C 35 %
3022 13-01-2020 23:34:17 6.2 C 35 %
3023 13-01-2020 23:44:17 6.1 C 37 %
3024 13-01-2020 23:54:17 6.3 C 36 %
3025 14-01-2020 00:04:18 6.4 C 36 %
Sensor: Nr:Datum:Temp:Feuchte:
Aussen-T/F 3026 14-01-2020 00:14:18 6.5 C 35 %
3027 14-01-2020 00:24:18 6.7 C 35 %
3028 14-01-2020 00:34:17 6.5 C 35 %
3029 14-01-2020 00:44:17 6.6 C 35 %
3030 14-01-2020 00:54:17 6.5 C 35 %
3031 14-01-2020 01:04:18 6.3 C 36 %
3032 14-01-2020 01:14:18 6 C 36 %
3033 14-01-2020 01:24:17 5.8 C 38 %
3034 14-01-2020 01:34:17 5.6 C 40 %
3035 14-01-2020 01:44:17 6.1 C 37 %
3036 14-01-2020 01:54:17 6 C 36 %
3037 14-01-2020 02:04:17 6.2 C 35 %
3038 14-01-2020 02:14:17 6.5 C 33 %
3039 14-01-2020 02:24:17 6.5 C 32 %
3040 14-01-2020 02:34:18 6.4 C 32 %
3041 14-01-2020 02:44:18 6.3 C 33 %
3042 14-01-2020 02:54:17 6.4 C 32 %
3043 14-01-2020 03:04:17 6.5 C 32 %
3044 14-01-2020 03:14:17 6.7 C 32 %
3045 14-01-2020 03:24:17 6.6 C 31 %
3046 14-01-2020 03:34:17 6.5 C 31 %
3047 14-01-2020 03:44:17 6.7 C 30 %
3048 14-01-2020 03:54:17 7 C 30 %
3049 14-01-2020 04:04:18 7.1 C 30 %
3050 14-01-2020 04:14:18 6.8 C 30 %
Sensor: Nr:Datum:Temp:Feuchte:
Aussen-T/F 3051 14-01-2020 04:24:17 6.7 C 30 %
3052 14-01-2020 04:34:17 6.5 C 31 %
3053 14-01-2020 04:44:17 6.6 C 32 %
3054 14-01-2020 04:54:17 6.6 C 31 %
3055 14-01-2020 05:04:17 7.2 C 29 %
3056 14-01-2020 05:14:17 7.3 C 28 %
3057 14-01-2020 05:24:17 7.6 C 27 %
3058 14-01-2020 05:34:17 7.4 C 28 %
3059 14-01-2020 05:44:17 7.2 C 27 %
3060 14-01-2020 05:54:18 7.2 C 27 %
3061 14-01-2020 06:04:17 7.3 C 27 %
3062 14-01-2020 06:14:17 7.3 C 27 %
3063 14-01-2020 06:24:17 6.9 C 29 %
3064 14-01-2020 06:34:18 7 C 28 %
3065 14-01-2020 06:44:18 7.2 C 27 %
3066 14-01-2020 06:54:17 7.2 C 27 %
3067 14-01-2020 07:04:17 7.3 C 26 %
3068 14-01-2020 07:14:17 6.8 C 28 %
3069 14-01-2020 07:24:17 7 C 27 %
3070 14-01-2020 07:34:18 6.9 C 28 %
3071 14-01-2020 07:44:18 7.1 C 26 %
3072 14-01-2020 07:54:17 7.3 C 26 %
3073 14-01-2020 08:04:17 7.6 C 25 %
3074 14-01-2020 08:14:17 8 C 25 %
3075 14-01-2020 08:24:17 7.9 C 25 %
Sensor: Nr:Datum:Temp:Feuchte:
Aussen-T/F 3076 14-01-2020 08:34:17 7.9 C 25 %
3077 14-01-2020 08:44:17 7.9 C 25 %
3078 14-01-2020 08:54:18 8.1 C 25 %
3079 14-01-2020 09:04:18 8.5 C 23 %
3080 14-01-2020 09:14:18 8.3 C 25 %
3081 14-01-2020 09:24:17 8.6 C 25 %
3082 14-01-2020 09:34:17 8.4 C 25 %
3083 14-01-2020 09:44:17 8.7 C 25 %
3084 14-01-2020 09:54:17 8.9 C 25 %
3085 14-01-2020 10:04:18 9.4 C 21 %
3086 14-01-2020 10:14:18 9.5 C 20 %
3087 14-01-2020 10:24:18 9.2 C 20 %
3088 14-01-2020 10:34:18 9.1 C 20 %
3089 14-01-2020 10:44:18 9.1 C 21 %
3090 14-01-2020 10:54:17 9.2 C 20 %
3091 14-01-2020 11:04:17 9.4 C 20 %
3092 14-01-2020 11:14:17 9.5 C 20 %
3093 14-01-2020 11:24:17 9.8 C 20 %
3094 14-01-2020 11:34:18 9.9 C 20 %
3095 14-01-2020 11:44:18 9.9 C 20 %
3096 14-01-2020 11:54:17 9.7 C 20 %
3097 14-01-2020 12:04:17 9.8 C 20 %
3098 14-01-2020 12:14:17 9.8 C 20 %
3099 14-01-2020 12:24:17 10 C 20 %
3100 14-01-2020 12:34:17 10.1 C 20 %
Sensor: Nr:Datum:Temp:Feuchte:
Aussen-T/F 3101 14-01-2020 12:44:17 10.1 C 20 %
3102 14-01-2020 12:54:18 10.2 C 20 %
3103 14-01-2020 13:04:18 10.2 C 20 %
3104 14-01-2020 13:14:18 10.1 C 20 %
3105 14-01-2020 13:24:18 10.4 C 20 %
3106 14-01-2020 13:34:17 10.5 C 20 %
3107 14-01-2020 13:44:17 10.8 C 20 %
3108 14-01-2020 13:54:17 11.5 C 20 %
3109 14-01-2020 14:04:17 12 C 20 %
3110 14-01-2020 14:14:17 12.1 C 20 %
3111 14-01-2020 14:24:17 12.1 C 20 %
3112 14-01-2020 14:34:17 12 C 20 %
3113 14-01-2020 14:44:17 12 C 20 %
3114 14-01-2020 14:54:17 12 C 20 %
3115 14-01-2020 15:04:17 12.2 C 20 %
3116 14-01-2020 15:14:17 12.2 C 20 %
3117 14-01-2020 15:24:17 12.1 C 20 %
3118 14-01-2020 15:34:18 11.9 C 20 %
3119 14-01-2020 15:44:18 11.5 C 20 %
3120 14-01-2020 15:54:17 11.1 C 20 %
3121 14-01-2020 16:04:18 10.8 C 20 %
3122 14-01-2020 16:14:18 11.1 C 20 %
3123 14-01-2020 16:24:17 10.9 C 20 %
3124 14-01-2020 16:34:18 10.6 C 20 %
3125 14-01-2020 16:44:18 10.7 C 20 %
Sensor: Nr:Datum:Temp:Feuchte:
Aussen-T/F 3126 14-01-2020 16:54:17 10.8 C 20 %
3127 14-01-2020 17:04:17 10.7 C 20 %
3128 14-01-2020 17:14:18 10.7 C 20 %
3129 14-01-2020 17:24:17 10.6 C 20 %
3130 14-01-2020 17:34:17 10.6 C 20 %
3131 14-01-2020 17:44:17 11 C 20 %
3132 14-01-2020 17:54:18 10.7 C 20 %
3133 14-01-2020 18:04:17 10.7 C 20 %
3134 14-01-2020 18:14:17 10.9 C 20 %
3135 14-01-2020 18:24:17 10.4 C 20 %
3136 14-01-2020 18:34:18 10.5 C 20 %
3137 14-01-2020 18:44:18 10.8 C 20 %
3138 14-01-2020 18:54:17 11.1 C 20 %
3139 14-01-2020 19:04:17 11.2 C 20 %
3140 14-01-2020 19:14:17 11 C 20 %
3141 14-01-2020 19:24:17 10.9 C 20 %
3142 14-01-2020 19:34:17 10.9 C 20 %
3143 14-01-2020 19:44:17 11 C 20 %
3144 14-01-2020 19:54:17 10.7 C 20 %
3145 14-01-2020 20:04:18 10.8 C 20 %
3146 14-01-2020 20:14:18 10.8 C 20 %
3147 14-01-2020 20:24:18 11 C 20 %
3148 14-01-2020 20:34:17 11.5 C 20 %
3149 14-01-2020 20:44:17 11.5 C 20 %
3150 14-01-2020 20:54:17 11.5 C 20 %
Sensor: Nr:Datum:Temp:Feuchte:
Aussen-T/F 3151 14-01-2020 21:04:18 11.7 C 20 %
3152 14-01-2020 21:14:18 11.4 C 20 %
3153 14-01-2020 21:24:17 11.6 C 20 %
3154 14-01-2020 21:34:18 12.2 C 20 %
3155 14-01-2020 21:44:18 11.7 C 20 %
3156 14-01-2020 21:54:18 11.5 C 20 %
3157 14-01-2020 22:04:17 11.7 C 20 %
3158 14-01-2020 22:14:17 11.7 C 20 %
3159 14-01-2020 22:24:17 11.4 C 20 %
3160 14-01-2020 22:34:18 11.7 C 20 %
3161 14-01-2020 22:44:18 11.1 C 20 %
3162 14-01-2020 22:54:17 11.3 C 20 %
3163 14-01-2020 23:04:18 11.7 C 20 %
3164 14-01-2020 23:14:18 11.6 C 20 %
3165 14-01-2020 23:24:17 11.8 C 20 %
3166 14-01-2020 23:34:18 11.7 C 20 %
3167 14-01-2020 23:44:18 11.3 C 20 %
3168 14-01-2020 23:54:17 11.2 C 20 %
3169 15-01-2020 00:04:17 11.3 C 20 %
3170 15-01-2020 00:14:17 11.1 C 20 %
3171 15-01-2020 00:24:17 11.8 C 20 %
3172 15-01-2020 00:34:18 11.5 C 20 %
3173 15-01-2020 00:44:18 11.2 C 20 %
3174 15-01-2020 00:54:17 11.3 C 20 %
3175 15-01-2020 01:04:17 11.3 C 20 %
Sensor: Nr:Datum:Temp:Feuchte:
Aussen-T/F 3176 15-01-2020 01:14:17 11.1 C 20 %
3177 15-01-2020 01:24:17 10.8 C 20 %
3178 15-01-2020 01:34:18 10.9 C 20 %
3179 15-01-2020 01:44:18 11 C 20 %
3180 15-01-2020 01:54:17 10.8 C 20 %
3181 15-01-2020 02:04:18 10.3 C 20 %
3182 15-01-2020 02:14:18 10.2 C 20 %
3183 15-01-2020 02:24:18 10.2 C 20 %
3184 15-01-2020 02:34:17 10.2 C 20 %
3185 15-01-2020 02:44:17 10 C 20 %
3186 15-01-2020 02:54:17 9.8 C 20 %
3187 15-01-2020 03:04:18 9.6 C 23 %
3188 15-01-2020 03:14:18 9.9 C 23 %
3189 15-01-2020 03:24:17 10 C 21 %
3190 15-01-2020 03:34:17 9.4 C 25 %
3191 15-01-2020 03:44:17 9.3 C 26 %
3192 15-01-2020 03:54:17 9.2 C 27 %
3193 15-01-2020 04:04:18 9.1 C 27 %
3194 15-01-2020 04:14:18 9.1 C 27 %
3195 15-01-2020 04:24:17 9 C 27 %
3196 15-01-2020 04:34:17 8.7 C 29 %
3197 15-01-2020 04:44:17 8.5 C 28 %
3198 15-01-2020 04:54:17 8.2 C 28 %
3199 15-01-2020 05:04:17 8.3 C 28 %
3200 15-01-2020 05:14:17 8.6 C 27 %
Sensor: Nr:Datum:Temp:Feuchte:
Aussen-T/F 3201 15-01-2020 05:24:17 9.2 C 25 %
3202 15-01-2020 05:34:17 9.7 C 25 %
3203 15-01-2020 05:44:17 9.6 C 25 %
3204 15-01-2020 05:54:17 9.8 C 23 %
3205 15-01-2020 06:04:17 9.8 C 21 %
3206 15-01-2020 06:14:17 9.7 C 21 %
3207 15-01-2020 06:24:17 9.8 C 20 %
3208 15-01-2020 06:34:18 9.1 C 20 %
3209 15-01-2020 06:44:18 8.7 C 21 %
3210 15-01-2020 06:54:17 8 C 25 %
3211 15-01-2020 07:04:17 7.5 C 25 %
3212 15-01-2020 07:14:17 7.3 C 26 %
3213 15-01-2020 07:24:17 7 C 27 %
3214 15-01-2020 07:34:18 7 C 27 %
3215 15-01-2020 07:44:18 7 C 27 %
3216 15-01-2020 07:54:18 6.2 C 29 %
3217 15-01-2020 08:04:17 6 C 31 %
3218 15-01-2020 08:14:18 5.8 C 31 %
3219 15-01-2020 08:24:17 5.8 C 31 %
3220 15-01-2020 08:34:17 5.7 C 32 %
3221 15-01-2020 08:44:17 6.3 C 30 %
3222 15-01-2020 08:54:17 6.7 C 30 %
3223 15-01-2020 09:04:18 6.6 C 30 %
3224 15-01-2020 09:14:18 6.6 C 29 %
3225 15-01-2020 09:24:17 6.9 C 29 %
Sensor: Nr:Datum:Temp:Feuchte:
Aussen-T/F 3226 15-01-2020 09:34:18 6.6 C 29 %
3227 15-01-2020 09:44:18 6.8 C 30 %
3228 15-01-2020 09:54:18 7.1 C 28 %
3229 15-01-2020 10:04:18 7.5 C 27 %
3230 15-01-2020 10:14:18 7.6 C 27 %
3231 15-01-2020 10:24:17 7.7 C 27 %
3232 15-01-2020 10:34:18 7.3 C 27 %
3233 15-01-2020 10:44:18 7.4 C 27 %
3234 15-01-2020 10:54:17 8.3 C 27 %
3235 15-01-2020 11:04:17 9.1 C 25 %
3236 15-01-2020 11:14:17 9.7 C 20 %
3237 15-01-2020 11:24:17 10 C 20 %
3238 15-01-2020 11:34:17 10.9 C 20 %
3239 15-01-2020 11:44:17 10.9 C 20 %
3240 15-01-2020 11:54:17 11 C 20 %
3241 15-01-2020 12:04:18 11.2 C 20 %
3242 15-01-2020 12:14:18 11.6 C 20 %
3243 15-01-2020 12:24:17 11.6 C 20 %
3244 15-01-2020 12:34:18 11.5 C 20 %
3245 15-01-2020 12:44:18 11.1 C 20 %
3246 15-01-2020 12:54:18 11.6 C 20 %
3247 15-01-2020 13:04:18 12 C 20 %
3248 15-01-2020 13:14:18 12.2 C 20 %
3249 15-01-2020 13:24:18 12.5 C 20 %
3250 15-01-2020 13:34:17 12.5 C 20 %
Sensor: Nr:Datum:Temp:Feuchte:
Aussen-T/F 3251 15-01-2020 13:44:17 12.2 C 20 %
3252 15-01-2020 13:54:17 11.8 C 20 %
3253 15-01-2020 14:04:17 11.4 C 20 %
3254 15-01-2020 14:14:17 11.2 C 20 %
3255 15-01-2020 14:24:17 11.6 C 20 %
3256 15-01-2020 14:34:18 11.7 C 20 %
3257 15-01-2020 14:44:18 12 C 20 %
3258 15-01-2020 14:54:18 12.7 C 20 %
3259 15-01-2020 15:04:17 13.1 C 20 %
3260 15-01-2020 15:14:17 13.1 C 20 %
3261 15-01-2020 15:24:17 13.1 C 20 %
3262 15-01-2020 15:34:17 13.2 C 20 %
3263 15-01-2020 15:44:17 12.9 C 20 %
3264 15-01-2020 15:54:17 13.2 C 20 %
3265 15-01-2020 16:04:17 12.9 C 20 %
3266 15-01-2020 16:14:17 12.7 C 20 %
3267 15-01-2020 16:24:17 12.5 C 20 %
3268 15-01-2020 16:34:18 12.6 C 20 %
3269 15-01-2020 16:44:18 12.1 C 20 %
3270 15-01-2020 16:54:17 12 C 20 %
3271 15-01-2020 17:04:18 11.8 C 20 %
3272 15-01-2020 17:14:18 11.7 C 20 %
3273 15-01-2020 17:24:17 11.9 C 20 %
3274 15-01-2020 17:34:18 11.9 C 20 %
3275 15-01-2020 17:44:18 11.4 C 20 %
Sensor: Nr:Datum:Temp:Feuchte:
Aussen-T/F 3276 15-01-2020 17:54:18 11.2 C 20 %
3277 15-01-2020 18:04:17 11.2 C 20 %
3278 15-01-2020 18:14:17 11.2 C 20 %
3279 15-01-2020 18:24:17 11.2 C 20 %
3280 15-01-2020 18:34:17 11.8 C 20 %
3281 15-01-2020 18:44:17 11.9 C 20 %
3282 15-01-2020 18:54:17 12.2 C 20 %
3283 15-01-2020 19:04:18 12 C 20 %
3284 15-01-2020 19:14:18 12.2 C 20 %
3285 15-01-2020 19:24:18 12 C 20 %
3286 15-01-2020 19:34:17 12.5 C 20 %
3287 15-01-2020 19:44:17 12.9 C 20 %
3288 15-01-2020 19:54:18 12.9 C 20 %
3289 15-01-2020 20:04:17 13 C 20 %
3290 15-01-2020 20:14:18 12.8 C 20 %
3291 15-01-2020 20:24:17 12.7 C 20 %
3292 15-01-2020 20:34:17 12.5 C 20 %
3293 15-01-2020 20:44:17 12.7 C 20 %
3294 15-01-2020 20:54:17 12.6 C 20 %
3295 15-01-2020 21:04:18 12.7 C 20 %
3296 15-01-2020 21:14:18 12.8 C 20 %
3297 15-01-2020 21:24:18 12.5 C 20 %
3298 15-01-2020 21:34:17 12.4 C 20 %
3299 15-01-2020 21:44:17 10.8 C 25 %
3300 15-01-2020 21:54:17 10.2 C 28 %
Sensor: Nr:Datum:Temp:Feuchte:
Aussen-T/F 3301 15-01-2020 22:04:18 10.1 C 30 %
3302 15-01-2020 22:14:18 9.8 C 35 %
3303 15-01-2020 22:24:18 9.4 C 38 %
3304 15-01-2020 22:34:17 9.3 C 40 %
3305 15-01-2020 22:44:17 9.3 C 40 %
3306 15-01-2020 22:54:17 9.1 C 40 %
3307 15-01-2020 23:04:18 9.1 C 40 %
3308 15-01-2020 23:14:18 9.1 C 38 %
3309 15-01-2020 23:24:17 9.1 C 36 %
3310 15-01-2020 23:34:17 8.9 C 37 %
3311 15-01-2020 23:44:17 8.6 C 36 %
3312 15-01-2020 23:54:17 8.4 C 37 %
3313 16-01-2020 00:04:17 8.7 C 34 %
3314 16-01-2020 00:14:17 8.4 C 36 %
3315 16-01-2020 00:24:17 9.2 C 33 %
3316 16-01-2020 00:34:17 8.6 C 36 %
3317 16-01-2020 00:44:17 8.7 C 37 %
3318 16-01-2020 00:54:18 8.8 C 37 %
3319 16-01-2020 01:04:17 8.9 C 37 %
3320 16-01-2020 01:14:17 9 C 36 %
3321 16-01-2020 01:24:17 9.1 C 35 %
3322 16-01-2020 01:34:18 9 C 36 %
3323 16-01-2020 01:44:18 8.9 C 37 %
3324 16-01-2020 01:54:17 8.6 C 38 %
3325 16-01-2020 02:04:17 8.6 C 40 %
Sensor: Nr:Datum:Temp:Feuchte:
Aussen-T/F 3326 16-01-2020 02:14:17 8.6 C 39 %
3327 16-01-2020 02:24:17 8.8 C 37 %
3328 16-01-2020 02:34:17 8.7 C 38 %
3329 16-01-2020 02:44:18 8.6 C 42 %
3330 16-01-2020 02:54:17 8.7 C 42 %
3331 16-01-2020 03:04:18 8.6 C 42 %
3332 16-01-2020 03:14:18 8.6 C 42 %
3333 16-01-2020 03:24:18 8.7 C 43 %
3334 16-01-2020 03:34:17 8.6 C 42 %
3335 16-01-2020 03:44:17 8.6 C 42 %
3336 16-01-2020 03:54:17 8.7 C 42 %
3337 16-01-2020 04:04:18 8.7 C 42 %
3338 16-01-2020 04:14:18 8.6 C 42 %
3339 16-01-2020 04:24:17 8.6 C 42 %
3340 16-01-2020 04:34:18 8.4 C 42 %
3341 16-01-2020 04:44:18 8.2 C 42 %
3342 16-01-2020 04:54:17 8.2 C 42 %
3343 16-01-2020 05:04:17 8.3 C 42 %
3344 16-01-2020 05:14:17 8.1 C 42 %
3345 16-01-2020 05:24:17 8.1 C 42 %
3346 16-01-2020 05:34:17 7.7 C 42 %
3347 16-01-2020 05:44:17 7.1 C 42 %
3348 16-01-2020 05:54:17 7.9 C 42 %
3349 16-01-2020 06:04:17 8 C 42 %
3350 16-01-2020 06:14:17 7.6 C 42 %
Sensor: Nr:Datum:Temp:Feuchte:
Aussen-T/F 3351 16-01-2020 06:24:17 7.2 C 41 %
3352 16-01-2020 06:34:18 7.1 C 42 %
3353 16-01-2020 06:44:18 7.3 C 42 %
3354 16-01-2020 06:54:17 6.8 C 42 %
3355 16-01-2020 07:04:17 6.2 C 41 %
3356 16-01-2020 07:14:17 5.6 C 42 %
3357 16-01-2020 07:24:17 6 C 42 %
3358 16-01-2020 07:34:18 6.7 C 43 %
3359 16-01-2020 07:44:18 6.9 C 42 %
3360 16-01-2020 07:54:17 6.9 C 42 %
3361 16-01-2020 08:04:17 6.7 C 42 %
3362 16-01-2020 08:14:17 6.4 C 42 %
3363 16-01-2020 08:24:17 5.9 C 42 %
3364 16-01-2020 08:34:17 5.9 C 42 %
3365 16-01-2020 08:44:17 5.6 C 42 %
3366 16-01-2020 08:54:18 5.4 C 42 %
3367 16-01-2020 09:04:17 5.2 C 42 %
3368 16-01-2020 09:14:17 5.2 C 42 %
3369 16-01-2020 09:24:17 5.6 C 42 %
3370 16-01-2020 09:34:17 5.4 C 42 %
3371 16-01-2020 09:44:17 5.7 C 42 %
3372 16-01-2020 09:54:17 6.3 C 42 %
3373 16-01-2020 10:04:17 6.5 C 42 %
3374 16-01-2020 10:14:17 6.5 C 42 %
3375 16-01-2020 10:24:17 6.7 C 42 %
Sensor: Nr:Datum:Temp:Feuchte:
Aussen-T/F 3376 16-01-2020 10:34:17 6.9 C 42 %
3377 16-01-2020 10:44:17 6.8 C 42 %
3378 16-01-2020 10:54:18 7.1 C 41 %
3379 16-01-2020 11:04:17 6.9 C 41 %
3380 16-01-2020 11:14:17 6.7 C 41 %
3381 16-01-2020 11:24:17 6.8 C 41 %
3382 16-01-2020 11:34:17 6.9 C 41 %
3383 16-01-2020 11:44:17 6.8 C 41 %
3384 16-01-2020 11:54:17 6.8 C 41 %
3385 16-01-2020 12:04:18 6.7 C 41 %
3386 16-01-2020 12:14:18 6.5 C 41 %
3387 16-01-2020 12:24:17 6.3 C 41 %
3388 16-01-2020 12:34:17 6.4 C 41 %
3389 16-01-2020 12:44:18 6.7 C 41 %
3390 16-01-2020 12:54:17 7.5 C 41 %
3391 16-01-2020 13:04:18 7.5 C 41 %
3392 16-01-2020 13:14:18 7.7 C 41 %
3393 16-01-2020 13:24:17 7.6 C 40 %
3394 16-01-2020 13:34:17 7.8 C 40 %
3395 16-01-2020 13:44:17 7.8 C 40 %
3396 16-01-2020 13:54:18 7.9 C 40 %
3397 16-01-2020 14:04:17 8.1 C 38 %
3398 16-01-2020 14:14:17 8.3 C 37 %
3399 16-01-2020 14:24:17 9 C 36 %
3400 16-01-2020 14:34:17 9.1 C 36 %
Sensor: Nr:Datum:Temp:Feuchte:
Aussen-T/F 3401 16-01-2020 14:44:17 8.9 C 35 %
3402 16-01-2020 14:54:17 8.7 C 35 %
3403 16-01-2020 15:04:17 8.9 C 35 %
3404 16-01-2020 15:14:17 8.6 C 35 %
3405 16-01-2020 15:24:17 8.5 C 35 %
3406 16-01-2020 15:34:18 8.4 C 35 %
3407 16-01-2020 15:44:18 8.4 C 35 %
3408 16-01-2020 15:54:17 8 C 35 %
3409 16-01-2020 16:04:17 7.6 C 37 %
3410 16-01-2020 16:14:17 7.5 C 37 %
3411 16-01-2020 16:24:17 7.5 C 37 %
3412 16-01-2020 16:34:17 7.1 C 37 %
3413 16-01-2020 16:44:17 7.5 C 39 %
3414 16-01-2020 16:54:18 7.1 C 38 %
3415 16-01-2020 17:04:17 6.8 C 40 %
3416 16-01-2020 17:14:17 7 C 40 %
3417 16-01-2020 17:24:17 6.9 C 40 %
3418 16-01-2020 17:34:18 6.9 C 40 %
3419 16-01-2020 17:44:18 7 C 40 %
3420 16-01-2020 17:54:17 6.5 C 40 %
3421 16-01-2020 18:04:17 6.3 C 40 %
3422 16-01-2020 18:14:17 6.5 C 41 %
3423 16-01-2020 18:24:17 6.5 C 41 %
3424 16-01-2020 18:34:17 6.5 C 41 %
3425 16-01-2020 18:44:17 5.9 C 41 %
Sensor: Nr:Datum:Temp:Feuchte:
Aussen-T/F 3426 16-01-2020 18:54:18 5.9 C 42 %
3427 16-01-2020 19:04:17 6.1 C 42 %
3428 16-01-2020 19:14:17 6.2 C 43 %
3429 16-01-2020 19:24:17 5.4 C 42 %
3430 16-01-2020 19:34:17 5.3 C 43 %
3431 16-01-2020 19:44:17 5.3 C 43 %
3432 16-01-2020 19:54:17 5.2 C 43 %
3433 16-01-2020 20:04:18 5.3 C 43 %
3434 16-01-2020 20:14:18 5.4 C 43 %
3435 16-01-2020 20:24:18 5.7 C 43 %
3436 16-01-2020 20:34:17 5.9 C 42 %
3437 16-01-2020 20:44:17 5.7 C 40 %
3438 16-01-2020 20:54:17 5.4 C 41 %
3439 16-01-2020 21:04:18 5.9 C 42 %
3440 16-01-2020 21:14:18 5.3 C 41 %
3441 16-01-2020 21:24:18 5.6 C 42 %
3442 16-01-2020 21:34:18 5.1 C 41 %
3443 16-01-2020 21:44:18 5 C 42 %
3444 16-01-2020 21:54:17 4.7 C 42 %
3445 16-01-2020 22:04:17 5.2 C 42 %
3446 16-01-2020 22:14:17 5 C 42 %
3447 16-01-2020 22:24:18 5 C 42 %
3448 16-01-2020 22:34:18 5.1 C 42 %
3449 16-01-2020 22:44:18 5.5 C 42 %
3450 16-01-2020 22:54:17 5.1 C 40 %
Sensor: Nr:Datum:Temp:Feuchte:
Aussen-T/F 3451 16-01-2020 23:04:17 5 C 41 %
3452 16-01-2020 23:14:17 5.6 C 41 %
3453 16-01-2020 23:24:17 6.8 C 36 %
3454 16-01-2020 23:34:17 7 C 34 %
3455 16-01-2020 23:44:17 6.4 C 35 %
3456 16-01-2020 23:54:17 5.8 C 36 %
3457 17-01-2020 00:04:17 5.6 C 37 %
3458 17-01-2020 00:14:17 5.3 C 39 %
3459 17-01-2020 00:24:17 5.7 C 40 %
3460 17-01-2020 00:34:18 5.2 C 40 %
3461 17-01-2020 00:44:18 5 C 40 %
3462 17-01-2020 00:54:17 5.1 C 41 %
3463 17-01-2020 01:04:17 5.2 C 41 %
3464 17-01-2020 01:14:17 5 C 41 %
3465 17-01-2020 01:24:17 4.9 C 42 %
3466 17-01-2020 01:34:18 4.8 C 42 %
3467 17-01-2020 01:44:18 4.6 C 41 %
3468 17-01-2020 01:54:17 4.6 C 41 %
3469 17-01-2020 02:04:17 5.5 C 41 %
3470 17-01-2020 02:14:17 4.2 C 39 %
3471 17-01-2020 02:24:17 4 C 40 %
3472 17-01-2020 02:34:18 4 C 43 %
3473 17-01-2020 02:44:18 3.7 C 44 %
3474 17-01-2020 02:54:17 3.9 C 45 %
3475 17-01-2020 03:04:17 3.8 C 44 %
Sensor: Nr:Datum:Temp:Feuchte:
Aussen-T/F 3476 17-01-2020 03:14:17 3.8 C 44 %
3477 17-01-2020 03:24:17 3.7 C 45 %
3478 17-01-2020 03:34:18 3.8 C 45 %
3479 17-01-2020 03:44:18 3.4 C 44 %
3480 17-01-2020 03:54:17 3.6 C 44 %
3481 17-01-2020 04:04:18 3.4 C 44 %
3482 17-01-2020 04:14:18 3.4 C 44 %
3483 17-01-2020 04:24:18 3.5 C 44 %
3484 17-01-2020 04:34:17 3.5 C 44 %
3485 17-01-2020 04:44:17 3.2 C 44 %
3486 17-01-2020 04:54:17 3 C 43 %
3487 17-01-2020 05:04:18 2.9 C 45 %
3488 17-01-2020 05:14:18 2.8 C 45 %
3489 17-01-2020 05:24:17 2.7 C 45 %
3490 17-01-2020 05:34:17 2.5 C 45 %
3491 17-01-2020 05:44:17 2.3 C 45 %
3492 17-01-2020 05:54:17 2.4 C 45 %
3493 17-01-2020 06:04:17 2.1 C 45 %
3494 17-01-2020 06:14:17 2 C 45 %
3495 17-01-2020 06:24:17 1.8 C 45 %
3496 17-01-2020 06:34:17 1.8 C 45 %
3497 17-01-2020 06:44:17 1.8 C 46 %
3498 17-01-2020 06:54:17 1.7 C 45 %
3499 17-01-2020 07:04:18 1.8 C 45 %
3500 17-01-2020 07:14:18 1.5 C 45 %
Sensor: Nr:Datum:Temp:Feuchte:
Aussen-T/F 3501 17-01-2020 07:24:17 1.3 C 45 %
3502 17-01-2020 07:34:17 1.2 C 45 %
3503 17-01-2020 07:44:17 1.4 C 45 %
3504 17-01-2020 07:54:17 1.6 C 46 %
3505 17-01-2020 08:04:18 1.9 C 46 %
3506 17-01-2020 08:14:18 2.2 C 45 %
3507 17-01-2020 08:24:17 2 C 45 %
3508 17-01-2020 08:34:17 2.2 C 45 %
3509 17-01-2020 08:44:17 2.3 C 45 %
3510 17-01-2020 08:54:18 2.3 C 45 %
3511 17-01-2020 09:04:17 2.4 C 45 %
3512 17-01-2020 09:14:17 2.2 C 44 %
3513 17-01-2020 09:24:17 2 C 44 %
3514 17-01-2020 09:34:17 2.1 C 44 %
3515 17-01-2020 09:44:17 2.9 C 45 %
3516 17-01-2020 09:54:17 3 C 44 %
3517 17-01-2020 10:04:17 3.1 C 44 %
3518 17-01-2020 10:14:17 3.4 C 44 %
3519 17-01-2020 10:24:17 3.5 C 44 %
3520 17-01-2020 10:34:18 3.7 C 44 %
3521 17-01-2020 10:44:18 4 C 43 %
3522 17-01-2020 10:54:17 4.1 C 42 %
3523 17-01-2020 11:04:17 4.4 C 42 %
3524 17-01-2020 11:14:17 4.4 C 41 %
3525 17-01-2020 11:24:17 4.6 C 42 %
Sensor: Nr:Datum:Temp:Feuchte:
Aussen-T/F 3526 17-01-2020 11:34:18 5.8 C 42 %
3527 17-01-2020 11:44:18 6 C 40 %
3528 17-01-2020 11:54:17 6.3 C 37 %
3529 17-01-2020 12:04:17 6.7 C 36 %
3530 17-01-2020 12:14:17 6.8 C 36 %
3531 17-01-2020 12:24:17 7 C 35 %
3532 17-01-2020 12:34:17 7.2 C 36 %
3533 17-01-2020 12:44:17 7.3 C 35 %
3534 17-01-2020 12:54:17 7.3 C 35 %
3535 17-01-2020 13:04:18 7.3 C 35 %
3536 17-01-2020 13:14:18 7.7 C 34 %
3537 17-01-2020 13:24:18 8.6 C 33 %
3538 17-01-2020 13:34:18 8.9 C 32 %
3539 17-01-2020 13:44:18 9.3 C 31 %
3540 17-01-2020 13:54:17 9 C 31 %
3541 17-01-2020 14:04:17 9.2 C 31 %
3542 17-01-2020 14:14:17 9.3 C 31 %
3543 17-01-2020 14:24:17 9.3 C 31 %
3544 17-01-2020 14:34:17 9.1 C 31 %
3545 17-01-2020 14:44:17 8.8 C 33 %
3546 17-01-2020 14:54:17 8.6 C 35 %
3547 17-01-2020 15:04:17 8.5 C 35 %
3548 17-01-2020 15:14:17 8.3 C 36 %
3549 17-01-2020 15:24:17 8.3 C 36 %
3550 17-01-2020 15:34:18 8.2 C 36 %
Sensor: Nr:Datum:Temp:Feuchte:
Aussen-T/F 3551 17-01-2020 15:44:18 8.1 C 38 %
3552 17-01-2020 15:54:17 8.1 C 37 %
3553 17-01-2020 16:04:18 8 C 37 %
3554 17-01-2020 16:14:18 8 C 37 %
3555 17-01-2020 16:24:17 8.1 C 36 %
3556 17-01-2020 16:34:17 8.1 C 37 %
3557 17-01-2020 16:44:17 7.9 C 37 %
3558 17-01-2020 16:54:17 7.8 C 38 %
3559 17-01-2020 17:04:17 7.9 C 38 %
3560 17-01-2020 17:14:17 8.5 C 35 %
3561 17-01-2020 17:24:17 8.5 C 35 %
3562 17-01-2020 17:34:17 8.4 C 34 %
3563 17-01-2020 17:44:17 8.2 C 35 %
3564 17-01-2020 17:54:17 8.5 C 34 %
3565 17-01-2020 18:04:17 8.7 C 32 %
3566 17-01-2020 18:14:18 8.5 C 33 %
3567 17-01-2020 18:24:18 8.4 C 33 %
3568 17-01-2020 18:34:18 8.3 C 33 %
3569 17-01-2020 18:44:18 8.3 C 34 %
3570 17-01-2020 18:54:18 7.8 C 35 %
3571 17-01-2020 19:04:17 7.1 C 36 %
3572 17-01-2020 19:14:17 7.6 C 35 %
3573 17-01-2020 19:24:17 6.3 C 37 %
3574 17-01-2020 19:34:17 5.9 C 40 %
3575 17-01-2020 19:44:17 5.9 C 41 %
Sensor: Nr:Datum:Temp:Feuchte:
Aussen-T/F 3576 17-01-2020 19:54:17 5.9 C 42 %
3577 17-01-2020 20:04:17 6 C 42 %
3578 17-01-2020 20:14:17 6.3 C 42 %
3579 17-01-2020 20:24:17 6.6 C 40 %
3580 17-01-2020 20:34:17 7.9 C 32 %
3581 17-01-2020 20:44:17 7.7 C 31 %
3582 17-01-2020 20:54:18 7.9 C 31 %
3583 17-01-2020 21:04:17 7.8 C 30 %
3584 17-01-2020 21:14:17 7.4 C 31 %
3585 17-01-2020 21:24:17 6.9 C 31 %
3586 17-01-2020 21:34:17 6.7 C 31 %
3587 17-01-2020 21:44:17 6.8 C 31 %
3588 17-01-2020 21:54:18 6.3 C 31 %
3589 17-01-2020 22:04:17 5.8 C 31 %
3590 17-01-2020 22:14:17 5 C 32 %
3591 17-01-2020 22:24:17 4.4 C 35 %
3592 17-01-2020 22:34:18 4.2 C 36 %
3593 17-01-2020 22:44:18 4.2 C 35 %
3594 17-01-2020 22:54:17 3.9 C 37 %
3595 17-01-2020 23:04:17 4 C 37 %
3596 17-01-2020 23:14:17 3.3 C 39 %
3597 17-01-2020 23:24:17 3.6 C 39 %
3598 17-01-2020 23:34:18 3.6 C 39 %
3599 17-01-2020 23:44:18 3.1 C 38 %
3600 17-01-2020 23:54:17 2.6 C 40 %
Sensor: Nr:Datum:Temp:Feuchte:
Aussen-T/F 3601 18-01-2020 00:04:17 2.6 C 41 %
3602 18-01-2020 00:14:17 2.6 C 43 %
3603 18-01-2020 00:24:18 2.8 C 43 %
3604 18-01-2020 00:34:17 3.2 C 43 %
3605 18-01-2020 00:44:17 3.2 C 42 %
3606 18-01-2020 00:54:17 4.2 C 36 %
3607 18-01-2020 01:04:18 4.1 C 36 %
3608 18-01-2020 01:14:18 4 C 36 %
3609 18-01-2020 01:24:17 3.7 C 37 %
3610 18-01-2020 01:34:18 3.8 C 39 %
3611 18-01-2020 01:44:18 3.9 C 39 %
3612 18-01-2020 01:54:17 4.2 C 35 %
3613 18-01-2020 02:04:17 4 C 35 %
3614 18-01-2020 02:14:17 3.4 C 39 %
3615 18-01-2020 02:24:17 3.8 C 40 %
3616 18-01-2020 02:34:17 3.3 C 39 %
3617 18-01-2020 02:44:17 3.6 C 39 %
3618 18-01-2020 02:54:18 3.9 C 36 %
3619 18-01-2020 03:04:17 4.9 C 32 %
3620 18-01-2020 03:14:17 4.9 C 31 %
3621 18-01-2020 03:24:17 4.6 C 31 %
3622 18-01-2020 03:34:17 4.4 C 31 %
3623 18-01-2020 03:44:17 4.5 C 32 %
3624 18-01-2020 03:54:17 4.3 C 32 %
3625 18-01-2020 04:04:17 4.1 C 32 %
Sensor: Nr:Datum:Temp:Feuchte:
Aussen-T/F 3626 18-01-2020 04:14:17 4.1 C 32 %
3627 18-01-2020 04:24:17 4.3 C 32 %
3628 18-01-2020 04:34:18 4.2 C 32 %
3629 18-01-2020 04:44:18 4 C 32 %
3630 18-01-2020 04:54:17 4.1 C 32 %
3631 18-01-2020 05:04:17 4.1 C 31 %
3632 18-01-2020 05:14:17 3.7 C 33 %
3633 18-01-2020 05:24:17 3.8 C 32 %
3634 18-01-2020 05:34:18 3.8 C 32 %
3635 18-01-2020 05:44:18 3.9 C 32 %
3636 18-01-2020 05:54:17 3.2 C 33 %
3637 18-01-2020 06:04:17 3.4 C 32 %
3638 18-01-2020 06:14:17 4 C 31 %
3639 18-01-2020 06:24:17 3.6 C 32 %
3640 18-01-2020 06:34:18 3.8 C 32 %
3641 18-01-2020 06:44:18 3.6 C 32 %
3642 18-01-2020 06:54:17 3.7 C 31 %
3643 18-01-2020 07:04:17 3.2 C 32 %
3644 18-01-2020 07:14:17 3.4 C 32 %
3645 18-01-2020 07:24:17 3 C 33 %
3646 18-01-2020 07:34:18 2.7 C 34 %
3647 18-01-2020 07:44:18 4 C 31 %
3648 18-01-2020 07:54:17 3.7 C 32 %
3649 18-01-2020 08:04:18 4 C 31 %
3650 18-01-2020 08:14:18 4.3 C 31 %
Sensor: Nr:Datum:Temp:Feuchte:
Aussen-T/F 3651 18-01-2020 08:24:17 3.8 C 32 %
3652 18-01-2020 08:34:17 3.7 C 32 %
3653 18-01-2020 08:44:17 3.6 C 32 %
3654 18-01-2020 08:54:17 3.6 C 32 %
3655 18-01-2020 09:04:18 4.1 C 30 %
3656 18-01-2020 09:14:18 3.9 C 32 %
3657 18-01-2020 09:24:18 4.2 C 30 %
3658 18-01-2020 09:34:17 4 C 31 %
3659 18-01-2020 09:44:17 4.1 C 31 %
3660 18-01-2020 09:54:17 4.3 C 31 %
3661 18-01-2020 10:04:17 4.6 C 30 %
3662 18-01-2020 10:14:17 4.9 C 30 %
3663 18-01-2020 10:24:17 4.7 C 30 %
3664 18-01-2020 10:34:18 4.4 C 30 %
3665 18-01-2020 10:44:18 5.1 C 30 %
3666 18-01-2020 10:54:17 5 C 29 %
3667 18-01-2020 11:04:17 5.2 C 28 %
3668 18-01-2020 11:14:17 5.3 C 27 %
3669 18-01-2020 11:24:17 5.3 C 27 %
3670 18-01-2020 11:34:18 5.5 C 27 %
3671 18-01-2020 11:44:18 5.6 C 27 %
3672 18-01-2020 11:54:17 5.6 C 27 %
3673 18-01-2020 12:04:18 6 C 27 %
3674 18-01-2020 12:14:18 6 C 26 %
3675 18-01-2020 12:24:17 5.9 C 26 %
Sensor: Nr:Datum:Temp:Feuchte:
Aussen-T/F 3676 18-01-2020 12:34:17 6 C 26 %
3677 18-01-2020 12:44:17 5.7 C 26 %
3678 18-01-2020 12:54:17 5.9 C 26 %
3679 18-01-2020 13:04:17 6.1 C 25 %
3680 18-01-2020 13:14:17 5.8 C 25 %
3681 18-01-2020 13:24:17 6 C 25 %
3682 18-01-2020 13:34:18 5.7 C 27 %
3683 18-01-2020 13:44:18 5.4 C 27 %
3684 18-01-2020 13:54:17 5.8 C 26 %
3685 18-01-2020 14:04:17 5.7 C 27 %
3686 18-01-2020 14:14:17 5.6 C 26 %
3687 18-01-2020 14:24:17 6 C 26 %
3688 18-01-2020 14:34:18 6.4 C 25 %
3689 18-01-2020 14:44:18 6.5 C 23 %
3690 18-01-2020 14:54:17 6.6 C 20 %
3691 18-01-2020 15:04:17 6.6 C 20 %
3692 18-01-2020 15:14:17 6.4 C 21 %
3693 18-01-2020 15:24:17 6.3 C 21 %
3694 18-01-2020 15:34:17 6.1 C 23 %
3695 18-01-2020 15:44:17 5.9 C 25 %
3696 18-01-2020 15:54:17 5.7 C 25 %
3697 18-01-2020 16:04:17 5.7 C 25 %
3698 18-01-2020 16:14:17 5.3 C 25 %
3699 18-01-2020 16:24:17 5.1 C 25 %
3700 18-01-2020 16:34:18 5 C 26 %
Sensor: Nr:Datum:Temp:Feuchte:
Aussen-T/F 3701 18-01-2020 16:44:18 4.6 C 27 %
3702 18-01-2020 16:54:17 4.8 C 28 %
3703 18-01-2020 17:04:17 5 C 26 %
3704 18-01-2020 17:14:17 4.7 C 27 %
3705 18-01-2020 17:24:18 4.2 C 28 %
3706 18-01-2020 17:34:17 3.5 C 31 %
3707 18-01-2020 17:44:17 3.3 C 31 %
3708 18-01-2020 17:54:17 3.1 C 32 %
3709 18-01-2020 18:04:18 2.6 C 34 %
3710 18-01-2020 18:14:18 2.3 C 36 %
3711 18-01-2020 18:24:17 2 C 37 %
3712 18-01-2020 18:34:17 2.5 C 38 %
3713 18-01-2020 18:44:17 3.2 C 33 %
3714 18-01-2020 18:54:17 3.1 C 31 %
3715 18-01-2020 19:04:18 2.5 C 32 %
3716 18-01-2020 19:14:18 1.6 C 38 %
3717 18-01-2020 19:24:18 1 C 39 %
3718 18-01-2020 19:34:17 0.7 C 41 %
3719 18-01-2020 19:44:17 0.7 C 45 %
3720 18-01-2020 19:54:17 0.7 C 45 %
3721 18-01-2020 20:04:18 0.5 C 44 %
3722 18-01-2020 20:14:18 0.4 C 45 %
3723 18-01-2020 20:24:17 0.3 C 44 %
3724 18-01-2020 20:34:18 0.2 C 43 %
3725 18-01-2020 20:44:18 0.2 C 43 %
Sensor: Nr:Datum:Temp:Feuchte:
Aussen-T/F 3726 18-01-2020 20:54:17 0 C 43 %
3727 18-01-2020 21:04:17 0.3 C 44 %
3728 18-01-2020 21:14:17 1 C 43 %
3729 18-01-2020 21:24:17 1.5 C 42 %
3730 18-01-2020 21:34:17 1.6 C 40 %
3731 18-01-2020 21:44:17 1.8 C 39 %
3732 18-01-2020 21:54:17 1.7 C 37 %
3733 18-01-2020 22:04:18 1.5 C 38 %
3734 18-01-2020 22:14:18 1.1 C 39 %
3735 18-01-2020 22:24:17 1.1 C 41 %
3736 18-01-2020 22:34:17 2 C 37 %
3737 18-01-2020 22:44:18 2 C 36 %
3738 18-01-2020 22:54:17 2.3 C 36 %
3739 18-01-2020 23:04:17 2.3 C 35 %
3740 18-01-2020 23:14:17 2.6 C 35 %
3741 18-01-2020 23:24:17 2.4 C 35 %
3742 18-01-2020 23:34:17 2.8 C 35 %
3743 18-01-2020 23:44:17 2.7 C 36 %
3744 18-01-2020 23:54:17 2.1 C 38 %
3745 19-01-2020 00:04:18 1.8 C 42 %
3746 19-01-2020 00:14:18 2.2 C 44 %
3747 19-01-2020 00:24:17 2.2 C 44 %
3748 19-01-2020 00:34:17 2.2 C 43 %
3749 19-01-2020 00:44:17 2.5 C 41 %
3750 19-01-2020 00:54:17 2.3 C 41 %
Sensor: Nr:Datum:Temp:Feuchte:
Aussen-T/F 3751 19-01-2020 01:04:17 2.4 C 41 %
3752 19-01-2020 01:14:17 2.2 C 40 %
3753 19-01-2020 01:24:17 2 C 40 %
3754 19-01-2020 01:34:17 2 C 43 %
3755 19-01-2020 01:44:17 2 C 44 %
3756 19-01-2020 01:54:18 1.9 C 45 %
3757 19-01-2020 02:04:17 2 C 44 %
3758 19-01-2020 02:14:17 1.9 C 45 %
3759 19-01-2020 02:24:17 1.9 C 45 %
3760 19-01-2020 02:34:17 1.9 C 45 %
3761 19-01-2020 02:44:17 1.6 C 45 %
3762 19-01-2020 02:54:18 1.8 C 46 %
3763 19-01-2020 03:04:17 1.9 C 46 %
3764 19-01-2020 03:14:17 2 C 45 %
3765 19-01-2020 03:24:17 2 C 45 %
3766 19-01-2020 03:34:17 2.1 C 45 %
3767 19-01-2020 03:44:17 2.1 C 45 %
3768 19-01-2020 03:54:17 2.1 C 45 %
3769 19-01-2020 04:04:17 2.1 C 45 %
3770 19-01-2020 04:14:17 2.1 C 45 %
3771 19-01-2020 04:24:17 2.1 C 45 %
3772 19-01-2020 04:34:18 2.2 C 45 %
3773 19-01-2020 04:44:18 2.1 C 44 %
3774 19-01-2020 04:54:17 2 C 44 %
3775 19-01-2020 05:04:18 2.1 C 45 %
Sensor: Nr:Datum:Temp:Feuchte:
Aussen-T/F 3776 19-01-2020 05:14:18 2.2 C 45 %
3777 19-01-2020 05:24:17 2.2 C 45 %
3778 19-01-2020 05:34:18 2.2 C 45 %
3779 19-01-2020 05:44:18 2.2 C 44 %
3780 19-01-2020 05:54:17 2.2 C 44 %
3781 19-01-2020 06:04:18 2.2 C 44 %
3782 19-01-2020 06:14:18 2.2 C 44 %
3783 19-01-2020 06:24:17 2.2 C 43 %
3784 19-01-2020 06:34:18 2.2 C 43 %
3785 19-01-2020 06:44:18 2.2 C 44 %
3786 19-01-2020 06:54:17 2.3 C 44 %
3787 19-01-2020 07:04:17 2.3 C 45 %
3788 19-01-2020 07:14:17 2.3 C 44 %
3789 19-01-2020 07:24:17 2.3 C 44 %
3790 19-01-2020 07:34:17 2.3 C 44 %
3791 19-01-2020 07:44:17 2.3 C 44 %
3792 19-01-2020 07:54:17 2.4 C 42 %
3793 19-01-2020 08:04:17 2.4 C 42 %
3794 19-01-2020 08:14:17 2.3 C 43 %
3795 19-01-2020 08:24:18 2.3 C 43 %
3796 19-01-2020 08:34:17 2.4 C 43 %
3797 19-01-2020 08:44:17 2.5 C 43 %
3798 19-01-2020 08:54:17 2.6 C 42 %
3799 19-01-2020 09:04:18 2.5 C 42 %
3800 19-01-2020 09:14:18 2.6 C 42 %
Sensor: Nr:Datum:Temp:Feuchte:
Aussen-T/F 3801 19-01-2020 09:24:18 2.6 C 41 %
3802 19-01-2020 09:34:17 2.7 C 40 %
3803 19-01-2020 09:44:17 2.7 C 40 %
3804 19-01-2020 09:54:18 2.7 C 40 %
3805 19-01-2020 10:04:18 2.7 C 40 %
3806 19-01-2020 10:14:18 2.7 C 40 %
3807 19-01-2020 10:24:17 2.9 C 38 %
3808 19-01-2020 10:34:17 3.1 C 38 %
3809 19-01-2020 10:44:17 3.3 C 36 %
3810 19-01-2020 10:54:17 3.6 C 35 %
3811 19-01-2020 11:04:18 3.4 C 36 %
3812 19-01-2020 11:14:18 3.5 C 36 %
3813 19-01-2020 11:24:18 3.4 C 36 %
3814 19-01-2020 11:34:17 3.5 C 36 %
3815 19-01-2020 11:44:17 3.8 C 35 %
3816 19-01-2020 11:54:17 4.1 C 33 %
3817 19-01-2020 12:04:18 4.1 C 33 %
3818 19-01-2020 12:14:18 4 C 33 %
3819 19-01-2020 12:24:18 3.8 C 35 %
3820 19-01-2020 12:34:17 4.1 C 35 %
3821 19-01-2020 12:44:17 4.1 C 34 %
3822 19-01-2020 12:54:18 4.1 C 34 %
3823 19-01-2020 13:04:17 4.1 C 34 %
3824 19-01-2020 13:14:17 4.4 C 33 %
3825 19-01-2020 13:24:17 4.1 C 33 %
Sensor: Nr:Datum:Temp:Feuchte:
Aussen-T/F 3826 19-01-2020 13:34:18 4.1 C 34 %
3827 19-01-2020 13:44:18 4.2 C 33 %
3828 19-01-2020 13:54:17 4.5 C 34 %
3829 19-01-2020 14:04:17 5.2 C 32 %
3830 19-01-2020 14:14:17 4.8 C 32 %
3831 19-01-2020 14:24:17 4.7 C 32 %
3832 19-01-2020 14:34:17 4.5 C 31 %
3833 19-01-2020 14:44:17 4.5 C 31 %
3834 19-01-2020 14:54:18 4.7 C 31 %
3835 19-01-2020 15:04:17 4.5 C 31 %
3836 19-01-2020 15:14:17 4.5 C 32 %
3837 19-01-2020 15:24:17 4.5 C 32 %
3838 19-01-2020 15:34:17 4.6 C 31 %
3839 19-01-2020 15:44:17 4.8 C 31 %
3840 19-01-2020 15:54:18 4.4 C 31 %
3841 19-01-2020 16:04:17 4.1 C 32 %
3842 19-01-2020 16:14:17 4.1 C 32 %
3843 19-01-2020 16:24:17 4.1 C 34 %
3844 19-01-2020 16:34:18 4.1 C 35 %
3845 19-01-2020 16:44:18 3.8 C 36 %
3846 19-01-2020 16:54:17 3.6 C 39 %
3847 19-01-2020 17:04:18 3.5 C 42 %
3848 19-01-2020 17:14:18 3.4 C 43 %
3849 19-01-2020 17:24:18 3.3 C 45 %
3850 19-01-2020 17:34:18 3.3 C 45 %
Sensor: Nr:Datum:Temp:Feuchte:
Aussen-T/F 3851 19-01-2020 17:44:18 3.3 C 45 %
3852 19-01-2020 17:54:17 3.4 C 44 %
3853 19-01-2020 18:04:18 3.3 C 44 %
3854 19-01-2020 18:14:18 3.4 C 43 %
3855 19-01-2020 18:24:18 3.2 C 44 %
3856 19-01-2020 18:34:17 3.3 C 45 %
3857 19-01-2020 18:44:17 3.4 C 44 %
3858 19-01-2020 18:54:17 3.4 C 44 %
3859 19-01-2020 19:04:18 3.3 C 44 %
3860 19-01-2020 19:14:18 3.4 C 43 %
3861 19-01-2020 19:24:17 3.4 C 43 %
3862 19-01-2020 19:34:18 3.4 C 43 %
3863 19-01-2020 19:44:18 3.3 C 43 %
3864 19-01-2020 19:54:17 3.3 C 44 %
3865 19-01-2020 20:04:17 3.2 C 44 %
3866 19-01-2020 20:14:17 3.2 C 44 %
3867 19-01-2020 20:25:17 3.3 C 44 %
3868 19-01-2020 20:34:18 3.3 C 44 %
3869 19-01-2020 20:44:18 3.3 C 44 %
3870 19-01-2020 20:54:17 3.2 C 44 %
3871 19-01-2020 21:14:17 3.2 C 43 %
3872 19-01-2020 21:14:17 3.2 C 43 %
3873 19-01-2020 21:24:17 3.2 C 44 %
3874 19-01-2020 21:34:18 3.2 C 44 %
3875 19-01-2020 21:44:18 3.1 C 44 %
Sensor: Nr:Datum:Temp:Feuchte:
Aussen-T/F 3876 19-01-2020 21:54:17 3.2 C 44 %
3877 19-01-2020 22:04:17 3.1 C 44 %
3878 19-01-2020 22:14:17 3.1 C 44 %
3879 19-01-2020 22:24:17 3.2 C 44 %
3880 19-01-2020 22:34:17 3.3 C 44 %
3881 19-01-2020 22:44:17 3.3 C 43 %
3882 19-01-2020 22:55:17 3.3 C 43 %
3883 19-01-2020 23:05:17 3.2 C 42 %
3884 19-01-2020 23:14:18 2.8 C 43 %
3885 19-01-2020 23:24:18 2.2 C 43 %
3886 19-01-2020 23:35:17 2.2 C 44 %
3887 19-01-2020 23:44:17 2.1 C 45 %
3888 19-01-2020 23:54:17 2 C 45 %
3889 20-01-2020 00:05:17 2.1 C 45 %
3890 20-01-2020 00:14:18 2.4 C 45 %
3891 20-01-2020 00:24:18 2.1 C 45 %
3892 20-01-2020 00:34:17 2.5 C 45 %
3893 20-01-2020 00:44:18 2.5 C 45 %
3894 20-01-2020 00:55:17 2.5 C 45 %
3895 20-01-2020 01:04:18 2.3 C 45 %
3896 20-01-2020 01:14:18 2.4 C 45 %
3897 20-01-2020 01:24:18 2.2 C 45 %
3898 20-01-2020 01:34:17 2.5 C 45 %
3899 20-01-2020 01:44:17 2.4 C 45 %
3900 20-01-2020 01:55:17 2.2 C 45 %
Sensor: Nr:Datum:Temp:Feuchte:
Aussen-T/F 3901 20-01-2020 02:05:18 1.7 C 45 %
3902 20-01-2020 02:15:18 1.7 C 45 %
3903 20-01-2020 02:25:18 1.6 C 45 %
3904 20-01-2020 02:35:17 1.8 C 46 %
3905 20-01-2020 02:45:17 1.9 C 46 %
3906 20-01-2020 02:55:17 2.1 C 45 %
3907 20-01-2020 03:05:17 2 C 45 %
3908 20-01-2020 03:15:17 1.5 C 45 %
3909 20-01-2020 03:25:17 1.3 C 45 %
3910 20-01-2020 03:35:17 1.3 C 45 %
3911 20-01-2020 03:45:17 0.8 C 46 %
3912 20-01-2020 03:55:17 1 C 45 %
3913 20-01-2020 04:05:18 1.5 C 46 %
3914 20-01-2020 04:15:17 1.6 C 46 %
3915 20-01-2020 04:25:17 1.8 C 46 %
3916 20-01-2020 04:35:17 1.8 C 46 %
3917 20-01-2020 04:45:17 1.5 C 45 %
3918 20-01-2020 04:55:18 1.4 C 45 %
3919 20-01-2020 05:05:17 1.6 C 45 %
3920 20-01-2020 05:15:17 1.6 C 45 %
3921 20-01-2020 05:25:17 1.8 C 45 %
3922 20-01-2020 05:35:18 1.5 C 45 %
3923 20-01-2020 05:45:17 1.2 C 45 %
3924 20-01-2020 05:55:17 1.4 C 45 %
3925 20-01-2020 06:05:18 1.3 C 45 %
Sensor: Nr:Datum:Temp:Feuchte:
Aussen-T/F 3926 20-01-2020 06:15:17 1.2 C 45 %
3927 20-01-2020 06:25:17 1.2 C 45 %
3928 20-01-2020 06:35:17 1.4 C 45 %
3929 20-01-2020 06:45:18 1.4 C 45 %
3930 20-01-2020 06:55:18 1.3 C 45 %
3931 20-01-2020 07:05:17 1.1 C 45 %
3932 20-01-2020 07:15:17 1 C 45 %
3933 20-01-2020 07:25:17 1.1 C 45 %
3934 20-01-2020 07:35:17 0.7 C 46 %
3935 20-01-2020 07:45:17 0.4 C 46 %
3936 20-01-2020 07:55:17 0.2 C 46 %
3937 20-01-2020 08:05:18 0.1 C 46 %
3938 20-01-2020 08:15:18 0.4 C 46 %
3939 20-01-2020 08:25:18 0.8 C 46 %
3940 20-01-2020 08:35:17 0.6 C 46 %
3941 20-01-2020 08:45:17 1.3 C 45 %
3942 20-01-2020 08:55:17 1.4 C 45 %
3943 20-01-2020 09:05:17 1.5 C 45 %
3944 20-01-2020 09:15:17 1.7 C 45 %
3945 20-01-2020 09:25:17 1.9 C 45 %
3946 20-01-2020 09:35:17 2.2 C 45 %
3947 20-01-2020 09:45:18 2.3 C 45 %
3948 20-01-2020 09:55:18 2.5 C 45 %
3949 20-01-2020 10:05:18 2.8 C 45 %
3950 20-01-2020 10:15:17 2.7 C 45 %
Sensor: Nr:Datum:Temp:Feuchte:
Aussen-T/F 3951 20-01-2020 10:25:17 3 C 43 %
3952 20-01-2020 10:35:17 3.5 C 43 %
3953 20-01-2020 10:45:17 3.7 C 43 %
3954 20-01-2020 10:55:17 3.9 C 43 %
3955 20-01-2020 11:05:18 4 C 41 %
3956 20-01-2020 11:15:18 4.2 C 40 %
3957 20-01-2020 11:25:18 4.5 C 37 %
3958 20-01-2020 11:35:18 4.5 C 35 %
3959 20-01-2020 11:45:17 4.6 C 36 %
3960 20-01-2020 11:55:17 5 C 35 %
3961 20-01-2020 12:05:17 5.1 C 34 %
3962 20-01-2020 12:15:18 5.1 C 30 %
3963 20-01-2020 12:25:18 4.9 C 30 %
3964 20-01-2020 12:35:18 5 C 26 %
3965 20-01-2020 12:45:17 5.1 C 25 %
3966 20-01-2020 12:55:17 5.2 C 21 %
3967 20-01-2020 13:05:17 5.3 C 20 %
3968 20-01-2020 13:15:17 5.6 C 21 %
3969 20-01-2020 13:25:17 5.7 C 20 %
3970 20-01-2020 13:35:17 6.1 C 20 %
3971 20-01-2020 13:45:17 5.8 C 20 %
3972 20-01-2020 13:55:18 5.7 C 20 %
3973 20-01-2020 14:05:17 5.7 C 20 %
3974 20-01-2020 14:15:17 5.9 C 20 %
3975 20-01-2020 14:25:17 6 C 20 %
Sensor: Nr:Datum:Temp:Feuchte:
Aussen-T/F 3976 20-01-2020 14:35:17 5.8 C 20 %
3977 20-01-2020 14:45:18 5.7 C 20 %
3978 20-01-2020 14:55:18 5.6 C 20 %
3979 20-01-2020 15:05:17 5 C 20 %
3980 20-01-2020 15:15:17 4.8 C 25 %
3981 20-01-2020 15:25:17 4.9 C 20 %
3982 20-01-2020 15:35:17 5.2 C 20 %
3983 20-01-2020 15:45:17 5 C 20 %
3984 20-01-2020 15:55:18 4.8 C 20 %
3985 20-01-2020 16:05:17 4 C 26 %
3986 20-01-2020 16:15:17 3.9 C 29 %
3987 20-01-2020 16:25:17 3.7 C 30 %
3988 20-01-2020 16:35:17 3.4 C 31 %
3989 20-01-2020 16:45:18 3.1 C 30 %
3990 20-01-2020 16:55:18 2.6 C 31 %
3991 20-01-2020 17:05:17 2.2 C 30 %
3992 20-01-2020 17:15:17 1.9 C 32 %
3993 20-01-2020 17:25:17 1.8 C 32 %
3994 20-01-2020 17:35:17 1.6 C 33 %
3995 20-01-2020 17:45:18 1.2 C 34 %
3996 20-01-2020 17:55:18 1 C 35 %
3997 20-01-2020 18:05:18 0.8 C 36 %
3998 20-01-2020 18:15:17 0.4 C 38 %
3999 20-01-2020 18:25:17 0.1 C 40 %
4000 20-01-2020 18:35:17 0.2 C 40 %
Sensor: Nr:Datum:Temp:Feuchte:
Aussen-T/F 4001 20-01-2020 18:45:17 0.2 C 40 %
4002 20-01-2020 18:55:17 -0.1 C 40 %
4003 20-01-2020 19:05:18 -0.6 C 40 %
4004 20-01-2020 19:15:17 -1 C 41 %
4005 20-01-2020 19:25:18 -1.2 C 42 %
4006 20-01-2020 19:35:17 -1.2 C 43 %
4007 20-01-2020 19:45:17 -1.3 C 44 %
4008 20-01-2020 19:55:17 -1.5 C 44 %
4009 20-01-2020 20:05:18 -1.4 C 45 %
4010 20-01-2020 20:15:17 -1.4 C 45 %
4011 20-01-2020 20:25:17 -1.7 C 44 %
4012 20-01-2020 20:35:17 -1.8 C 45 %
4013 20-01-2020 20:45:18 -2 C 45 %
4014 20-01-2020 20:55:18 -2.1 C 45 %
4015 20-01-2020 21:05:18 -2.2 C 45 %
4016 20-01-2020 21:15:17 -2.3 C 45 %
4017 20-01-2020 21:25:17 -2.3 C 45 %
4018 20-01-2020 21:35:17 -2.3 C 45 %
4019 20-01-2020 21:45:17 -2.5 C 45 %
4020 20-01-2020 21:55:17 -2.5 C 45 %
4021 20-01-2020 22:05:18 -2.5 C 45 %
4022 20-01-2020 22:15:18 -2.7 C 45 %
4023 20-01-2020 22:25:18 -2.7 C 45 %
4024 20-01-2020 22:35:17 -2.7 C 46 %
4025 20-01-2020 22:45:17 -2.8 C 45 %
Sensor: Nr:Datum:Temp:Feuchte:
Aussen-T/F 4026 20-01-2020 22:55:17 -2.8 C 45 %
4027 20-01-2020 23:05:17 -2.9 C 45 %
4028 20-01-2020 23:15:17 -2.7 C 45 %
4029 20-01-2020 23:25:17 -2.9 C 45 %
4030 20-01-2020 23:35:18 -3.1 C 44 %
4031 20-01-2020 23:45:17 -2.6 C 45 %
4032 20-01-2020 23:55:17 -2.8 C 45 %
4033 21-01-2020 00:05:17 -2.5 C 45 %
4034 21-01-2020 00:15:18 -3 C 43 %
4035 21-01-2020 00:25:18 -3.1 C 44 %
4036 21-01-2020 00:35:17 -3.1 C 44 %
4037 21-01-2020 00:45:17 -3 C 44 %
4038 21-01-2020 00:55:17 -3.1 C 44 %
4039 21-01-2020 01:05:17 -3.3 C 44 %
4040 21-01-2020 01:15:17 -3.1 C 44 %
4041 21-01-2020 01:25:17 -3.3 C 44 %
4042 21-01-2020 01:35:18 -3.1 C 45 %
4043 21-01-2020 01:45:17 -3.3 C 44 %
4044 21-01-2020 01:55:17 -3.5 C 43 %
4045 21-01-2020 02:05:17 -3.6 C 43 %
4046 21-01-2020 02:15:17 -3.5 C 45 %
4047 21-01-2020 02:25:17 -3.7 C 44 %
4048 21-01-2020 02:35:17 -3.7 C 44 %
4049 21-01-2020 02:45:18 -3.8 C 44 %
4050 21-01-2020 02:55:18 -3.6 C 44 %
Sensor: Nr:Datum:Temp:Feuchte:
Aussen-T/F 4051 21-01-2020 03:05:17 -3.9 C 43 %
4052 21-01-2020 03:15:17 -3.8 C 44 %
4053 21-01-2020 03:25:17 -3.9 C 43 %
4054 21-01-2020 03:35:17 -4.2 C 43 %
4055 21-01-2020 03:45:17 -4.4 C 42 %
4056 21-01-2020 03:55:17 -4.3 C 43 %
4057 21-01-2020 04:05:18 -4.4 C 42 %
4058 21-01-2020 04:15:17 -4.5 C 42 %
4059 21-01-2020 04:25:17 -4.2 C 43 %
4060 21-01-2020 04:35:17 -4.3 C 43 %
4061 21-01-2020 04:45:17 -4.3 C 43 %
4062 21-01-2020 04:55:17 -4.5 C 43 %
4063 21-01-2020 05:05:18 -4.4 C 43 %
4064 21-01-2020 05:15:17 -4.5 C 43 %
4065 21-01-2020 05:25:17 -4.3 C 44 %
4066 21-01-2020 05:35:17 -4 C 45 %
4067 21-01-2020 05:45:17 -4.1 C 44 %
4068 21-01-2020 05:55:17 -3.9 C 45 %
4069 21-01-2020 06:05:18 -3.9 C 45 %
4070 21-01-2020 06:15:17 -3.7 C 45 %
4071 21-01-2020 06:25:17 -3.7 C 45 %
4072 21-01-2020 06:35:17 -3.5 C 45 %
4073 21-01-2020 06:45:17 -3.5 C 45 %
4074 21-01-2020 06:55:17 -3.3 C 45 %
4075 21-01-2020 07:05:17 -3.6 C 45 %
Sensor: Nr:Datum:Temp:Feuchte:
Aussen-T/F 4076 21-01-2020 07:15:17 -3.6 C 45 %
4077 21-01-2020 07:25:17 -3.5 C 45 %
4078 21-01-2020 07:35:17 -3.5 C 45 %
4079 21-01-2020 07:45:18 -3.5 C 45 %
4080 21-01-2020 07:55:18 -3.6 C 45 %
4081 21-01-2020 08:05:17 -3.3 C 45 %
4082 21-01-2020 08:15:17 -3.6 C 45 %
4083 21-01-2020 08:25:17 -3.5 C 45 %
4084 21-01-2020 08:35:17 -3.7 C 45 %
4085 21-01-2020 08:45:17 -3.8 C 45 %
4086 21-01-2020 08:55:18 -3.6 C 45 %
4087 21-01-2020 09:05:17 -3.6 C 45 %
4088 21-01-2020 09:15:17 -3.7 C 45 %
4089 21-01-2020 09:25:17 -3.5 C 45 %
4090 21-01-2020 09:35:17 -3.7 C 44 %
4091 21-01-2020 09:45:17 -3.9 C 44 %
4092 21-01-2020 09:55:17 -3.7 C 44 %
4093 21-01-2020 10:05:17 -3.6 C 45 %
4094 21-01-2020 10:15:18 -3.3 C 45 %
4095 21-01-2020 10:25:18 -3.1 C 45 %
4096 21-01-2020 10:35:17 -3 C 45 %
4097 21-01-2020 10:45:17 -3 C 44 %
4098 21-01-2020 10:55:17 -2.7 C 44 %
4099 21-01-2020 11:05:17 -3 C 44 %
4100 21-01-2020 11:15:17 -2.9 C 44 %
Sensor: Nr:Datum:Temp:Feuchte:
Aussen-T/F 4101 21-01-2020 11:25:17 -2.5 C 45 %
4102 21-01-2020 11:35:17 -2.2 C 44 %
4103 21-01-2020 11:45:18 -2 C 44 %
4104 21-01-2020 11:55:18 -1.6 C 45 %
4105 21-01-2020 12:05:18 -1.5 C 45 %
4106 21-01-2020 12:15:17 -1.5 C 45 %
4107 21-01-2020 12:25:17 -1.7 C 45 %
4108 21-01-2020 12:35:17 -1.2 C 46 %
4109 21-01-2020 12:45:18 -1.2 C 45 %
4110 21-01-2020 12:55:18 -1.2 C 45 %
4111 21-01-2020 13:05:18 -0.9 C 46 %
4112 21-01-2020 13:15:17 -1 C 45 %
4113 21-01-2020 13:25:18 -0.9 C 45 %
4114 21-01-2020 13:35:17 -0.7 C 45 %
4115 21-01-2020 13:45:17 -0.6 C 46 %
4116 21-01-2020 13:55:17 -0.8 C 45 %
4117 21-01-2020 14:05:17 -0.6 C 46 %
4118 21-01-2020 14:15:17 -0.3 C 46 %
4119 21-01-2020 14:25:17 -0.2 C 46 %
4120 21-01-2020 14:35:18 -0.3 C 46 %
4121 21-01-2020 14:45:18 -0.3 C 46 %
4122 21-01-2020 14:55:18 -0.3 C 46 %
4123 21-01-2020 15:05:17 -0.5 C 46 %
4124 21-01-2020 15:15:17 -0.6 C 46 %
4125 21-01-2020 15:25:17 -0.5 C 46 %
Sensor: Nr:Datum:Temp:Feuchte:
Aussen-T/F 4126 21-01-2020 15:35:17 -0.4 C 46 %
4127 21-01-2020 15:45:17 -0.4 C 46 %
4128 21-01-2020 15:55:18 -0.6 C 46 %
4129 21-01-2020 16:05:17 -0.8 C 46 %
4130 21-01-2020 16:15:17 -0.9 C 46 %
4131 21-01-2020 16:25:17 -0.9 C 46 %
4132 21-01-2020 16:35:17 -0.9 C 46 %
4133 21-01-2020 16:45:17 -1 C 46 %
4134 21-01-2020 16:55:17 -1.3 C 46 %
4135 21-01-2020 17:05:18 -1.4 C 46 %
4136 21-01-2020 17:15:17 -1.4 C 46 %
4137 21-01-2020 17:25:17 -1.5 C 46 %
4138 21-01-2020 17:35:17 -1.6 C 46 %
4139 21-01-2020 17:45:17 -1.7 C 46 %
4140 21-01-2020 17:55:18 -1.8 C 46 %
4141 21-01-2020 18:05:17 -1.9 C 46 %
4142 21-01-2020 18:15:17 -2.2 C 45 %
4143 21-01-2020 18:25:17 -2.2 C 45 %
4144 21-01-2020 18:35:17 -2.3 C 45 %
4145 21-01-2020 18:45:17 -2.4 C 45 %
4146 21-01-2020 18:55:17 -2.5 C 45 %
4147 21-01-2020 19:05:17 -2.1 C 46 %
4148 21-01-2020 19:15:17 -2.1 C 46 %
4149 21-01-2020 19:25:17 -2.3 C 45 %
4150 21-01-2020 19:35:17 -2.3 C 45 %
Sensor: Nr:Datum:Temp:Feuchte:
Aussen-T/F 4151 21-01-2020 19:45:17 -2.3 C 45 %
4152 21-01-2020 19:55:18 -2.4 C 45 %
4153 21-01-2020 20:05:18 -2.4 C 45 %
4154 21-01-2020 20:15:17 -2.5 C 45 %
4155 21-01-2020 20:25:17 -2.7 C 45 %
4156 21-01-2020 20:35:17 -2.5 C 45 %
4157 21-01-2020 20:45:18 -2.6 C 45 %
4158 21-01-2020 20:55:18 -2.7 C 45 %
4159 21-01-2020 21:05:18 -3 C 45 %
4160 21-01-2020 21:15:17 -3 C 45 %
4161 21-01-2020 21:25:18 -3 C 45 %
4162 21-01-2020 21:35:17 -2.9 C 45 %
4163 21-01-2020 21:45:17 -2.8 C 45 %
4164 21-01-2020 21:55:17 -2.7 C 45 %
4165 21-01-2020 22:05:18 -2.7 C 45 %
4166 21-01-2020 22:15:18 -2.9 C 45 %
4167 21-01-2020 22:25:18 -2.9 C 45 %
4168 21-01-2020 22:35:18 -3 C 45 %
4169 21-01-2020 22:45:17 -3.2 C 45 %
4170 21-01-2020 22:55:17 -3.3 C 45 %
4171 21-01-2020 23:05:18 -3.4 C 45 %
4172 21-01-2020 23:15:17 -3.2 C 45 %
4173 21-01-2020 23:25:18 -3.2 C 45 %
4174 21-01-2020 23:35:17 -3.2 C 45 %
4175 21-01-2020 23:45:17 -3.2 C 45 %
Sensor: Nr:Datum:Temp:Feuchte:
Aussen-T/F 4176 21-01-2020 23:55:17 -3.2 C 45 %
Sensor: Nr:Datum:Temp:Feuchte:
G-T/H 1 24-12-2019 00:02:17 10.3 C 75 %
2 24-12-2019 00:12:17 10.3 C 75 %
3 24-12-2019 00:22:17 10.3 C 75 %
4 24-12-2019 00:32:18 10.3 C 75 %
5 24-12-2019 00:42:18 10.3 C 75 %
6 24-12-2019 00:52:17 10.3 C 75 %
7 24-12-2019 01:02:17 10.3 C 75 %
8 24-12-2019 01:12:17 10.3 C 75 %
9 24-12-2019 01:22:17 10.3 C 75 %
10 24-12-2019 01:32:17 10.3 C 75 %
11 24-12-2019 01:42:17 10.2 C 75 %
12 24-12-2019 01:52:17 10.2 C 75 %
13 24-12-2019 02:02:17 10.2 C 75 %
14 24-12-2019 02:12:17 10.2 C 75 %
15 24-12-2019 02:22:17 10.2 C 75 %
16 24-12-2019 02:32:18 10.2 C 75 %
17 24-12-2019 02:42:18 10.2 C 75 %
18 24-12-2019 02:52:17 10.2 C 75 %
19 24-12-2019 03:02:18 10.2 C 75 %
20 24-12-2019 03:12:18 10.2 C 75 %
21 24-12-2019 03:22:17 10.2 C 75 %
22 24-12-2019 03:32:17 10.2 C 75 %
23 24-12-2019 03:42:17 10.2 C 75 %
24 24-12-2019 03:52:17 10.2 C 75 %
25 24-12-2019 04:02:17 10.2 C 75 %
Sensor: Nr:Datum:Temp:Feuchte:
G-T/H 26 24-12-2019 04:12:17 10.2 C 75 %
27 24-12-2019 04:22:17 10.2 C 75 %
28 24-12-2019 04:32:17 10.2 C 75 %
29 24-12-2019 04:42:17 10.1 C 75 %
30 24-12-2019 04:52:17 10.2 C 75 %
31 24-12-2019 05:02:18 10.2 C 75 %
32 24-12-2019 05:12:18 10.1 C 75 %
33 24-12-2019 05:22:17 10.1 C 75 %
34 24-12-2019 05:32:18 10.1 C 75 %
35 24-12-2019 05:42:18 10.1 C 75 %
36 24-12-2019 05:52:17 10.1 C 75 %
37 24-12-2019 06:02:18 10.1 C 75 %
38 24-12-2019 06:12:18 10.1 C 75 %
39 24-12-2019 06:22:17 10.1 C 75 %
40 24-12-2019 06:32:17 10.1 C 75 %
41 24-12-2019 06:42:17 10.1 C 74 %
42 24-12-2019 06:52:17 10 C 74 %
43 24-12-2019 07:02:17 10.1 C 74 %
44 24-12-2019 07:12:17 10.1 C 74 %
45 24-12-2019 07:22:17 10.1 C 74 %
46 24-12-2019 07:32:17 10.1 C 74 %
47 24-12-2019 07:42:17 10.1 C 74 %
48 24-12-2019 07:52:17 10.1 C 74 %
49 24-12-2019 08:02:17 10.1 C 74 %
50 24-12-2019 08:12:17 10.1 C 74 %
Sensor: Nr:Datum:Temp:Feuchte:
G-T/H 51 24-12-2019 08:22:17 10 C 74 %
52 24-12-2019 08:32:17 10 C 74 %
53 24-12-2019 08:42:17 10 C 74 %
54 24-12-2019 08:52:18 10 C 74 %
55 24-12-2019 09:02:17 10 C 74 %
56 24-12-2019 09:12:17 10 C 74 %
57 24-12-2019 09:22:17 10 C 75 %
58 24-12-2019 09:32:17 10 C 74 %
59 24-12-2019 09:42:17 10 C 75 %
60 24-12-2019 09:52:17 10 C 75 %
61 24-12-2019 10:02:17 10 C 75 %
62 24-12-2019 10:12:17 10 C 75 %
63 24-12-2019 10:22:17 10 C 75 %
64 24-12-2019 10:32:17 10 C 75 %
65 24-12-2019 10:42:17 10 C 75 %
66 24-12-2019 10:52:17 10 C 75 %
67 24-12-2019 11:02:17 10 C 75 %
68 24-12-2019 11:12:17 10 C 75 %
69 24-12-2019 11:22:17 10 C 75 %
70 24-12-2019 11:32:17 10 C 75 %
71 24-12-2019 11:42:17 10 C 75 %
72 24-12-2019 11:52:18 10 C 75 %
73 24-12-2019 12:02:17 10 C 75 %
74 24-12-2019 12:12:17 10 C 75 %
75 24-12-2019 12:22:17 10 C 75 %
Sensor: Nr:Datum:Temp:Feuchte:
G-T/H 76 24-12-2019 12:32:17 10 C 75 %
77 24-12-2019 12:42:17 10 C 75 %
78 24-12-2019 12:52:18 10 C 75 %
79 24-12-2019 13:02:17 10 C 75 %
80 24-12-2019 13:12:17 10 C 75 %
81 24-12-2019 13:22:17 10 C 75 %
82 24-12-2019 13:32:17 10.1 C 75 %
83 24-12-2019 13:42:17 10.1 C 75 %
84 24-12-2019 13:52:17 10 C 75 %
85 24-12-2019 14:02:18 10 C 75 %
86 24-12-2019 14:12:18 10.1 C 75 %
87 24-12-2019 14:22:17 10 C 75 %
88 24-12-2019 14:32:18 10.1 C 75 %
89 24-12-2019 14:42:18 10.1 C 75 %
90 24-12-2019 14:52:17 10.1 C 75 %
91 24-12-2019 15:02:18 10 C 75 %
92 24-12-2019 15:12:18 10.1 C 75 %
93 24-12-2019 15:22:17 10.1 C 75 %
94 24-12-2019 15:32:17 10.1 C 75 %
95 24-12-2019 15:42:17 10.1 C 75 %
96 24-12-2019 15:52:17 10.1 C 75 %
97 24-12-2019 16:02:17 10.1 C 75 %
98 24-12-2019 16:12:17 10.1 C 75 %
99 24-12-2019 16:22:17 10.1 C 75 %
100 24-12-2019 16:32:17 10.1 C 75 %
Sensor: Nr:Datum:Temp:Feuchte:
G-T/H 101 24-12-2019 16:42:17 10.1 C 75 %
102 24-12-2019 16:52:17 10.1 C 75 %
103 24-12-2019 17:02:17 10.1 C 75 %
104 24-12-2019 17:12:17 10.1 C 75 %
105 24-12-2019 17:22:18 10.1 C 75 %
106 24-12-2019 17:32:17 10.1 C 75 %
107 24-12-2019 17:42:17 10.1 C 75 %
108 24-12-2019 17:52:17 10.2 C 75 %
109 24-12-2019 18:02:17 10.2 C 75 %
110 24-12-2019 18:12:17 10.2 C 75 %
111 24-12-2019 18:22:17 10.2 C 75 %
112 24-12-2019 18:32:17 10.2 C 75 %
113 24-12-2019 18:42:17 10.2 C 75 %
114 24-12-2019 18:52:17 10.2 C 75 %
115 24-12-2019 19:02:17 10.2 C 75 %
116 24-12-2019 19:12:17 10.2 C 75 %
117 24-12-2019 19:22:17 10.2 C 75 %
118 24-12-2019 19:32:17 10.2 C 75 %
119 24-12-2019 19:42:17 10.2 C 75 %
120 24-12-2019 19:52:17 10.2 C 76 %
121 24-12-2019 20:02:17 10.2 C 75 %
122 24-12-2019 20:12:17 10.2 C 75 %
123 24-12-2019 20:22:17 10.1 C 75 %
124 24-12-2019 20:32:18 10.1 C 75 %
125 24-12-2019 20:42:18 10.2 C 75 %
Sensor: Nr:Datum:Temp:Feuchte:
G-T/H 126 24-12-2019 20:52:17 10.2 C 75 %
127 24-12-2019 21:02:17 10.2 C 75 %
128 24-12-2019 21:12:17 10.2 C 75 %
129 24-12-2019 21:22:17 10.2 C 75 %
130 24-12-2019 21:32:17 10.2 C 75 %
131 24-12-2019 21:42:17 10.2 C 75 %
132 24-12-2019 21:52:17 10.2 C 75 %
133 24-12-2019 22:02:17 10.2 C 75 %
134 24-12-2019 22:12:17 10.2 C 75 %
135 24-12-2019 22:22:17 10.1 C 75 %
136 24-12-2019 22:32:17 10.2 C 75 %
137 24-12-2019 22:42:17 10.2 C 75 %
138 24-12-2019 22:52:17 10.2 C 76 %
139 24-12-2019 23:02:17 10.2 C 76 %
140 24-12-2019 23:12:17 10.2 C 76 %
141 24-12-2019 23:22:17 10.2 C 76 %
142 24-12-2019 23:32:17 10.2 C 76 %
143 24-12-2019 23:42:17 10.2 C 76 %
144 24-12-2019 23:52:17 10.2 C 76 %
145 25-12-2019 00:02:17 10.2 C 76 %
146 25-12-2019 00:12:17 10.2 C 76 %
147 25-12-2019 00:22:17 10.2 C 76 %
148 25-12-2019 00:32:17 10.2 C 76 %
149 25-12-2019 00:42:18 10.2 C 76 %
150 25-12-2019 00:52:17 10.2 C 76 %
Sensor: Nr:Datum:Temp:Feuchte:
G-T/H 151 25-12-2019 01:02:17 10.2 C 76 %
152 25-12-2019 01:12:17 10.2 C 76 %
153 25-12-2019 01:22:17 10.2 C 76 %
154 25-12-2019 01:32:18 10.2 C 76 %
155 25-12-2019 01:42:18 10.2 C 76 %
156 25-12-2019 01:52:17 10.2 C 76 %
157 25-12-2019 02:02:17 10.2 C 76 %
158 25-12-2019 02:12:17 10.2 C 76 %
159 25-12-2019 02:22:17 10.2 C 76 %
160 25-12-2019 02:32:18 10.2 C 76 %
161 25-12-2019 02:42:18 10.2 C 76 %
162 25-12-2019 02:52:17 10.2 C 76 %
163 25-12-2019 03:02:17 10.2 C 76 %
164 25-12-2019 03:12:17 10.2 C 76 %
165 25-12-2019 03:22:17 10.2 C 76 %
166 25-12-2019 03:32:17 10.2 C 76 %
167 25-12-2019 03:42:17 10.2 C 76 %
168 25-12-2019 03:52:18 10.2 C 76 %
169 25-12-2019 04:02:17 10.2 C 76 %
170 25-12-2019 04:12:17 10.2 C 76 %
171 25-12-2019 04:22:18 10.2 C 76 %
172 25-12-2019 04:32:17 10.2 C 76 %
173 25-12-2019 04:42:17 10.2 C 76 %
174 25-12-2019 04:52:17 10.2 C 76 %
175 25-12-2019 05:02:17 10.2 C 76 %
Sensor: Nr:Datum:Temp:Feuchte:
G-T/H 176 25-12-2019 05:12:17 10.2 C 76 %
177 25-12-2019 05:22:18 10.2 C 76 %
178 25-12-2019 05:32:17 10.2 C 76 %
179 25-12-2019 05:42:17 10.2 C 76 %
180 25-12-2019 05:52:17 10.2 C 76 %
181 25-12-2019 06:02:18 10.2 C 76 %
182 25-12-2019 06:12:18 10.2 C 76 %
183 25-12-2019 06:22:17 10.2 C 76 %
184 25-12-2019 06:32:18 10.2 C 76 %
185 25-12-2019 06:42:18 10.2 C 76 %
186 25-12-2019 06:52:17 10.2 C 76 %
187 25-12-2019 07:02:18 10.2 C 76 %
188 25-12-2019 07:12:18 10.2 C 76 %
189 25-12-2019 07:22:17 10.2 C 76 %
190 25-12-2019 07:32:18 10.2 C 76 %
191 25-12-2019 07:42:18 10.2 C 76 %
192 25-12-2019 07:52:17 10.2 C 76 %
193 25-12-2019 08:02:18 10.2 C 76 %
194 25-12-2019 08:12:18 10.2 C 76 %
195 25-12-2019 08:22:17 10.2 C 76 %
196 25-12-2019 08:32:17 10.2 C 76 %
197 25-12-2019 08:42:17 10.2 C 76 %
198 25-12-2019 08:52:17 10.2 C 76 %
199 25-12-2019 09:02:17 10.2 C 76 %
200 25-12-2019 09:12:17 10.2 C 76 %
Sensor: Nr:Datum:Temp:Feuchte:
G-T/H 201 25-12-2019 09:22:18 10.2 C 76 %
202 25-12-2019 09:32:17 10.2 C 76 %
203 25-12-2019 09:42:17 10.2 C 76 %
204 25-12-2019 09:52:17 10.2 C 76 %
205 25-12-2019 10:02:17 10.2 C 76 %
206 25-12-2019 10:12:17 10.2 C 76 %
207 25-12-2019 10:22:18 10.2 C 76 %
208 25-12-2019 10:32:17 10.2 C 76 %
209 25-12-2019 10:42:17 10.2 C 76 %
210 25-12-2019 10:52:17 10.3 C 76 %
211 25-12-2019 11:02:17 10.3 C 76 %
212 25-12-2019 11:12:17 10.3 C 76 %
213 25-12-2019 11:22:17 10.2 C 76 %
214 25-12-2019 11:32:17 10.3 C 76 %
215 25-12-2019 11:42:17 10.2 C 76 %
216 25-12-2019 11:52:18 10.3 C 76 %
217 25-12-2019 12:02:17 10.2 C 76 %
218 25-12-2019 12:12:17 10.2 C 76 %
219 25-12-2019 12:22:17 10.3 C 76 %
220 25-12-2019 12:32:17 10.3 C 76 %
221 25-12-2019 12:42:17 10.3 C 76 %
222 25-12-2019 12:52:18 10.3 C 76 %
223 25-12-2019 13:02:17 10.3 C 76 %
224 25-12-2019 13:12:17 10.2 C 76 %
225 25-12-2019 13:22:18 10.3 C 76 %
Sensor: Nr:Datum:Temp:Feuchte:
G-T/H 226 25-12-2019 13:32:17 10.3 C 76 %
227 25-12-2019 13:42:17 10.2 C 76 %
228 25-12-2019 13:52:17 10.2 C 76 %
229 25-12-2019 14:02:17 10.3 C 76 %
230 25-12-2019 14:12:17 10.3 C 76 %
231 25-12-2019 14:22:18 10.3 C 76 %
232 25-12-2019 14:32:17 10.3 C 76 %
233 25-12-2019 14:42:17 10.3 C 76 %
234 25-12-2019 14:52:17 10.3 C 76 %
235 25-12-2019 15:02:17 10.2 C 76 %
236 25-12-2019 15:12:17 10.3 C 76 %
237 25-12-2019 15:22:18 10.3 C 76 %
238 25-12-2019 15:32:17 10.3 C 76 %
239 25-12-2019 15:42:17 10.3 C 76 %
240 25-12-2019 15:52:17 10.3 C 76 %
241 25-12-2019 16:02:17 10.3 C 76 %
242 25-12-2019 16:12:17 10.3 C 76 %
243 25-12-2019 16:22:17 10.3 C 76 %
244 25-12-2019 16:32:17 10.3 C 76 %
245 25-12-2019 16:42:17 10.3 C 76 %
246 25-12-2019 16:52:17 10.3 C 76 %
247 25-12-2019 17:02:17 10.3 C 76 %
248 25-12-2019 17:12:17 10.3 C 76 %
249 25-12-2019 17:22:18 10.3 C 76 %
250 25-12-2019 17:32:17 10.3 C 76 %
Sensor: Nr:Datum:Temp:Feuchte:
G-T/H 251 25-12-2019 17:42:17 10.3 C 76 %
252 25-12-2019 17:52:18 10.3 C 76 %
253 25-12-2019 18:02:17 10.3 C 76 %
254 25-12-2019 18:12:17 10.3 C 76 %
255 25-12-2019 18:22:17 10.3 C 76 %
256 25-12-2019 18:32:17 10.3 C 76 %
257 25-12-2019 18:42:17 10.3 C 76 %
258 25-12-2019 18:52:17 10.3 C 76 %
259 25-12-2019 19:02:17 10.3 C 76 %
260 25-12-2019 19:12:17 10.3 C 76 %
261 25-12-2019 19:22:17 10.3 C 76 %
262 25-12-2019 19:32:18 10.3 C 76 %
263 25-12-2019 19:42:18 10.3 C 76 %
264 25-12-2019 19:52:17 10.3 C 76 %
265 25-12-2019 20:02:17 10.3 C 76 %
266 25-12-2019 20:12:17 10.3 C 76 %
267 25-12-2019 20:22:18 10.3 C 76 %
268 25-12-2019 20:32:17 10.3 C 76 %
269 25-12-2019 20:42:17 10.3 C 76 %
270 25-12-2019 20:52:17 10.3 C 76 %
271 25-12-2019 21:02:18 10.3 C 76 %
272 25-12-2019 21:12:18 10.3 C 76 %
273 25-12-2019 21:22:17 10.3 C 76 %
274 25-12-2019 21:32:17 10.3 C 76 %
275 25-12-2019 21:42:17 10.3 C 76 %
Sensor: Nr:Datum:Temp:Feuchte:
G-T/H 276 25-12-2019 21:52:17 10.2 C 76 %
277 25-12-2019 22:02:18 10.3 C 76 %
278 25-12-2019 22:12:18 10.3 C 76 %
279 25-12-2019 22:22:17 10.3 C 76 %
280 25-12-2019 22:32:18 10.3 C 76 %
281 25-12-2019 22:42:18 10.3 C 76 %
282 25-12-2019 22:52:17 10.2 C 76 %
283 25-12-2019 23:02:18 10.2 C 76 %
284 25-12-2019 23:12:18 10.3 C 75 %
285 25-12-2019 23:22:17 10.2 C 75 %
286 25-12-2019 23:32:17 10.2 C 75 %
287 25-12-2019 23:42:17 10.2 C 75 %
288 25-12-2019 23:52:17 10.2 C 75 %
289 26-12-2019 00:02:17 10.2 C 75 %
290 26-12-2019 00:12:18 10.2 C 75 %
291 26-12-2019 00:22:17 10.2 C 75 %
292 26-12-2019 00:32:18 10.2 C 75 %
293 26-12-2019 00:42:18 10.2 C 75 %
294 26-12-2019 00:52:17 10.2 C 75 %
295 26-12-2019 01:02:18 10.2 C 75 %
296 26-12-2019 01:12:18 10.2 C 75 %
297 26-12-2019 01:22:17 10.2 C 75 %
298 26-12-2019 01:32:17 10.2 C 75 %
299 26-12-2019 01:42:17 10.2 C 75 %
300 26-12-2019 01:52:17 10.2 C 75 %
Sensor: Nr:Datum:Temp:Feuchte:
G-T/H 301 26-12-2019 02:02:18 10.2 C 75 %
302 26-12-2019 02:12:18 10.1 C 75 %
303 26-12-2019 02:22:17 10.1 C 75 %
304 26-12-2019 02:32:17 10.2 C 75 %
305 26-12-2019 02:42:17 10.2 C 75 %
306 26-12-2019 02:52:17 10.1 C 75 %
307 26-12-2019 03:02:18 10.1 C 75 %
308 26-12-2019 03:12:18 10.2 C 75 %
309 26-12-2019 03:22:17 10.2 C 75 %
310 26-12-2019 03:32:17 10.2 C 75 %
311 26-12-2019 03:42:17 10.1 C 75 %
312 26-12-2019 03:52:17 10.1 C 75 %
313 26-12-2019 04:02:17 10.1 C 75 %
314 26-12-2019 04:12:17 10.1 C 75 %
315 26-12-2019 04:22:18 10.1 C 75 %
316 26-12-2019 04:32:17 10.1 C 75 %
317 26-12-2019 04:42:17 10.1 C 75 %
318 26-12-2019 04:52:17 10 C 75 %
319 26-12-2019 05:02:17 10 C 75 %
320 26-12-2019 05:12:17 10.1 C 74 %
321 26-12-2019 05:22:17 10 C 74 %
322 26-12-2019 05:32:18 10 C 74 %
323 26-12-2019 05:42:18 10 C 74 %
324 26-12-2019 05:52:17 10 C 74 %
325 26-12-2019 06:02:17 10 C 74 %
Sensor: Nr:Datum:Temp:Feuchte:
G-T/H 326 26-12-2019 06:12:18 10 C 74 %
327 26-12-2019 06:22:17 10 C 74 %
328 26-12-2019 06:32:18 10 C 74 %
329 26-12-2019 06:42:18 10 C 74 %
330 26-12-2019 06:52:17 10 C 74 %
331 26-12-2019 07:02:18 10 C 74 %
332 26-12-2019 07:12:18 10 C 74 %
333 26-12-2019 07:22:17 10 C 74 %
334 26-12-2019 07:32:17 10 C 74 %
335 26-12-2019 07:42:17 10 C 74 %
336 26-12-2019 07:52:17 10 C 74 %
337 26-12-2019 08:02:18 9.9 C 75 %
338 26-12-2019 08:12:18 9.9 C 75 %
339 26-12-2019 08:22:17 9.9 C 75 %
340 26-12-2019 08:32:17 9.9 C 75 %
341 26-12-2019 08:42:17 9.9 C 75 %
342 26-12-2019 08:52:17 9.9 C 75 %
343 26-12-2019 09:02:17 9.9 C 75 %
344 26-12-2019 09:12:17 9.9 C 75 %
345 26-12-2019 09:22:17 9.9 C 75 %
346 26-12-2019 09:32:17 9.9 C 75 %
347 26-12-2019 09:42:17 9.9 C 75 %
348 26-12-2019 09:52:18 9.9 C 75 %
349 26-12-2019 10:02:17 9.9 C 75 %
350 26-12-2019 10:12:17 9.9 C 75 %
Sensor: Nr:Datum:Temp:Feuchte:
G-T/H 351 26-12-2019 10:22:18 9.9 C 75 %
352 26-12-2019 10:32:17 9.9 C 75 %
353 26-12-2019 10:42:17 9.9 C 75 %
354 26-12-2019 10:52:18 9.9 C 75 %
355 26-12-2019 11:02:17 9.9 C 75 %
356 26-12-2019 11:12:17 9.9 C 75 %
357 26-12-2019 11:22:17 9.9 C 75 %
358 26-12-2019 11:32:17 9.9 C 75 %
359 26-12-2019 11:42:17 9.9 C 75 %
360 26-12-2019 11:52:17 9.9 C 75 %
361 26-12-2019 12:02:17 9.9 C 75 %
362 26-12-2019 12:12:17 9.9 C 75 %
363 26-12-2019 12:22:17 9.9 C 75 %
364 26-12-2019 12:32:18 9.9 C 75 %
365 26-12-2019 12:42:18 9.9 C 76 %
366 26-12-2019 12:52:17 9.9 C 76 %
367 26-12-2019 13:02:18 9.9 C 76 %
368 26-12-2019 13:12:18 9.9 C 76 %
369 26-12-2019 13:22:17 9.9 C 76 %
370 26-12-2019 13:32:18 9.8 C 76 %
371 26-12-2019 13:42:18 9.9 C 76 %
372 26-12-2019 13:52:17 9.8 C 76 %
373 26-12-2019 14:02:18 9.9 C 76 %
374 26-12-2019 14:12:18 9.8 C 76 %
375 26-12-2019 14:22:17 9.8 C 76 %
Sensor: Nr:Datum:Temp:Feuchte:
G-T/H 376 26-12-2019 14:32:17 9.9 C 76 %
377 26-12-2019 14:42:17 9.9 C 76 %
378 26-12-2019 14:52:17 9.9 C 76 %
379 26-12-2019 15:02:17 9.9 C 76 %
380 26-12-2019 15:12:17 9.9 C 76 %
381 26-12-2019 15:22:17 9.9 C 76 %
382 26-12-2019 15:32:17 9.8 C 76 %
383 26-12-2019 15:42:17 9.8 C 76 %
384 26-12-2019 15:52:18 9.8 C 76 %
385 26-12-2019 16:02:17 9.8 C 76 %
386 26-12-2019 16:12:17 9.9 C 76 %
387 26-12-2019 16:22:17 9.8 C 76 %
388 26-12-2019 16:32:17 9.8 C 76 %
389 26-12-2019 16:42:18 9.8 C 76 %
390 26-12-2019 16:53:17 9.8 C 76 %
391 26-12-2019 17:02:17 9.8 C 76 %
392 26-12-2019 17:12:17 9.8 C 76 %
393 26-12-2019 17:22:17 9.8 C 76 %
394 26-12-2019 17:32:17 9.8 C 76 %
395 26-12-2019 17:42:17 9.8 C 76 %
396 26-12-2019 17:52:17 9.8 C 76 %
397 26-12-2019 18:02:17 9.8 C 76 %
398 26-12-2019 18:12:17 9.8 C 76 %
399 26-12-2019 18:22:17 9.8 C 76 %
400 26-12-2019 18:32:17 9.8 C 76 %
Sensor: Nr:Datum:Temp:Feuchte:
G-T/H 401 26-12-2019 18:42:18 9.8 C 76 %
402 26-12-2019 18:53:17 9.8 C 76 %
403 26-12-2019 19:02:17 9.8 C 76 %
404 26-12-2019 19:12:17 9.8 C 76 %
405 26-12-2019 19:23:17 9.8 C 76 %
406 26-12-2019 19:32:17 9.8 C 76 %
407 26-12-2019 19:42:17 9.8 C 76 %
408 26-12-2019 19:53:17 9.8 C 76 %
409 26-12-2019 20:02:17 9.8 C 76 %
410 26-12-2019 20:12:17 9.8 C 76 %
411 26-12-2019 20:23:17 9.8 C 76 %
412 26-12-2019 20:32:17 9.8 C 76 %
413 26-12-2019 20:42:17 9.8 C 76 %
414 26-12-2019 20:53:17 9.8 C 76 %
415 26-12-2019 21:02:17 9.8 C 76 %
416 26-12-2019 21:12:17 9.8 C 76 %
417 26-12-2019 21:23:17 9.8 C 76 %
418 26-12-2019 21:32:18 9.8 C 76 %
419 26-12-2019 21:42:18 9.8 C 75 %
420 26-12-2019 21:52:17 9.8 C 75 %
421 26-12-2019 22:02:18 9.8 C 75 %
422 26-12-2019 22:12:18 9.8 C 75 %
423 26-12-2019 22:22:17 9.8 C 75 %
424 26-12-2019 22:33:17 9.8 C 75 %
425 26-12-2019 22:43:17 9.8 C 75 %
Sensor: Nr:Datum:Temp:Feuchte:
G-T/H 426 26-12-2019 22:52:17 9.8 C 75 %
427 26-12-2019 23:03:17 9.8 C 75 %
428 26-12-2019 23:13:17 9.8 C 75 %
429 26-12-2019 23:23:17 9.8 C 75 %
430 26-12-2019 23:32:17 9.7 C 75 %
431 26-12-2019 23:42:17 9.7 C 75 %
432 26-12-2019 23:53:17 9.7 C 75 %
433 27-12-2019 00:02:17 9.7 C 75 %
434 27-12-2019 00:12:17 9.7 C 75 %
435 27-12-2019 00:23:17 9.7 C 75 %
436 27-12-2019 00:32:17 9.7 C 75 %
437 27-12-2019 00:42:18 9.7 C 75 %
438 27-12-2019 00:53:17 9.7 C 75 %
439 27-12-2019 01:03:18 9.7 C 75 %
440 27-12-2019 01:13:18 9.7 C 75 %
441 27-12-2019 01:23:17 9.7 C 75 %
442 27-12-2019 01:33:17 9.7 C 75 %
443 27-12-2019 01:43:17 9.7 C 75 %
444 27-12-2019 01:53:18 9.7 C 75 %
445 27-12-2019 02:03:17 9.7 C 75 %
446 27-12-2019 02:13:17 9.7 C 75 %
447 27-12-2019 02:23:17 9.7 C 75 %
448 27-12-2019 02:33:18 9.8 C 75 %
449 27-12-2019 02:43:19 9.7 C 75 %
450 27-12-2019 02:53:17 9.7 C 75 %
Sensor: Nr:Datum:Temp:Feuchte:
G-T/H 451 27-12-2019 03:03:17 9.7 C 75 %
452 27-12-2019 03:13:17 9.7 C 75 %
453 27-12-2019 03:23:17 9.7 C 75 %
454 27-12-2019 03:33:17 9.7 C 75 %
455 27-12-2019 03:43:18 9.7 C 75 %
456 27-12-2019 03:53:17 9.7 C 75 %
457 27-12-2019 04:03:17 9.7 C 75 %
458 27-12-2019 04:13:17 9.7 C 75 %
459 27-12-2019 04:23:17 9.7 C 75 %
460 27-12-2019 04:33:17 9.7 C 75 %
461 27-12-2019 04:43:17 9.7 C 75 %
462 27-12-2019 04:53:18 9.7 C 75 %
463 27-12-2019 05:03:17 9.7 C 75 %
464 27-12-2019 05:13:17 9.7 C 75 %
465 27-12-2019 05:23:17 9.7 C 75 %
466 27-12-2019 05:33:17 9.7 C 75 %
467 27-12-2019 05:43:17 9.7 C 75 %
468 27-12-2019 05:53:17 9.7 C 75 %
469 27-12-2019 06:03:17 9.7 C 75 %
470 27-12-2019 06:13:17 9.7 C 75 %
471 27-12-2019 06:23:17 9.7 C 75 %
472 27-12-2019 06:33:17 9.7 C 76 %
473 27-12-2019 06:43:17 9.7 C 76 %
474 27-12-2019 06:53:17 9.7 C 76 %
475 27-12-2019 07:03:17 9.7 C 76 %
Sensor: Nr:Datum:Temp:Feuchte:
G-T/H 476 27-12-2019 07:13:17 9.7 C 76 %
477 27-12-2019 07:23:18 9.7 C 76 %
478 27-12-2019 07:33:17 9.7 C 76 %
479 27-12-2019 07:43:17 9.7 C 76 %
480 27-12-2019 07:53:17 9.7 C 76 %
481 27-12-2019 08:03:17 9.7 C 76 %
482 27-12-2019 08:13:17 9.7 C 76 %
483 27-12-2019 08:23:17 9.7 C 76 %
484 27-12-2019 08:33:17 9.7 C 76 %
485 27-12-2019 08:43:17 9.7 C 76 %
486 27-12-2019 08:53:18 9.7 C 76 %
487 27-12-2019 09:03:17 9.7 C 76 %
488 27-12-2019 09:13:17 9.7 C 76 %
489 27-12-2019 09:23:17 9.7 C 76 %
490 27-12-2019 09:33:17 9.7 C 76 %
491 27-12-2019 09:43:17 9.7 C 76 %
492 27-12-2019 09:53:17 9.7 C 76 %
493 27-12-2019 10:03:17 9.7 C 76 %
494 27-12-2019 10:13:17 9.6 C 76 %
495 27-12-2019 10:23:17 9.7 C 76 %
496 27-12-2019 10:33:18 9.7 C 76 %
497 27-12-2019 10:43:18 9.7 C 76 %
498 27-12-2019 10:53:17 9.7 C 76 %
499 27-12-2019 11:03:18 9.7 C 76 %
500 27-12-2019 11:13:18 9.7 C 76 %
Sensor: Nr:Datum:Temp:Feuchte:
G-T/H 501 27-12-2019 11:23:17 9.7 C 76 %
502 27-12-2019 11:33:17 9.7 C 76 %
503 27-12-2019 11:43:17 9.6 C 76 %
504 27-12-2019 11:53:17 9.7 C 76 %
505 27-12-2019 12:03:17 9.7 C